GFSSGP_925_thetae_000.txt.gz
Theta_e
309 310 318 324 332 332 338 337 330 332 330 322 321 320 321 322 334 328 330 335 331 326 325 318 321 324 321 321 321 322 324 324 324 325 325 327 330 331 332 333 333 333 332 332 332 332 331 330 330
309 322 327 331 336 341 338 335 335 330 328 320 320 322 323 324 329 331 335 336 331 325 329 318 320 324 322 322 321 322 325 326 326 326 330 331 331 331 333 334 334 334 334 335 335 334 333 331 330
315 323 330 338 338 341 338 334 333 329 326 323 322 320 323 326 328 330 335 336 331 326 330 323 321 323 322 322 321 323 327 328 330 335 334 334 333 333 335 334 334 334 334 336 336 336 335 334 332
326 330 330 338 342 337 335 334 333 325 322 319 321 325 323 324 328 331 334 335 333 330 332 326 323 323 322 322 322 323 327 328 329 335 337 336 337 337 332 332 335 334 335 333 333 335 337 336 335
332 329 338 338 339 336 331 330 327 323 319 319 322 324 324 324 328 331 333 335 335 333 333 327 324 322 322 322 323 324 325 325 328 336 337 338 336 337 335 335 334 334 334 333 332 332 332 335 336
330 324 332 334 332 329 326 325 325 323 322 320 324 324 323 324 328 330 332 332 334 333 332 327 324 323 323 324 324 325 324 323 323 333 335 338 337 336 335 335 335 334 334 332 331 332 331 332 334
329 327 330 329 330 330 328 324 323 324 323 323 322 325 322 323 327 329 332 331 333 331 329 326 324 325 325 325 325 325 321 321 321 323 326 328 326 325 329 330 332 332 333 332 332 332 331 331 332
326 325 330 328 328 327 325 324 322 323 325 322 324 324 323 323 327 331 332 332 331 330 328 327 326 327 327 327 327 325 322 321 322 324 325 324 326 324 328 328 328 329 330 330 330 331 331 331 331
322 328 329 327 327 325 324 326 323 323 323 321 322 322 323 325 327 334 335 334 332 331 329 328 328 329 328 329 328 326 323 323 324 326 325 327 326 324 323 323 323 326 329 329 329 329 329 329 331
325 327 327 325 324 326 325 327 326 324 325 320 319 319 323 324 325 328 329 332 334 334 332 330 330 330 329 329 328 325 324 325 325 326 326 326 326 324 323 324 323 328 330 331 331 331 331 330 330
325 329 327 326 325 326 327 326 326 325 327 326 322 321 321 321 321 322 326 330 332 332 333 332 333 331 330 329 325 327 325 325 326 326 327 327 326 325 324 325 324 324 324 325 325 323 327 329 330
328 326 327 326 325 325 326 326 327 326 326 325 322 320 322 320 319 320 322 326 329 330 331 333 336 332 330 327 326 324 324 326 327 327 328 329 327 326 325 326 324 324 324 325 325 324 326 328 329
325 326 326 325 324 325 325 325 327 326 326 324 321 318 318 320 320 321 322 324 324 326 329 333 333 332 329 327 325 324 325 327 327 328 327 327 327 326 326 327 326 324 326 325 325 325 325 327 328
325 325 325 325 326 326 327 327 327 328 327 324 322 320 318 320 320 320 320 321 322 322 323 325 330 331 329 325 324 324 326 327 328 328 328 328 328 327 327 327 327 325 324 325 325 324 324 325 327
317 319 318 319 320 322 324 325 326 326 324 320 320 319 317 320 320 319 320 321 322 320 320 322 329 329 324 324 322 326 327 328 329 329 329 329 329 329 329 327 328 326 324 325 324 323 324 324 326
317 317 318 318 320 320 322 324 324 323 322 322 321 320 318 317 320 321 320 321 320 320 320 323 327 324 325 324 324 327 328 329 329 329 330 330 330 329 329 328 328 325 324 324 324 323 324 324 325
314 316 316 316 317 319 323 322 322 321 321 320 320 319 319 317 316 319 321 320 319 320 320 324 324 325 324 324 326 328 329 329 329 329 330 330 330 330 329 328 327 326 323 324 324 323 323 324 324
315 315 315 316 317 318 319 320 321 321 321 320 320 319 318 318 317 317 319 319 319 320 321 323 325 325 325 325 326 328 328 329 329 330 330 330 330 330 329 327 325 321 324 324 324 323 322 323 324
314 314 313 314 317 318 318 319 320 321 319 319 320 320 319 319 317 316 318 318 320 321 322 325 326 327 327 326 328 327 329 329 329 329 329 330 330 329 328 324 322 321 325 323 323 323 322 323 323
315 314 313 315 319 320 319 320 319 319 320 319 321 320 320 318 320 318 317 318 320 323 324 326 326 327 327 328 327 328 329 329 328 328 329 330 329 329 328 325 323 325 324 323 322 321 321 322 323
315 315 316 316 319 320 320 320 320 321 320 319 319 319 318 317 319 319 316 318 321 323 325 326 327 327 328 328 327 328 328 328 328 328 328 329 328 327 327 326 325 325 324 322 322 321 321 322 323
319 317 317 319 320 320 320 323 320 319 321 319 318 317 318 318 320 319 317 319 322 323 326 327 327 327 329 328 328 327 328 328 327 327 327 327 325 326 325 325 325 324 323 322 321 321 322 323 324
319 318 319 320 321 320 320 321 320 319 320 320 319 318 316 315 320 319 318 321 323 325 327 327 327 328 328 328 329 330 328 327 327 326 327 326 326 325 325 324 323 323 323 323 321 321 322 324 325
316 316 317 317 317 321 319 320 319 320 321 320 319 318 319 318 320 318 319 322 324 326 327 327 328 329 328 328 329 330 327 326 325 325 326 325 325 326 324 323 324 324 324 323 323 322 323 324 325
315 314 315 318 319 321 319 320 319 319 319 319 320 318 320 321 320 320 321 321 321 325 327 328 328 327 327 328 329 329 328 325 324 325 325 324 325 325 324 323 323 325 324 325 325 324 324 324 325
316 315 316 318 322 324 320 324 323 320 320 319 319 318 320 321 320 320 321 320 321 324 327 327 327 327 328 329 329 328 328 324 324 324 325 323 324 324 324 323 323 324 325 325 325 325 325 325 325
315 315 315 319 320 321 321 321 321 320 320 320 320 320 321 321 321 320 320 320 321 324 326 327 325 325 327 327 329 327 328 325 324 324 324 323 323 323 323 323 323 324 325 325 326 326 327 325 326
312 314 316 315 320 323 322 323 323 322 320 322 322 320 320 321 321 321 320 319 322 324 326 326 325 325 325 325 328 328 328 326 324 324 323 323 322 322 323 322 323 323 325 325 326 327 327 328 329
312 313 313 315 316 321 322 323 318 321 319 320 320 319 320 323 323 322 319 320 322 324 326 325 325 325 324 327 327 327 328 327 324 324 323 322 322 322 322 323 323 323 326 327 327 329 327 327 327
313 313 314 316 318 318 321 322 319 318 317 317 319 320 320 322 322 322 320 318 320 323 324 324 325 325 324 327 326 327 328 328 326 325 323 324 323 323 323 325 325 325 327 327 327 328 328 327 327

GFSSGP_925_thetae_003.txt.gz
Theta_e
310 310 318 326 331 335 335 339 334 337 335 326 325 326 328 329 337 332 332 335 333 325 321 320 319 322 321 319 319 319 321 321 321 321 321 320 319 321 321 323 324 323 327 335 335 335 334 332 331
310 318 328 333 336 343 344 340 340 336 335 331 324 324 325 327 329 333 338 335 332 326 318 322 318 321 323 320 320 320 322 323 324 324 325 327 325 327 332 333 335 335 334 334 337 337 336 335 333
318 325 336 341 345 347 343 338 337 337 332 327 328 323 325 329 331 334 336 335 330 326 323 318 317 321 324 322 321 321 322 324 325 326 329 331 328 325 327 333 336 336 335 334 337 338 338 337 336
325 332 335 341 345 344 341 339 339 336 328 324 324 327 326 326 330 331 335 335 330 326 329 324 319 320 324 322 322 322 322 324 326 328 332 334 334 334 336 337 334 337 336 335 336 335 335 337 337
331 337 334 341 341 340 339 339 336 334 329 324 324 327 328 326 327 328 335 334 331 327 329 329 320 320 323 322 322 322 323 325 327 331 335 337 336 337 336 337 337 336 336 336 336 334 333 333 334
332 334 336 332 332 333 333 332 331 330 327 327 325 326 328 325 328 330 334 335 333 330 326 332 324 321 323 322 323 323 324 326 328 329 334 335 337 338 337 336 337 336 336 336 336 333 332 332 332
332 335 330 331 329 329 330 330 330 329 328 329 325 327 328 327 327 331 333 336 334 333 328 333 335 322 323 322 323 324 325 325 325 326 332 333 332 330 329 330 332 333 334 335 335 333 331 332 333
329 332 331 331 329 328 327 327 325 327 329 325 325 328 329 328 326 330 333 335 334 336 336 336 334 335 335 337 324 324 326 324 323 329 329 327 325 326 326 327 328 327 331 332 332 332 332 332 330
326 331 330 329 328 328 327 328 326 326 328 326 325 327 327 325 326 334 335 335 334 335 337 336 337 335 338 339 339 327 327 323 325 327 326 327 330 330 328 325 324 326 329 330 331 331 331 331 331
330 332 330 329 328 328 327 328 329 329 329 329 329 327 323 324 327 331 335 334 334 334 334 333 328 336 333 338 339 339 338 335 335 333 330 332 332 329 328 325 324 326 330 332 332 332 331 332 328
328 331 329 329 328 327 328 329 328 328 329 329 329 329 329 327 326 328 332 332 332 334 334 333 330 329 334 339 339 339 336 335 334 327 327 329 329 329 329 328 329 329 327 327 328 328 327 329 331
328 328 329 328 328 328 328 328 328 329 330 329 329 328 327 327 327 328 330 332 332 332 333 332 330 330 334 338 335 335 333 331 330 330 327 331 331 330 330 328 329 329 328 328 329 328 328 329 330
329 328 329 329 329 328 328 329 329 329 328 327 328 328 328 327 327 326 327 330 331 332 332 335 332 330 332 332 332 329 328 327 328 329 329 329 331 332 331 330 330 330 327 329 329 326 328 329 330
325 327 328 328 328 328 328 328 328 328 329 328 329 329 328 327 326 325 325 326 328 329 329 330 331 333 335 332 328 325 325 324 327 328 329 328 330 331 331 330 330 328 326 326 328 327 327 327 329
326 328 328 328 327 328 325 324 325 326 326 327 327 328 328 327 325 325 326 325 326 326 326 326 329 333 335 330 327 325 323 327 328 329 329 329 329 330 331 331 331 328 328 324 325 327 327 327 327
319 320 321 320 321 321 321 324 323 324 326 327 327 327 325 326 327 325 325 325 325 325 322 322 327 333 333 330 327 324 326 328 329 329 329 330 330 331 331 331 332 329 328 325 325 326 327 327 327
319 320 320 320 321 321 324 324 323 323 324 325 325 325 325 326 327 326 325 325 325 321 322 320 324 330 332 328 325 325 328 329 329 329 331 330 331 331 330 331 330 329 328 325 325 325 326 326 327
320 319 319 320 320 319 320 322 322 323 323 324 325 326 326 325 327 326 325 324 323 320 319 320 326 331 328 326 325 328 329 329 329 330 330 331 332 330 330 330 329 327 327 326 327 327 326 326 326
319 320 322 322 319 318 319 319 321 323 323 324 324 325 326 328 328 324 323 323 323 322 322 326 330 328 327 327 329 330 331 331 330 329 329 331 331 330 329 328 326 323 325 324 327 326 326 326 325
317 319 319 318 316 317 318 319 321 322 323 323 325 326 327 328 328 326 324 323 324 326 328 328 329 328 327 328 329 330 331 332 331 329 329 332 331 330 329 328 325 322 326 327 326 325 324 324 325
317 317 318 318 317 318 319 320 320 321 323 323 323 324 326 327 329 328 325 323 325 327 329 330 330 327 327 327 328 328 329 329 330 330 331 330 328 327 328 327 326 325 326 326 325 324 323 324 325
317 317 317 317 318 318 321 323 322 322 323 323 323 325 326 327 327 327 325 325 326 327 329 330 330 327 327 328 329 330 332 332 330 330 329 329 327 328 328 327 326 327 326 325 324 323 323 324 325
316 316 317 318 320 322 321 323 322 322 322 323 324 323 327 327 324 328 326 325 326 327 329 330 329 328 329 328 329 331 332 330 329 328 329 329 328 327 326 326 326 325 325 324 324 323 324 325 325
317 318 320 320 321 321 320 322 321 322 322 321 324 326 325 326 327 326 325 326 327 328 329 330 330 331 329 329 329 331 331 330 328 328 328 328 328 325 326 325 325 324 324 324 324 325 325 326 325
319 320 319 319 320 320 320 321 322 321 320 321 324 327 326 328 327 326 328 328 328 329 329 329 330 331 331 331 330 331 330 325 327 327 327 327 327 326 326 324 323 324 324 324 325 325 326 327 327
320 320 320 323 323 321 322 321 321 324 323 322 324 326 325 329 327 327 328 329 328 329 329 329 331 331 330 331 332 329 328 327 326 326 326 325 326 325 324 322 324 325 324 326 325 327 327 326 325
318 320 319 318 322 323 325 325 325 325 325 326 326 325 328 330 328 327 327 328 328 330 330 330 330 330 330 331 331 329 329 325 327 325 325 325 325 324 324 323 326 326 326 326 325 327 329 328 328
314 316 318 318 318 318 318 322 326 328 327 326 327 327 329 329 328 327 327 328 328 329 330 330 329 328 329 329 331 331 330 327 326 325 325 325 324 324 324 324 325 326 328 328 329 329 330 330 330
314 317 317 318 318 319 318 319 326 329 329 329 328 329 329 330 328 327 327 327 327 329 329 329 328 328 327 328 330 330 331 328 326 326 325 324 324 323 324 325 326 327 328 329 329 329 328 328 330
315 316 318 317 320 318 324 323 326 328 328 326 326 327 329 329 328 327 327 327 327 327 329 328 328 328 326 329 328 330 331 329 327 327 326 325 324 324 325 326 327 327 328 329 329 329 327 327 328

GFSSGP_925_thetae_006.txt.gz
Theta_e
311 319 323 329 334 330 333 337 336 339 338 333 332 332 332 331 331 333 338 340 339 332 338 328 316 317 319 317 316 317 318 319 319 319 319 319 318 317 317 316 320 329 333 335 335 336 335 333 333
321 320 325 333 332 335 340 340 341 337 336 334 333 332 331 331 330 331 335 340 337 331 338 338 320 318 320 319 318 318 319 320 321 321 321 322 322 321 320 323 327 328 334 335 336 338 338 337 335
320 325 334 334 338 342 341 339 338 337 333 328 332 330 330 331 332 333 339 341 336 332 336 339 323 318 321 321 319 319 319 321 322 323 324 324 324 324 326 332 334 337 337 336 335 338 339 338 337
324 330 334 337 344 343 344 338 338 337 331 329 329 330 330 329 331 334 339 339 336 333 334 338 325 319 322 323 321 320 320 321 323 325 326 327 327 328 329 333 337 338 337 337 336 337 338 337 338
330 335 333 335 336 337 341 341 340 337 333 331 330 331 331 330 331 332 338 338 336 334 335 336 327 319 320 324 322 321 321 322 324 326 328 333 333 333 336 337 338 338 337 337 337 338 335 334 335
335 333 333 330 331 332 333 333 333 333 331 331 331 331 332 331 331 332 336 338 335 334 337 338 333 320 320 323 323 322 322 323 325 326 327 331 333 336 338 338 338 337 338 337 337 336 336 333 334
333 333 331 329 330 331 330 331 332 332 331 331 331 331 331 330 330 331 335 337 336 334 335 340 344 334 320 321 324 323 323 323 326 326 328 331 335 337 334 332 330 331 334 335 336 335 334 334 333
329 331 333 331 332 330 330 330 329 330 331 330 330 331 331 332 330 330 334 335 336 335 334 336 340 342 340 338 328 324 323 325 327 327 328 332 333 330 326 327 327 329 330 332 333 334 334 334 334
329 332 332 332 332 331 330 331 330 330 331 331 330 329 330 328 329 332 334 334 335 335 335 334 337 340 339 337 341 333 328 329 330 329 329 330 330 331 332 330 327 323 328 330 331 332 332 332 332
332 333 332 331 332 332 331 331 331 331 331 331 331 330 330 329 329 331 332 333 335 335 335 336 338 339 339 336 338 343 339 336 334 334 334 334 332 334 331 329 326 324 326 330 331 331 331 331 330
331 333 332 332 331 331 331 331 331 330 331 331 331 331 331 330 329 331 332 331 331 334 334 335 338 341 339 337 339 340 336 336 336 336 334 333 333 333 332 331 330 331 330 329 329 330 330 330 329
332 331 331 331 331 331 331 331 331 330 331 330 330 330 329 330 331 332 332 331 330 332 334 334 336 342 342 337 339 337 336 336 335 334 334 334 334 333 333 331 330 331 329 328 329 329 330 330 330
329 330 331 330 330 330 330 330 331 331 330 330 329 330 330 330 330 329 331 331 330 331 333 335 336 341 342 340 339 336 335 334 332 331 333 334 333 333 333 332 332 331 331 328 329 330 329 329 329
325 326 328 329 329 330 331 330 330 330 328 329 330 329 328 328 329 329 330 330 331 331 333 335 337 340 342 342 339 338 335 332 331 330 332 334 334 333 334 332 332 331 331 331 329 329 329 328 329
325 327 326 327 328 328 328 330 330 329 328 329 328 327 328 328 328 329 329 329 331 332 333 336 337 341 343 342 340 336 333 332 330 331 334 335 334 334 335 334 334 333 332 333 329 328 329 327 328
325 327 329 328 328 329 329 330 328 327 327 327 327 326 326 327 327 328 328 329 330 332 332 334 336 339 343 341 339 334 331 330 330 332 333 334 335 335 335 335 334 334 333 331 328 330 327 327 327
325 327 328 328 328 326 326 328 328 327 327 327 327 326 326 327 327 326 327 328 330 333 333 334 334 337 343 341 338 333 332 331 332 332 333 334 335 335 334 334 334 332 329 329 332 330 328 328 327
325 325 325 326 327 325 325 326 326 327 327 326 326 325 326 327 327 325 327 329 330 332 334 332 333 337 342 340 336 332 332 331 332 332 333 334 335 334 334 334 333 330 328 331 330 328 329 327 327
323 325 326 326 325 325 325 326 326 326 325 324 325 325 326 327 328 327 329 329 331 332 332 332 333 338 340 337 333 331 331 331 331 332 334 335 334 334 334 334 332 332 329 326 327 329 328 328 328
322 323 325 325 325 325 325 325 324 324 324 325 326 325 326 328 327 330 331 331 331 332 332 334 336 340 337 333 330 330 330 330 331 333 335 335 334 333 333 333 331 329 326 327 328 328 327 327 327
320 322 323 322 324 324 323 323 323 323 324 323 324 326 328 327 326 330 333 332 332 332 334 336 338 337 332 331 333 334 333 333 332 333 333 333 333 332 331 331 330 328 328 328 328 327 326 326 327
320 319 319 321 322 323 322 325 324 324 324 324 325 326 327 327 327 331 333 333 333 333 334 336 336 334 333 332 330 330 329 330 331 331 331 332 331 331 330 330 329 328 328 328 327 326 325 326 327
319 318 319 320 321 322 321 322 322 323 325 325 326 327 328 326 330 331 334 333 332 333 334 335 335 334 333 332 331 331 331 331 331 330 332 332 331 329 328 329 328 328 327 327 327 326 326 326 327
318 318 319 320 320 322 321 323 323 324 326 326 326 324 326 328 332 333 332 332 332 333 334 334 334 333 333 332 332 332 334 332 330 331 330 330 330 329 328 327 327 328 328 328 327 327 327 328 328
317 320 323 324 324 324 322 321 323 326 326 325 324 327 331 333 334 333 334 334 332 333 333 333 333 333 332 332 332 334 335 332 332 331 330 330 330 327 327 327 328 329 329 329 328 328 328 329 329
318 321 321 322 322 322 323 324 324 324 324 325 326 324 328 334 335 334 334 334 332 332 332 331 332 332 331 330 333 333 333 330 329 330 329 329 328 326 327 328 328 329 328 329 330 330 329 329 329
320 323 321 320 322 324 323 324 326 327 328 327 327 329 331 335 335 335 334 333 332 332 331 332 331 330 330 331 333 334 333 331 330 330 329 328 327 326 327 328 328 328 328 328 329 329 330 329 329
321 321 321 320 322 322 320 321 324 327 326 327 327 329 334 335 335 334 334 333 332 332 332 331 330 329 329 332 332 333 332 331 330 329 328 328 327 326 326 327 328 329 329 329 330 331 330 330 330
319 322 321 322 320 322 322 320 324 324 326 330 331 333 336 335 334 334 333 332 332 332 332 331 328 329 330 331 332 332 332 331 330 330 328 327 327 327 326 326 328 328 329 330 331 331 330 330 331
318 319 322 321 322 320 319 323 325 328 330 330 330 334 335 334 333 333 333 333 332 332 331 329 328 328 329 330 331 332 331 331 330 330 329 327 327 326 325 327 327 327 329 330 331 330 329 330 331

GFSSGP_925_thetae_009.txt.gz
Theta_e
310 315 326 328 334 332 335 334 336 338 338 335 334 333 333 332 332 333 337 339 338 337 342 325 314 315 315 314 314 315 316 317 318 318 318 318 319 319 317 318 324 331 332 334 335 336 336 335 334
320 321 326 333 333 336 335 336 339 339 337 335 334 334 333 333 332 332 336 340 339 338 342 339 315 316 317 316 316 317 317 318 320 320 320 320 321 322 323 324 328 334 336 336 336 337 339 338 336
326 323 332 334 336 336 339 341 340 337 336 332 332 332 331 332 333 333 340 339 337 337 344 341 323 317 318 318 317 317 318 319 321 321 322 323 324 325 327 329 334 335 337 337 337 336 339 340 338
322 326 333 339 339 337 338 340 338 337 335 331 331 331 332 331 331 333 337 339 337 336 342 341 334 317 319 320 319 319 319 319 321 322 323 324 325 326 328 330 335 337 338 339 338 338 337 339 337
325 331 333 334 334 334 338 339 340 339 336 333 332 332 332 334 332 333 337 338 337 336 338 344 339 320 319 321 321 320 320 320 321 323 325 326 328 329 330 336 340 339 339 339 338 338 336 337 337
331 332 337 334 332 332 334 334 335 336 335 332 332 332 332 332 332 332 334 337 336 336 336 339 340 332 319 321 323 322 321 321 322 323 325 328 329 331 337 339 338 339 339 339 339 335 334 334 335
330 334 334 333 332 330 332 332 332 332 332 333 333 332 331 333 333 331 332 335 336 335 336 336 347 339 328 321 323 323 322 322 322 324 326 327 326 331 340 337 335 332 331 334 334 336 336 334 336
329 332 333 333 333 331 331 331 331 331 331 332 332 332 332 332 331 331 331 332 334 336 335 337 339 348 345 340 328 325 324 323 323 324 327 326 326 335 331 328 328 329 329 329 330 333 335 335 336
328 331 333 333 333 332 331 332 331 332 332 332 332 332 332 331 331 330 331 332 333 334 336 335 336 340 343 339 340 331 328 326 326 329 329 328 335 333 335 335 333 329 326 323 326 330 331 333 334
328 333 333 333 333 333 333 333 332 332 333 332 332 332 331 331 331 331 330 330 331 333 335 336 336 339 341 338 338 345 341 340 339 337 335 340 336 334 335 334 331 329 324 324 323 329 329 330 331
329 332 333 333 333 333 333 333 332 333 333 332 332 332 332 331 331 331 329 330 332 331 334 336 337 337 340 339 337 344 342 340 339 338 337 336 335 335 336 334 334 334 334 333 332 332 333 330 331
331 331 332 332 332 332 332 332 332 333 333 332 331 331 332 331 332 332 330 330 332 332 332 336 337 339 341 339 336 339 341 339 338 338 339 337 335 336 336 334 333 333 332 332 331 330 330 331 330
329 329 330 330 331 331 332 332 332 333 332 332 332 331 331 331 331 329 328 329 330 333 332 333 337 341 344 342 337 339 339 337 338 337 336 336 335 335 335 335 335 334 332 333 330 329 330 330 329
329 329 328 328 329 331 331 332 331 332 331 331 331 331 331 331 330 329 328 330 330 332 333 333 338 341 345 344 342 341 339 337 337 335 333 336 337 335 335 335 335 334 334 333 333 330 330 330 329
328 329 329 329 329 329 329 331 331 331 331 331 331 331 330 330 329 329 328 330 331 331 333 335 338 340 345 346 344 341 339 337 336 334 333 335 337 336 336 335 337 335 332 333 331 332 331 331 329
327 329 330 329 329 329 329 331 330 330 331 330 331 330 330 329 329 328 328 329 331 332 334 335 337 342 345 346 345 342 338 337 333 332 334 337 337 336 336 336 337 336 335 334 334 331 331 331 329
328 330 330 330 329 329 330 331 331 331 330 331 331 330 329 329 329 329 328 328 330 332 334 337 339 340 346 347 345 342 338 336 333 332 334 334 335 335 335 337 336 336 335 335 333 332 332 331 329
326 328 329 329 328 329 329 330 330 330 328 329 329 329 329 329 329 329 328 328 329 333 335 339 339 341 346 346 346 341 337 335 333 333 333 333 335 335 335 337 336 335 335 333 332 333 331 330 329
324 325 327 327 328 328 328 328 328 329 328 328 329 330 330 328 329 328 328 329 330 334 336 339 342 341 346 346 344 339 336 335 333 333 333 335 336 334 335 336 335 333 333 333 332 331 329 330 330
322 324 326 327 327 328 329 329 329 329 329 328 329 328 328 328 329 329 329 329 336 336 339 340 339 343 345 345 341 337 335 334 333 332 334 336 335 335 334 335 333 333 333 331 330 330 329 329 330
322 324 325 326 327 327 327 328 328 328 327 326 326 327 327 329 329 329 330 331 337 337 339 339 339 342 345 341 337 334 334 334 334 333 334 334 334 333 334 333 332 332 331 330 330 329 329 329 328
321 322 324 325 327 328 326 331 328 327 327 327 327 328 328 328 329 330 329 340 338 338 339 340 342 343 340 335 335 336 335 332 332 334 331 332 333 332 331 332 332 331 330 330 330 329 328 328 329
320 321 324 324 324 325 325 326 326 326 326 326 327 327 328 328 329 329 330 339 337 338 339 342 342 338 336 336 335 333 331 332 332 331 333 334 334 332 330 331 330 329 330 330 330 329 328 328 329
319 320 323 324 324 327 326 326 327 326 326 327 328 328 328 328 330 330 339 337 337 338 341 340 338 338 336 335 335 334 333 332 331 332 332 333 332 331 330 329 329 329 330 330 329 329 328 330 331
320 322 325 327 328 329 326 325 326 326 326 326 326 327 329 332 334 337 338 338 338 339 339 338 338 337 335 334 334 335 335 334 334 333 332 332 332 331 329 329 329 330 332 330 329 329 329 331 332
320 322 325 328 329 327 326 326 326 326 327 326 327 326 334 336 337 337 338 338 338 338 337 336 337 335 334 334 334 334 334 332 331 332 330 331 330 329 329 329 330 331 331 331 331 330 330 330 331
321 323 323 326 327 328 326 326 327 327 328 328 328 328 328 337 338 338 338 338 336 336 335 336 335 334 333 333 333 333 334 332 334 333 332 331 329 329 328 329 330 331 330 330 331 332 331 332 332
320 322 323 326 329 327 326 325 324 327 327 327 328 330 335 338 338 338 337 337 335 335 335 335 334 333 332 333 332 333 333 333 333 332 331 329 329 327 328 329 329 329 329 330 332 333 333 332 332
320 322 323 324 326 327 327 326 325 326 326 329 328 331 338 338 338 337 337 336 335 335 335 334 332 331 332 332 331 332 332 332 332 332 330 329 329 327 327 327 328 328 329 331 332 333 332 331 332
320 322 324 326 328 324 325 325 327 328 329 331 333 336 337 337 337 337 337 336 335 335 334 332 331 330 331 331 331 331 333 333 333 332 330 329 328 327 327 327 328 328 329 331 333 331 331 331 332

GFSSGP_925_thetae_012.txt.gz
Theta_e
318 310 323 329 330 330 334 334 335 338 337 336 333 334 333 332 333 335 338 337 342 344 328 321 317 315 314 313 313 314 314 316 317 318 317 318 318 319 318 320 326 328 332 334 335 336 335 334 334
323 319 325 329 333 335 335 334 334 340 338 334 332 333 333 332 332 339 340 338 340 344 335 322 315 315 315 315 314 315 316 317 318 319 320 321 323 324 325 325 325 332 335 335 335 336 338 338 336
327 321 327 331 335 337 337 338 340 340 338 332 331 332 331 332 333 337 339 338 340 344 340 330 315 315 316 316 315 316 317 317 319 320 321 323 325 327 328 329 332 335 336 337 337 337 336 340 339
328 324 326 337 340 336 335 341 340 340 338 334 331 331 332 332 333 334 337 338 339 345 343 339 316 316 317 317 317 317 318 318 319 321 322 323 324 326 328 331 334 336 337 338 339 339 337 336 338
326 325 329 331 332 334 334 338 338 340 340 336 333 332 333 333 333 333 337 337 338 340 345 343 335 316 317 318 319 318 318 319 320 321 322 323 325 326 328 331 337 340 340 340 340 339 338 336 337
324 325 331 335 334 333 333 333 334 334 333 334 333 332 334 333 333 332 333 336 337 337 341 344 341 328 318 319 320 320 319 320 320 321 322 324 325 328 331 334 338 339 339 339 339 339 337 334 334
324 328 333 333 333 333 332 331 333 332 332 332 333 333 332 334 333 332 331 332 334 336 337 342 340 338 326 319 321 321 321 320 321 322 323 324 325 326 329 337 337 333 330 329 330 334 336 335 334
323 326 331 332 334 334 333 331 332 331 332 331 332 332 334 335 331 331 331 330 331 333 337 340 338 336 336 327 322 323 323 322 322 323 324 325 326 325 329 332 329 329 329 329 328 325 331 334 334
325 326 330 332 332 332 332 332 331 332 333 332 332 332 332 331 331 331 331 331 330 331 336 341 341 342 335 338 337 325 324 325 325 326 326 327 326 333 335 338 335 334 331 328 323 320 322 328 333
329 328 328 330 331 332 332 332 332 333 333 333 333 334 332 331 331 332 331 331 330 330 332 337 344 343 344 343 341 338 325 328 329 331 332 334 333 336 336 335 335 333 331 329 324 323 322 328 331
329 330 328 330 331 332 333 333 333 333 334 334 334 333 333 332 333 333 331 331 330 329 331 334 337 342 344 343 339 339 340 340 338 338 338 337 340 338 336 336 335 334 332 333 333 331 329 333 332
328 329 330 330 330 331 332 332 333 332 333 332 332 334 333 332 333 333 332 331 330 330 330 334 337 338 341 343 341 345 345 343 342 340 339 337 338 336 334 335 334 335 335 333 334 332 333 333 331
329 328 329 330 330 331 331 332 332 332 332 332 331 333 333 333 333 332 332 330 329 330 331 332 340 337 338 343 340 345 346 344 342 341 339 339 339 335 336 338 336 334 335 334 333 330 330 330 330
329 328 328 329 329 329 330 330 330 330 331 332 332 333 333 333 333 332 332 331 330 332 332 335 341 338 338 340 341 339 342 343 341 339 340 339 337 336 336 336 336 336 334 332 333 333 331 330 330
325 328 329 329 329 330 330 331 331 330 330 331 332 332 332 332 332 332 332 332 330 330 332 334 339 340 341 342 339 344 341 341 340 339 338 336 335 337 336 336 336 337 335 332 333 332 332 330 331
324 325 328 328 329 329 330 331 331 331 330 331 331 332 333 332 333 332 331 331 330 330 333 336 335 343 343 347 344 343 342 341 340 338 335 333 337 337 337 337 336 337 335 334 332 330 329 329 330
324 328 327 329 328 329 330 331 330 331 331 332 332 333 332 332 333 333 331 330 330 330 333 334 336 345 347 350 348 343 344 342 339 336 335 335 337 337 337 335 335 337 335 334 333 333 331 331 329
323 324 326 329 328 329 329 330 331 331 331 332 332 333 331 331 332 334 332 330 328 331 331 332 338 345 350 351 348 347 345 342 337 335 334 336 336 336 335 335 335 337 335 334 332 332 331 330 329
321 323 324 326 326 327 330 330 330 331 330 331 331 332 331 331 333 331 330 328 330 332 335 340 342 348 351 350 349 348 344 340 337 335 335 334 336 336 336 334 337 335 334 333 332 331 331 331 330
319 321 323 325 324 327 328 329 331 331 332 332 332 333 332 331 331 332 332 332 330 338 341 343 344 350 351 349 349 347 343 338 337 334 334 335 336 336 335 334 335 333 332 332 331 330 330 328 327
320 321 322 322 323 325 328 329 331 330 331 331 330 330 330 330 330 330 332 332 341 341 342 345 345 346 350 348 347 343 339 337 336 336 336 336 335 334 333 333 333 331 331 330 330 330 329 331 328
321 320 320 322 324 327 327 332 334 330 331 331 330 330 331 331 332 331 333 335 343 343 342 342 343 349 346 347 345 339 336 338 335 334 335 335 334 333 333 332 332 332 330 330 330 330 329 329 329
320 319 320 321 323 326 325 328 328 329 328 329 330 330 330 330 331 330 331 345 341 342 342 343 345 346 346 341 338 336 336 337 334 332 334 332 334 334 332 332 331 329 330 331 330 330 328 328 328
319 319 320 321 324 328 328 328 328 329 328 329 330 328 330 330 331 332 342 341 342 342 344 347 346 345 339 338 337 335 336 334 333 331 334 335 333 333 332 329 328 329 330 330 330 328 327 328 326
318 323 324 324 326 328 326 327 330 329 328 327 328 327 329 335 340 343 342 342 342 344 345 344 343 339 339 338 334 337 335 334 335 335 334 334 333 332 329 329 327 329 332 331 329 329 330 329 329
318 323 323 324 324 326 325 329 328 330 329 329 327 329 333 337 340 342 342 342 343 344 342 340 340 339 338 336 337 336 335 334 335 330 333 333 331 329 329 328 329 332 332 332 331 329 330 330 330
319 319 321 325 325 326 328 328 329 330 327 329 328 329 339 339 340 341 342 342 342 342 341 340 339 338 337 337 336 335 335 335 334 332 333 331 329 329 329 329 331 331 331 330 330 329 330 331 332
318 319 322 324 327 332 328 329 328 328 328 327 328 332 340 341 340 341 341 342 341 339 340 339 338 337 336 336 335 334 332 334 334 333 332 330 329 329 329 329 329 329 330 330 330 328 332 330 331
318 320 320 326 326 329 332 327 327 326 326 328 329 337 341 341 340 341 340 340 339 339 339 338 337 336 335 335 335 332 332 332 332 332 330 330 328 328 328 328 328 328 329 331 332 331 333 332 332
319 320 322 325 327 327 330 329 332 330 328 330 336 340 340 340 340 339 339 339 338 338 337 337 335 334 335 333 332 333 332 332 333 332 329 329 328 327 327 328 328 329 330 332 332 332 331 332 332

GFSSGP_925_thetae_015.txt.gz
Theta_e
319 311 318 328 325 325 328 331 329 338 339 334 330 331 332 333 335 340 341 341 340 333 322 321 320 317 315 314 314 315 313 316 317 316 316 317 317 317 318 319 320 323 329 331 332 330 332 334 332
318 318 321 326 327 332 330 329 339 338 337 333 331 330 329 338 340 338 342 338 338 334 323 321 320 316 315 315 315 315 315 317 318 318 318 319 320 321 321 321 323 329 333 334 334 334 335 337 337
322 325 319 324 330 334 332 332 337 338 338 336 334 330 330 332 337 338 339 340 340 334 324 323 321 315 314 316 316 316 316 317 318 319 319 321 322 324 325 327 327 331 335 336 337 336 336 337 339
327 325 319 327 335 335 333 334 339 340 338 337 337 331 332 333 333 337 341 339 341 340 329 322 318 315 314 316 316 316 317 317 319 320 320 322 323 325 327 329 332 335 335 337 338 339 338 337 337
326 323 321 326 329 333 331 331 337 338 339 338 336 333 334 333 334 334 341 340 339 340 339 326 318 315 315 316 317 317 317 318 319 320 320 322 323 324 326 328 331 337 339 340 340 340 337 336 336
321 319 324 327 329 331 331 330 334 337 338 336 331 333 333 333 333 334 334 339 337 337 340 333 322 317 317 317 318 317 318 318 319 320 321 321 322 323 323 326 333 336 339 338 338 337 337 336 334
325 320 324 326 328 330 331 330 328 329 329 330 330 332 331 331 332 333 333 335 339 337 338 340 330 320 318 318 319 318 318 319 319 320 321 322 322 323 323 322 330 335 333 328 326 328 330 333 331
321 319 322 323 329 330 330 330 328 329 330 331 330 331 331 330 332 331 330 331 331 340 337 341 339 332 319 318 319 319 320 320 320 321 322 323 324 322 322 331 332 331 330 330 330 328 326 325 331
324 319 320 323 326 329 329 330 329 330 331 331 332 332 331 332 331 330 330 330 330 339 340 342 341 336 332 320 319 320 321 321 322 322 323 325 326 323 324 333 336 335 334 332 329 324 320 321 328
335 326 323 322 323 325 328 329 329 331 331 332 332 332 332 332 331 330 329 327 329 330 340 339 341 337 335 331 321 320 321 323 325 324 324 325 326 324 330 335 336 335 334 331 330 329 323 324 326
330 335 329 326 324 325 327 329 329 331 331 331 330 332 331 331 331 330 329 330 330 330 335 342 338 337 337 337 333 325 321 323 328 326 325 326 328 333 335 334 334 334 334 332 332 332 328 328 331
326 326 328 328 326 326 326 328 329 329 329 328 328 328 330 329 328 328 328 330 330 331 329 342 339 340 340 340 336 331 329 327 326 328 328 331 335 339 338 337 337 336 336 334 333 333 333 332 332
327 327 326 326 327 326 327 328 328 329 329 328 327 327 327 327 328 330 330 330 330 330 330 332 340 340 342 343 341 339 337 337 335 332 333 335 336 338 337 334 335 335 335 334 333 333 332 332 332
317 324 327 326 326 326 327 327 327 327 326 327 327 326 326 327 327 328 330 330 330 330 330 333 337 341 344 343 341 340 340 340 339 341 339 338 337 338 335 336 338 337 335 335 334 333 332 331 330
317 318 320 323 325 326 326 327 327 327 327 327 326 327 326 326 327 327 329 329 330 331 329 332 337 339 342 343 341 342 343 342 343 342 340 339 338 338 335 337 336 336 336 335 334 332 333 332 330
319 319 319 320 321 324 326 328 326 325 326 327 327 328 327 326 327 329 330 330 331 331 328 331 336 338 338 343 342 343 343 345 345 342 341 340 339 337 335 337 336 335 337 337 334 332 332 331 330
318 320 320 320 321 322 324 326 326 326 326 327 327 327 327 327 326 328 330 331 331 329 328 331 336 338 339 340 343 344 342 343 342 341 338 337 336 336 336 335 335 334 337 337 334 333 333 331 330
319 320 320 321 322 323 324 324 325 325 326 326 327 327 327 328 327 327 328 327 331 329 329 332 335 338 341 344 343 344 344 342 340 339 337 335 334 335 336 336 336 336 337 335 333 333 332 333 331
318 319 320 320 322 323 323 324 324 325 325 325 325 325 327 326 325 327 330 332 329 327 328 331 337 343 348 349 347 344 345 342 340 337 336 335 336 336 337 336 334 336 335 333 333 333 332 331 329
317 318 318 319 321 321 322 322 324 324 324 325 326 326 326 327 326 325 326 328 330 329 333 337 341 347 350 349 348 345 345 341 338 336 335 335 336 336 335 335 333 334 333 332 331 331 331 329 328
317 317 317 318 319 319 319 321 322 323 324 326 326 325 325 326 323 323 323 323 329 340 344 347 348 350 350 349 347 346 344 339 337 336 334 334 334 335 334 333 332 332 330 330 330 329 329 328 327
316 317 318 319 319 319 319 322 322 323 325 325 326 326 325 325 325 324 323 323 339 345 346 349 352 350 349 349 347 345 339 338 337 337 336 335 336 334 333 331 331 331 330 330 330 329 329 329 327
316 318 318 318 318 318 319 322 322 324 324 324 324 323 323 323 323 324 324 328 342 344 344 343 348 349 348 347 345 343 339 337 335 335 335 335 334 333 332 331 330 329 330 330 329 329 329 328 327
314 316 317 317 317 319 319 321 322 322 324 325 324 324 324 330 327 329 339 341 342 343 343 346 348 346 347 345 339 335 336 335 335 333 333 334 334 333 331 329 328 329 329 329 330 328 327 327 328
311 313 315 319 319 320 318 320 322 323 324 324 324 323 332 337 338 339 340 340 342 345 346 346 346 342 339 336 336 336 337 334 333 333 334 334 333 332 331 329 329 329 330 331 329 328 328 329 327
308 313 315 319 321 319 319 321 321 322 323 324 324 322 337 339 338 339 338 341 344 344 344 340 339 340 337 336 336 334 333 332 332 332 334 333 332 331 328 329 328 330 331 331 331 330 329 329 329
309 309 314 316 319 320 320 320 320 320 322 325 324 327 337 338 339 339 339 341 341 340 339 338 339 337 335 337 335 334 332 333 334 332 331 331 330 328 328 329 329 330 331 330 330 329 328 329 329
312 312 315 315 318 321 322 321 325 326 324 325 325 335 337 337 338 338 339 339 339 340 339 338 338 336 336 335 335 334 334 333 331 332 332 329 328 329 329 327 329 329 330 329 330 328 329 330 328
315 310 312 314 316 320 321 324 324 328 325 324 324 337 336 338 338 339 339 338 338 338 339 338 337 336 337 335 333 333 332 332 331 331 330 328 329 328 329 328 328 328 328 329 329 329 329 330 330
314 316 312 316 318 320 320 324 323 326 324 331 333 337 336 337 338 338 338 337 337 338 338 337 337 335 335 334 334 332 332 332 332 330 329 328 328 327 328 328 328 329 330 329 329 329 330 332 330

GFSSGP_925_thetae_018.txt.gz
Theta_e
325 317 318 327 324 323 325 327 326 332 336 334 329 330 334 333 336 338 337 340 341 333 324 322 319 315 315 316 315 314 315 315 315 315 315 316 316 316 316 315 314 314 317 321 322 324 329 332 332
321 317 320 325 326 330 330 326 329 336 336 335 334 331 334 340 338 341 341 341 339 328 323 321 320 315 315 315 316 315 315 316 316 316 317 317 318 318 319 319 320 322 325 331 332 333 333 335 337
319 322 317 322 327 331 331 332 336 338 337 336 335 334 332 338 338 340 338 341 336 328 323 321 320 316 315 315 316 315 315 317 317 317 318 319 320 321 322 322 324 328 333 335 335 336 336 335 339
325 324 318 323 330 330 332 332 333 338 337 335 336 336 331 331 336 338 338 338 336 330 324 321 320 316 316 316 316 316 316 317 318 318 319 319 320 321 322 324 325 327 334 336 337 339 338 338 337
325 319 319 323 325 328 330 330 328 338 337 336 335 336 333 334 337 337 338 338 337 331 325 321 320 317 317 317 317 317 316 317 318 319 319 320 320 321 321 323 325 329 332 337 339 339 339 337 336
321 317 321 323 324 326 328 328 328 336 337 336 336 337 332 334 338 339 338 337 337 335 327 322 320 317 317 317 317 317 317 317 318 319 319 320 320 320 320 321 325 332 336 338 338 337 337 335 335
322 319 321 324 326 327 328 328 329 330 332 334 331 335 331 331 334 338 338 338 338 337 335 328 321 317 317 317 317 317 318 317 318 319 320 320 321 322 321 320 324 331 334 332 327 327 327 329 330
321 317 321 321 325 326 328 327 328 328 330 330 329 330 332 330 332 334 341 339 339 339 338 334 325 318 316 317 318 318 318 318 318 319 320 320 322 323 323 322 326 331 331 330 329 329 328 326 326
324 318 319 321 323 325 324 326 329 329 329 330 331 330 329 331 331 331 328 334 342 341 339 338 331 320 317 317 317 318 318 318 318 319 320 321 324 325 324 324 331 334 334 333 331 330 326 322 321
332 321 319 319 322 322 322 323 324 326 328 330 330 330 331 330 330 328 327 326 337 341 341 340 337 329 320 318 320 318 319 319 319 320 320 323 324 325 324 325 332 335 336 333 331 330 326 323 323
332 337 330 326 325 323 322 324 325 326 327 328 330 328 330 330 329 328 328 328 328 333 339 339 339 338 331 323 325 324 321 322 322 321 322 324 326 327 325 330 334 335 336 334 332 331 329 327 328
329 329 333 334 330 327 326 326 325 325 326 326 327 326 328 328 327 325 326 328 329 329 332 336 339 340 338 334 328 328 326 328 327 325 325 325 328 328 326 334 334 334 334 335 333 332 332 332 331
318 326 327 324 325 327 326 326 326 326 326 326 326 326 325 324 324 326 328 329 329 329 329 331 337 339 340 339 336 332 328 329 331 330 327 326 327 328 333 337 335 336 335 335 334 332 332 332 331
314 315 317 321 324 324 325 326 326 326 327 327 325 324 323 322 323 325 326 327 329 329 330 328 334 338 341 340 338 337 335 330 332 332 327 327 328 330 335 337 335 334 335 335 333 333 333 331 331
315 315 315 317 317 320 325 326 326 326 326 325 325 324 323 323 324 323 326 327 328 329 330 327 332 339 342 341 339 339 337 336 333 331 329 327 329 333 335 337 334 336 337 334 334 333 332 332 331
316 315 316 317 317 318 319 322 325 325 324 325 325 325 325 324 324 325 326 328 328 329 329 330 331 339 342 342 341 340 340 339 339 338 336 337 337 336 337 336 336 337 335 335 335 335 333 332 332
315 319 318 318 317 319 319 322 323 324 324 323 323 324 324 325 324 324 326 327 328 329 330 330 334 337 340 343 341 341 342 342 341 340 340 341 338 337 337 335 337 335 335 335 336 336 334 333 331
317 318 318 319 319 318 320 320 321 321 322 322 323 323 324 324 324 325 325 326 327 329 330 328 334 336 339 342 342 342 343 343 342 342 343 340 340 338 338 335 335 335 335 336 336 334 333 333 331
316 317 318 318 318 319 321 321 321 321 322 322 323 323 323 322 323 324 326 327 328 329 329 329 332 338 340 342 344 342 343 344 344 343 341 340 338 338 334 336 335 336 336 336 333 332 333 331 330
313 314 316 316 316 317 319 320 320 321 321 321 322 322 322 322 323 324 325 328 327 327 329 330 334 339 341 342 343 344 343 341 341 338 337 336 335 335 336 336 336 335 335 333 331 331 331 330 329
313 313 314 316 316 316 317 317 317 318 318 318 321 322 322 322 322 321 321 322 324 326 328 330 335 339 345 345 343 343 342 339 337 337 335 336 335 336 336 335 334 333 332 331 329 329 329 329 327
312 313 316 316 317 317 317 318 317 317 318 319 320 319 319 320 322 321 322 318 321 328 335 338 342 346 347 347 344 343 339 336 336 336 334 337 336 335 335 333 332 331 330 329 329 329 329 329 327
311 313 315 315 316 315 316 317 317 317 319 320 320 321 319 319 319 321 321 319 331 340 346 348 347 348 347 347 345 342 340 338 336 336 335 335 334 334 333 332 330 329 328 330 329 328 329 328 328
309 312 313 314 314 316 316 317 317 317 319 320 320 321 321 319 320 325 333 338 340 345 349 348 348 348 347 346 345 344 339 337 336 336 335 334 334 333 331 330 329 327 329 328 330 330 328 327 327
308 307 311 314 316 318 316 317 317 317 317 318 319 319 320 334 337 337 338 339 341 343 345 346 347 345 346 344 342 341 337 336 334 334 333 333 333 332 331 329 328 328 328 330 329 328 328 328 327
305 305 311 314 318 317 316 318 317 317 317 318 320 320 335 336 336 337 339 341 342 342 342 343 343 339 338 336 336 335 334 333 332 332 333 333 332 330 329 329 328 328 330 330 330 330 329 329 329
308 307 307 310 313 316 317 317 316 317 317 317 318 333 337 336 337 341 341 341 339 339 338 339 336 336 334 333 333 333 332 332 331 332 333 332 331 328 328 328 328 329 330 330 330 329 328 328 328
311 310 308 308 314 316 318 318 319 320 320 319 318 334 336 336 338 340 340 338 337 336 337 336 336 335 335 333 332 333 333 333 331 331 331 330 328 327 327 328 328 329 330 330 329 329 328 328 328
310 311 308 310 312 316 319 318 317 318 319 319 321 335 338 337 339 340 338 336 337 336 336 335 336 335 334 333 334 333 332 331 330 331 329 328 328 328 329 328 328 328 328 329 329 329 328 330 329
310 311 313 309 311 313 316 317 319 318 318 319 336 337 337 337 339 339 337 336 336 335 335 335 336 335 334 333 334 332 331 330 331 329 328 328 328 328 327 327 327 329 329 329 329 328 330 330 330

GFSSGP_925_thetae_021.txt.gz
Theta_e
325 319 319 326 322 321 324 325 323 330 335 333 330 330 331 332 335 334 336 339 339 334 327 322 319 315 314 313 312 313 315 314 314 314 314 314 314 314 313 312 311 310 312 315 318 322 326 326 327
324 317 320 323 323 327 323 325 327 329 335 334 330 331 336 339 337 339 338 340 340 336 326 320 317 315 314 314 314 314 315 315 314 315 315 315 315 316 316 316 315 314 315 319 322 324 329 333 335
320 324 318 322 324 327 327 328 333 333 334 334 335 331 334 339 337 339 337 339 340 337 326 320 317 315 315 316 315 314 315 315 315 316 316 316 317 318 318 319 320 321 321 329 331 333 333 334 336
324 322 317 321 326 327 328 330 332 331 334 334 334 335 331 333 337 338 338 340 340 332 325 320 318 316 316 316 316 315 316 316 316 316 317 317 318 319 320 320 322 324 333 335 335 337 337 337 337
325 316 318 322 323 326 328 326 325 327 335 335 334 334 332 333 336 337 337 338 338 330 326 322 320 316 316 316 316 315 316 316 316 317 317 318 318 320 320 321 322 326 335 336 337 338 337 339 338
321 316 320 320 321 323 326 325 327 331 335 334 334 334 331 331 335 338 337 337 336 332 327 323 320 317 316 316 316 316 315 317 317 317 317 318 319 320 321 321 323 327 332 336 339 339 338 337 336
320 317 319 322 325 325 327 326 328 327 328 330 333 336 331 331 336 338 339 339 338 334 329 326 321 319 316 316 316 316 316 316 317 317 318 318 320 320 321 321 322 327 333 336 335 336 336 335 331
319 317 320 320 323 324 327 326 327 327 328 327 330 332 332 329 335 336 342 340 339 336 331 328 325 321 316 316 316 316 316 316 317 318 318 319 320 321 322 322 322 326 331 331 330 329 331 333 331
317 317 318 320 322 323 323 329 329 328 328 325 327 329 329 332 331 330 340 342 342 340 335 331 326 323 319 316 316 316 316 317 317 318 319 320 321 322 322 322 322 328 332 332 331 330 329 329 328
331 320 318 317 319 321 321 325 329 330 330 326 325 328 329 330 330 325 324 329 341 341 340 335 331 327 323 320 318 317 316 317 317 318 320 322 322 323 323 323 323 330 334 334 333 331 330 327 325
330 334 326 322 319 322 323 323 321 324 325 325 325 326 326 326 326 324 325 324 328 334 340 339 337 333 328 324 322 321 319 318 319 319 320 323 324 325 326 324 324 331 334 335 334 332 330 329 327
331 330 331 332 331 333 332 327 327 323 323 323 324 324 325 325 324 323 325 325 325 328 332 337 339 338 334 329 326 324 324 320 320 321 322 324 326 326 327 326 324 333 334 334 335 333 331 330 330
319 325 327 326 325 325 328 330 329 327 324 324 324 324 325 324 323 324 326 326 327 324 327 334 337 339 339 334 329 328 326 322 322 326 324 324 326 326 327 327 327 333 333 334 334 334 332 331 332
313 315 316 317 318 322 324 325 325 325 325 325 325 325 323 322 321 321 322 324 325 327 328 327 332 336 341 339 333 329 330 327 327 330 330 327 326 325 327 326 332 334 335 335 334 333 333 332 332
313 313 314 314 314 315 317 320 322 323 325 325 325 324 323 321 321 321 323 324 325 326 326 326 326 330 339 341 339 335 332 331 331 331 332 330 329 326 327 327 334 335 333 334 335 333 332 333 332
316 314 316 316 315 316 317 322 324 322 324 325 324 322 322 322 322 323 324 324 325 325 325 327 327 329 334 340 340 339 337 335 333 333 333 332 330 326 328 329 335 336 334 337 335 333 333 333 332
313 316 315 317 315 316 318 321 321 320 321 321 322 322 322 321 320 322 323 323 324 325 325 325 326 328 331 340 341 339 339 338 337 336 335 332 329 329 329 332 336 335 336 336 335 334 334 334 333
315 316 318 318 317 316 317 318 319 319 319 319 319 319 320 320 321 321 322 324 324 324 325 325 327 329 336 341 341 339 339 339 339 338 336 333 333 331 334 335 336 336 335 335 335 335 335 333 331
311 314 316 317 316 317 317 317 318 317 318 319 319 320 320 319 320 321 322 323 323 325 326 326 328 332 339 342 341 339 340 340 340 340 339 338 338 339 336 337 336 336 335 334 335 335 333 332 330
310 311 312 313 314 315 315 316 315 316 318 319 319 320 319 319 319 319 321 323 325 326 327 326 328 330 336 340 340 340 340 339 340 340 340 340 341 339 338 337 335 335 335 335 335 333 331 330 329
309 311 312 313 313 314 314 315 314 315 315 316 316 316 317 318 319 319 319 320 323 325 326 326 328 329 335 339 341 341 340 338 339 340 341 341 340 339 338 334 335 336 335 334 332 330 329 329 327
308 309 312 315 315 315 314 314 314 314 314 315 315 314 316 317 317 317 318 317 318 321 323 325 327 332 339 341 341 340 338 336 335 338 339 337 336 338 335 336 335 334 333 331 329 328 329 328 327
307 310 311 311 311 315 315 315 315 314 314 314 315 315 316 316 317 316 317 315 319 320 325 330 334 339 342 343 341 340 336 336 336 336 336 335 334 336 336 335 333 331 329 328 328 328 328 328 328
306 309 310 310 312 314 314 315 315 314 315 315 315 315 316 316 316 318 331 335 337 341 343 343 344 344 344 343 341 340 337 335 334 334 335 335 335 334 333 331 330 326 327 328 328 328 328 328 327
307 305 308 311 314 315 313 315 315 315 315 315 315 315 315 314 324 334 337 337 339 341 343 343 343 342 344 343 340 340 337 336 334 334 334 333 332 331 331 330 328 326 327 328 329 329 328 327 327
305 305 307 313 316 314 313 316 315 314 314 315 315 315 314 325 334 336 337 337 338 339 342 342 340 340 342 341 339 338 337 336 335 335 334 333 332 331 330 329 328 327 327 329 330 329 328 328 328
309 304 305 305 309 310 314 314 315 315 315 315 314 316 323 334 335 339 338 336 336 337 338 338 337 336 338 337 337 335 335 334 334 333 332 331 330 329 328 328 327 327 328 330 330 330 329 328 328
308 309 306 304 311 314 314 315 316 316 317 317 316 314 326 334 338 339 337 335 334 335 335 336 334 332 333 333 333 332 332 332 331 332 332 331 330 327 327 327 327 328 329 329 329 329 329 328 328
308 310 309 305 307 313 315 315 314 315 315 314 317 315 333 337 340 338 335 333 334 333 333 333 332 332 331 331 332 331 331 331 331 331 331 329 327 326 326 327 326 328 328 328 329 329 328 327 328
309 309 310 308 309 310 313 314 313 316 314 320 321 327 335 338 339 337 336 334 333 331 332 333 332 332 332 332 332 331 331 330 329 329 328 327 327 327 328 328 327 327 328 328 329 329 329 328 328

GFSSGP_925_thetae_024.txt.gz
Theta_e
325 322 315 324 321 320 322 322 321 325 332 331 328 330 335 334 334 335 334 337 334 334 325 322 321 318 315 313 312 313 313 313 312 312 312 312 312 311 311 311 310 310 311 314 316 317 319 321 323
325 316 319 321 319 323 319 322 325 325 333 332 329 332 335 335 333 336 335 338 336 334 331 320 320 317 315 313 312 314 314 313 313 313 313 313 313 313 313 312 312 311 314 320 323 325 327 325 326
319 323 317 323 322 324 321 326 329 331 328 332 332 331 335 336 336 337 337 336 339 334 333 320 319 317 315 313 313 314 314 314 314 314 315 315 315 315 315 316 316 315 317 328 330 329 330 332 334
325 321 316 320 325 326 325 328 329 325 328 332 332 334 330 333 337 337 337 337 339 336 331 321 318 317 315 314 313 314 315 314 315 315 316 316 316 316 317 318 319 321 323 332 333 334 335 335 335
323 316 317 320 321 323 325 325 324 325 330 334 333 334 332 331 335 336 336 338 339 337 333 322 318 317 316 315 314 314 315 315 315 316 316 317 317 317 318 319 321 323 327 334 336 336 337 338 338
320 316 319 319 320 322 322 322 325 327 333 327 333 332 331 330 334 337 337 339 339 337 334 325 319 317 316 315 315 314 315 315 316 316 317 317 318 318 319 320 322 326 329 330 334 335 335 336 335
320 317 319 320 323 324 324 323 325 326 327 327 332 334 331 329 334 336 337 338 339 336 333 328 323 318 315 315 315 315 315 316 316 316 317 317 318 319 319 319 322 326 331 331 332 335 335 332 332
318 317 320 319 321 322 323 324 324 326 328 326 327 328 330 329 333 337 339 339 338 336 333 329 326 322 317 316 314 314 315 315 316 317 317 318 319 319 320 321 322 325 331 332 331 331 330 329 329
315 318 318 319 321 321 321 324 324 326 328 326 327 325 327 328 330 333 338 340 340 339 337 334 330 329 324 319 318 315 315 315 316 317 318 318 319 320 322 322 322 324 330 332 331 330 330 329 327
319 316 317 316 319 320 320 320 321 323 324 328 326 324 326 328 327 327 327 334 340 340 339 336 333 330 328 326 321 321 317 316 316 317 318 319 319 320 322 322 322 323 330 332 332 331 330 329 327
329 328 317 317 317 318 321 322 323 324 324 324 326 324 324 325 325 324 324 326 333 336 339 338 337 332 329 328 327 323 321 318 318 317 318 320 321 321 323 323 323 323 330 333 334 333 331 330 329
330 329 328 325 326 330 331 331 331 327 326 323 322 322 322 322 321 320 322 325 326 328 330 337 338 338 333 331 330 326 326 322 321 320 321 322 323 324 325 324 324 323 328 333 334 334 333 331 330
325 326 328 328 328 328 327 329 330 330 327 325 324 323 322 321 321 323 324 325 324 324 326 327 330 334 337 335 333 330 327 325 323 324 324 325 326 323 324 324 325 324 327 333 334 335 334 332 331
313 314 317 320 322 320 325 325 324 325 324 324 324 323 323 322 321 321 321 322 322 323 324 325 326 328 337 338 336 334 330 329 329 326 326 329 328 325 323 324 326 325 328 333 334 334 334 333 331
312 312 312 312 313 316 317 320 322 321 321 322 323 323 323 322 321 319 322 322 324 324 324 324 324 325 333 336 338 336 333 331 330 329 329 325 329 326 323 323 326 325 329 333 334 334 333 333 332
314 313 314 315 312 315 318 323 322 321 322 323 323 322 322 320 320 321 322 322 322 322 323 323 323 323 326 331 335 337 333 332 331 330 330 330 332 330 324 324 326 325 329 335 333 334 334 332 333
311 315 314 315 314 315 317 320 320 320 320 319 318 319 319 320 319 319 321 321 322 322 323 323 323 323 324 329 336 338 336 334 333 333 333 334 334 331 327 326 325 325 333 335 334 335 333 333 333
314 314 317 317 315 315 315 317 317 317 317 318 317 318 318 317 317 318 320 321 322 323 322 322 323 323 323 330 337 339 338 337 335 335 334 334 334 332 330 328 328 327 336 335 336 334 334 333 334
309 312 313 314 315 314 314 316 315 314 315 316 316 317 317 318 317 318 320 321 321 321 321 323 323 324 325 336 338 339 338 338 338 337 336 336 335 333 331 331 328 333 335 335 334 334 334 333 331
307 308 310 311 312 313 313 313 313 313 313 313 315 316 316 315 316 316 318 319 319 320 321 324 325 325 328 334 338 338 338 338 338 338 338 338 337 333 332 331 332 335 335 334 334 334 333 331 329
308 309 310 311 312 312 313 314 314 314 313 313 313 313 314 315 316 316 315 316 319 319 321 322 323 325 330 337 339 339 339 338 338 338 339 338 337 336 335 335 335 336 335 334 334 334 331 329 327
306 308 310 312 313 314 313 316 314 314 313 313 313 313 313 312 314 315 316 315 317 318 320 320 322 325 330 337 339 338 337 335 337 338 339 339 338 338 338 337 336 335 335 335 333 331 329 328 326
306 308 308 308 308 309 311 313 313 312 312 312 312 312 312 312 312 313 314 314 316 319 324 320 320 324 333 337 339 339 338 337 338 339 339 339 338 339 338 337 334 335 334 332 329 328 328 328 327
306 307 308 309 308 311 309 312 312 310 312 313 312 311 311 311 311 312 312 330 333 337 339 337 334 336 338 339 339 339 338 335 335 337 338 336 335 336 335 335 335 333 330 327 327 328 327 327 327
305 304 308 310 311 310 310 311 310 311 312 312 313 313 312 312 311 312 330 334 338 337 337 339 340 339 340 340 339 338 338 336 336 335 335 334 333 335 335 334 331 329 326 327 327 328 328 328 327
305 304 306 313 312 310 311 313 313 312 312 312 312 311 310 310 311 330 336 337 338 338 338 339 339 338 339 337 336 336 336 335 334 335 335 335 334 333 332 331 329 326 327 327 328 329 328 327 327
307 305 305 305 306 307 310 311 312 312 312 312 311 312 310 311 326 335 336 338 336 336 336 337 337 336 336 336 335 335 336 335 334 334 334 333 332 331 330 329 328 327 326 327 329 329 329 328 328
307 306 305 302 307 312 311 312 313 312 313 313 313 314 312 324 335 336 337 333 333 334 335 335 336 336 335 336 336 336 335 335 334 333 332 331 329 328 328 328 327 327 327 329 329 329 329 328 327
309 308 307 303 305 312 314 312 311 312 314 313 321 331 316 331 337 336 334 331 331 332 332 332 333 332 333 334 333 333 332 332 332 331 331 330 328 326 327 326 326 327 328 328 328 328 328 328 327
308 308 307 308 308 306 308 308 309 310 311 313 314 333 331 337 337 335 333 331 330 330 330 330 331 331 331 331 331 330 330 330 331 331 330 328 326 326 326 327 327 327 327 327 327 328 328 328 327

GFSSGP_925_thetae_027.txt.gz
Theta_e
323 322 317 325 326 325 324 324 323 327 333 332 329 336 340 340 341 343 336 337 334 336 329 323 320 319 316 315 314 315 314 314 313 314 314 313 313 312 312 311 310 310 310 312 315 316 319 321 322
325 316 321 325 323 323 322 323 327 329 334 332 334 334 337 338 335 338 338 337 334 334 325 325 320 318 316 314 313 314 314 313 313 312 312 312 311 311 311 311 311 311 311 316 323 324 323 324 325
318 321 323 328 323 321 322 326 326 332 330 330 335 333 337 338 338 339 336 334 334 333 326 321 320 319 316 314 312 314 313 313 312 312 312 313 312 312 313 313 312 314 314 316 324 325 325 325 329
325 324 320 324 326 325 324 331 331 330 331 332 335 335 333 334 339 339 334 334 335 333 330 322 319 319 316 314 312 313 314 313 313 313 313 314 314 314 314 315 316 319 322 327 329 328 330 329 330
322 321 322 323 322 324 327 327 328 328 329 334 334 336 336 335 336 337 336 335 338 336 335 328 319 319 316 314 313 313 314 314 314 314 314 315 315 316 316 317 319 322 331 334 333 332 334 335 335
322 321 321 319 320 321 323 324 325 328 331 332 334 335 335 331 338 337 336 336 339 337 335 334 322 320 317 315 313 313 314 314 314 315 315 316 316 317 317 319 320 323 328 334 336 335 335 335 335
321 322 319 320 320 321 320 322 325 329 330 332 333 336 335 332 334 340 340 340 339 339 337 334 335 322 318 315 314 313 314 315 315 315 316 317 317 318 318 319 321 323 328 332 333 334 335 336 334
322 323 320 320 319 320 323 326 328 328 330 328 330 332 333 331 337 340 341 341 340 339 340 340 336 338 337 333 315 314 313 314 315 315 316 317 318 318 319 319 320 323 328 331 331 331 331 330 329
319 322 322 319 320 320 323 325 327 326 329 329 329 330 330 330 337 341 342 342 341 340 338 335 333 334 337 337 335 315 314 314 316 316 316 318 328 328 328 326 322 322 328 330 330 331 331 330 328
324 325 323 320 319 321 322 322 324 325 327 327 329 326 326 328 328 329 333 335 340 342 341 338 335 332 335 336 336 334 335 326 324 325 328 327 334 334 333 332 322 323 328 331 332 331 331 331 334
327 325 323 321 319 319 320 320 320 324 327 327 327 327 327 326 327 327 327 328 328 330 338 338 338 336 337 337 336 334 336 334 332 334 333 334 336 334 333 334 333 334 330 338 337 338 337 336 335
325 326 325 323 319 319 319 320 323 325 326 327 329 329 328 327 327 327 327 326 327 328 327 331 333 337 337 336 337 336 335 335 333 335 335 334 334 334 334 334 334 336 334 337 339 339 339 337 335
324 323 326 327 327 326 328 330 329 330 329 329 328 328 328 328 328 326 326 326 327 326 326 325 326 327 333 337 338 337 335 335 333 334 335 331 332 331 333 333 329 328 330 334 338 338 338 337 335
318 320 323 325 329 329 330 329 329 329 328 327 327 327 327 327 327 326 326 327 326 325 324 325 325 325 327 330 335 336 335 335 335 334 334 333 331 332 333 333 329 322 323 331 336 338 338 337 335
314 316 316 317 322 326 327 327 329 326 325 325 325 325 326 327 326 326 326 328 326 326 324 324 323 323 323 325 328 335 336 336 336 335 334 335 330 333 332 332 326 324 323 323 330 334 337 336 335
314 315 317 317 316 317 319 323 323 323 323 324 325 325 326 326 327 326 326 326 325 323 323 322 322 321 322 323 325 335 337 336 336 336 335 336 336 335 333 329 328 323 323 325 331 335 336 335 336
315 316 317 317 317 317 319 322 322 323 324 325 326 326 325 324 325 325 324 324 322 321 321 321 322 321 322 323 327 337 337 336 336 336 336 337 337 335 333 328 325 321 324 328 333 335 335 335 336
314 316 316 317 317 317 319 320 321 322 321 322 322 322 322 322 324 323 323 323 322 320 321 321 321 321 321 326 334 339 339 336 336 336 336 337 337 335 334 332 329 325 331 331 333 335 336 335 336
312 314 316 316 317 318 319 319 320 320 320 320 320 320 321 322 322 321 321 321 322 322 321 321 320 320 323 335 337 339 339 338 337 337 338 338 337 335 336 334 333 332 332 330 336 335 335 336 333
312 313 313 313 314 315 318 319 318 318 318 318 319 320 320 321 321 322 322 322 323 321 319 319 320 320 323 334 338 339 339 340 339 338 338 338 338 338 337 336 334 333 332 337 335 334 334 334 331
312 313 313 313 313 315 316 318 318 318 318 318 318 319 319 321 322 322 323 322 322 323 320 321 319 320 322 333 339 339 340 338 339 339 340 339 339 338 337 336 332 329 334 335 335 334 336 334 330
311 309 311 313 315 317 316 318 318 318 318 318 318 318 320 320 320 321 322 325 323 322 322 318 318 319 323 337 339 340 340 339 339 338 340 340 339 338 336 333 331 334 337 335 335 335 335 333 331
309 309 309 310 311 313 314 315 316 316 317 317 317 318 319 318 318 319 319 321 320 320 325 335 331 324 330 338 340 341 341 341 341 340 340 342 339 338 336 335 336 337 336 335 335 334 332 330 330
307 308 310 311 311 313 313 313 315 315 315 315 316 317 318 319 319 318 318 318 321 334 338 338 337 334 335 338 340 341 341 340 340 340 340 340 340 339 338 337 337 336 336 335 333 332 331 330 329
307 308 309 310 312 313 312 313 314 315 314 315 317 317 318 319 320 322 320 326 337 340 340 338 339 338 338 339 340 341 341 340 341 341 340 339 339 338 338 337 336 335 333 331 330 331 330 330 330
308 308 309 308 310 310 311 313 313 315 316 316 316 318 319 320 321 320 327 338 341 342 340 342 341 340 340 339 339 339 339 340 340 340 338 337 337 337 336 335 334 331 328 329 330 330 330 330 330
310 309 308 310 311 311 311 311 312 313 314 316 319 322 324 331 325 324 339 341 340 340 342 342 341 340 339 338 337 338 338 339 339 338 337 336 335 335 333 332 330 328 329 330 330 331 331 331 330
312 309 310 310 310 310 312 312 313 315 317 318 319 322 328 332 329 336 339 339 340 342 341 341 340 339 338 337 337 337 337 337 336 336 336 335 334 332 331 330 330 329 329 330 331 330 329 332 331
312 311 310 309 310 312 314 315 317 317 317 316 316 319 335 330 336 338 339 340 341 340 340 339 338 338 337 336 336 336 335 335 335 335 334 333 330 330 330 329 329 329 330 331 329 329 329 330 331
309 310 311 312 311 310 310 312 315 315 315 315 315 317 335 337 337 337 339 341 341 340 339 338 338 337 336 336 335 335 334 334 334 333 332 330 329 329 328 329 329 329 329 330 330 330 330 329 331

GFSSGP_925_thetae_030.txt.gz
Theta_e
317 329 318 325 328 324 327 328 330 335 336 335 334 338 340 339 340 344 340 341 341 342 343 327 321 320 318 318 316 315 316 319 324 326 327 327 322 318 317 318 319 319 315 317 317 314 315 322 322
330 323 322 325 325 326 328 329 331 335 337 335 335 335 338 341 339 341 340 343 341 344 344 338 321 320 318 317 315 315 315 316 316 317 317 317 316 316 315 315 314 314 323 325 321 325 329 328 327
328 320 323 323 324 325 331 328 334 335 333 334 336 336 339 339 339 338 338 342 342 346 345 339 321 319 317 316 314 315 315 315 314 315 315 314 313 312 311 311 311 316 329 330 331 330 327 326 328
323 323 322 324 325 324 326 331 334 333 335 335 337 337 336 338 340 335 341 342 344 345 344 340 322 320 318 316 314 315 315 314 314 313 313 312 312 312 312 313 314 315 324 328 332 330 327 328 330
324 322 322 323 323 325 326 328 333 333 334 337 338 338 337 339 341 341 341 341 343 344 344 344 328 320 319 316 315 314 315 314 313 313 313 313 313 313 314 315 316 317 322 331 333 331 331 331 333
325 323 322 323 323 323 325 326 328 330 335 337 336 337 338 340 342 342 341 341 341 343 344 343 331 322 320 317 315 314 314 314 313 313 313 314 314 314 315 316 318 321 326 332 332 331 333 334 335
326 323 322 322 321 322 323 324 325 330 335 336 336 338 338 338 340 342 342 342 343 345 347 346 345 334 322 318 315 313 313 314 314 314 314 314 315 316 316 318 319 323 329 331 333 333 334 335 337
326 326 325 322 321 321 322 325 324 328 334 333 334 338 337 336 339 343 343 343 344 345 345 345 344 342 338 336 317 314 313 314 314 314 315 315 316 317 318 318 320 323 328 330 332 333 334 335 333
326 328 329 326 322 321 322 323 326 329 332 332 333 334 333 337 340 341 342 341 341 342 344 345 344 343 340 336 336 321 317 314 315 316 316 317 329 331 330 328 330 323 329 331 333 333 332 331 329
328 330 329 327 326 321 320 322 325 328 331 332 332 331 329 332 335 337 338 338 339 340 342 344 346 344 343 338 336 341 336 335 333 332 332 331 331 332 331 331 330 326 328 331 332 333 333 332 335
328 329 328 328 327 322 322 323 323 325 329 333 332 332 331 330 330 331 332 331 332 332 332 340 344 346 344 341 338 339 340 337 336 335 333 333 331 332 333 333 334 333 331 337 336 338 338 337 336
327 328 328 328 327 324 322 325 325 324 325 328 329 330 331 332 332 331 330 331 331 330 331 332 343 347 348 344 342 341 340 340 338 337 336 335 334 335 334 333 335 333 334 334 339 339 339 339 337
323 325 327 327 326 325 323 324 325 326 327 328 328 330 331 331 331 330 330 329 329 330 331 332 336 345 348 348 344 344 342 340 340 338 338 337 335 335 336 333 333 335 333 335 338 338 339 339 338
320 320 323 325 326 328 327 329 328 329 329 331 331 331 331 330 330 330 330 330 330 330 331 332 333 336 345 346 347 345 345 342 341 340 337 340 336 336 335 334 334 333 334 333 335 338 338 339 337
317 319 320 322 324 326 328 330 330 329 329 330 331 331 330 330 329 330 329 330 330 330 331 333 334 336 342 342 343 343 342 343 341 341 340 339 340 335 335 335 334 332 333 334 334 337 340 337 336
315 316 319 320 321 322 326 332 330 329 329 330 329 329 328 329 329 328 328 329 330 332 331 331 331 329 332 336 337 339 339 340 341 340 341 340 341 338 337 333 334 331 332 333 331 337 335 337 336
316 317 318 318 320 321 322 325 326 326 327 327 327 327 328 328 329 328 328 329 328 328 330 331 331 331 332 332 336 338 340 341 340 340 341 341 341 341 337 336 333 332 332 332 333 333 335 336 339
314 317 317 318 319 320 321 322 323 324 325 326 327 327 328 328 328 326 325 325 326 327 328 330 330 331 335 334 336 339 340 341 341 340 340 341 341 341 339 337 334 334 332 332 331 334 336 340 337
314 315 316 317 318 319 321 322 322 323 323 324 326 326 326 326 325 324 323 324 324 325 328 330 332 335 336 333 336 340 340 342 341 340 341 341 341 341 340 338 337 335 332 331 334 336 339 337 338
312 314 317 317 318 319 320 321 322 322 322 323 324 324 324 325 325 325 324 323 324 327 328 330 332 333 337 334 338 339 342 342 342 341 341 342 341 341 340 339 338 337 333 333 336 337 338 339 337
311 313 315 316 317 318 320 321 321 322 322 322 322 323 323 324 324 325 325 324 324 326 328 329 331 334 335 335 338 344 343 344 344 343 343 341 342 342 341 341 340 338 334 335 336 340 337 336 336
309 310 313 314 316 318 319 321 320 321 321 322 322 323 323 323 323 324 324 325 324 324 325 327 330 331 332 336 338 343 343 343 343 343 341 343 343 342 340 340 340 338 334 335 340 338 336 338 336
309 309 312 313 316 317 317 319 320 320 320 321 322 322 322 322 323 323 323 323 322 322 324 325 329 336 336 338 340 344 343 344 345 343 344 342 340 341 341 340 338 336 336 341 338 338 338 337 332
309 309 310 313 314 317 317 318 319 319 319 320 320 320 320 321 321 322 324 322 323 323 324 330 340 342 338 339 343 345 345 345 345 346 341 341 341 341 341 340 340 340 340 340 338 337 336 334 330
309 309 311 312 316 317 316 316 317 319 318 318 318 320 319 321 322 323 324 325 326 332 337 341 343 343 340 341 343 345 347 346 347 342 343 344 343 342 342 342 342 341 339 338 337 336 333 332 330
309 309 310 311 312 313 314 316 316 317 318 318 319 320 322 325 327 329 326 325 330 338 345 345 344 343 342 343 344 346 347 346 346 345 345 344 344 343 342 342 341 340 339 337 335 332 331 331 331
310 311 312 310 311 312 313 315 316 317 317 319 321 323 326 333 335 333 328 337 342 346 347 346 345 345 345 345 346 346 346 346 346 345 344 343 342 342 341 340 340 338 335 333 333 330 331 331 332
312 312 318 310 311 313 313 314 316 317 316 318 321 322 328 340 333 331 338 346 347 347 347 347 347 346 346 346 345 346 346 346 345 343 340 340 340 339 339 338 336 333 332 332 332 331 332 333 333
314 316 316 312 311 313 313 315 316 320 320 320 320 321 335 340 338 340 344 347 347 347 347 347 346 346 345 344 344 344 343 342 341 340 340 339 338 337 335 333 332 331 331 332 333 333 333 333 333
312 315 315 320 315 312 315 319 320 320 318 319 319 321 334 338 338 342 344 347 347 346 346 346 345 344 344 343 343 342 340 340 339 339 338 337 335 333 331 330 329 330 332 332 332 332 332 332 331

GFSSGP_925_thetae_033.txt.gz
Theta_e
316 322 325 323 328 325 327 326 330 331 333 335 335 336 339 342 340 347 339 338 338 344 347 324 320 320 318 317 318 321 331 337 340 343 344 345 343 340 332 324 320 322 322 321 315 315 317 320 318
321 327 322 326 326 328 326 329 330 335 336 337 338 338 340 342 341 342 341 340 340 346 346 338 320 320 319 316 316 317 325 333 334 339 339 336 333 328 320 319 319 319 315 320 325 325 326 324 324
333 325 323 324 328 326 329 329 333 335 338 337 337 337 338 341 340 340 341 340 341 346 346 341 320 320 319 317 316 316 319 322 326 331 330 326 322 318 318 318 317 313 319 327 329 331 327 326 327
327 323 323 326 325 326 327 332 333 336 337 337 337 337 339 339 340 339 340 340 344 346 346 343 323 320 319 318 316 316 316 317 319 321 321 318 317 316 316 314 312 315 326 332 333 331 327 331 332
326 325 325 324 325 327 327 329 335 337 337 338 337 338 338 338 339 340 339 341 344 345 345 344 336 321 320 319 316 315 315 316 316 316 316 316 315 315 313 312 313 318 330 334 334 332 329 328 328
329 325 323 325 325 325 327 328 331 336 336 338 338 339 338 340 341 337 337 339 340 343 344 348 342 325 321 319 317 315 315 315 315 314 314 314 313 313 313 314 315 319 327 333 335 334 332 332 333
329 328 325 325 326 325 326 326 328 332 334 337 338 339 340 342 340 336 336 336 338 341 344 347 351 335 324 321 318 315 314 315 315 314 314 313 313 314 314 315 317 320 327 333 335 334 333 334 334
329 330 329 326 325 326 325 326 327 331 334 336 337 339 341 340 338 336 336 337 339 341 343 344 351 343 340 338 323 317 315 314 315 314 314 314 314 315 315 316 318 320 325 332 334 333 334 334 336
329 331 331 329 327 326 325 325 326 329 331 336 336 337 338 338 339 338 337 338 338 340 342 344 346 347 342 338 340 323 318 315 315 315 314 314 328 330 329 326 328 321 326 331 331 331 331 333 331
331 332 331 329 328 327 326 324 325 328 329 333 336 334 334 338 339 338 338 338 339 339 341 344 346 347 346 340 339 341 338 335 333 331 331 330 329 330 331 330 327 329 326 330 329 327 328 332 337
330 333 331 330 329 328 327 325 324 325 330 333 335 335 334 334 338 339 338 337 337 337 339 340 348 349 347 344 340 344 343 339 337 335 333 334 330 331 333 332 332 335 331 334 335 337 338 337 338
327 328 330 330 329 329 329 327 327 326 326 330 334 335 334 334 334 335 334 334 334 334 333 334 338 352 351 346 343 340 342 344 340 339 336 335 335 333 334 333 335 335 334 335 337 338 338 337 340
325 326 326 328 328 329 329 328 327 327 327 327 328 332 332 333 333 333 333 333 333 333 333 334 335 347 352 351 345 344 343 343 344 342 340 339 336 335 335 335 334 337 334 335 337 339 340 342 340
319 320 322 324 325 328 329 329 328 328 328 328 327 328 330 331 333 332 332 333 333 333 333 332 334 340 351 351 348 348 347 343 344 343 343 341 338 338 337 337 336 335 336 335 335 338 339 340 340
318 318 319 321 322 325 328 329 330 329 330 330 330 330 331 333 333 333 331 333 332 332 333 333 335 338 343 347 351 349 344 347 344 343 343 345 342 339 339 339 338 335 336 335 336 337 338 339 340
318 318 319 320 322 323 323 329 329 329 330 330 331 332 332 333 333 332 331 330 331 332 333 334 334 334 337 346 348 346 342 342 342 343 343 345 345 343 342 339 338 337 335 336 336 336 335 340 337
314 318 319 318 319 321 322 325 326 327 330 331 331 331 332 332 333 332 330 330 331 333 334 335 334 334 335 338 339 340 341 341 340 340 342 344 345 345 343 341 338 338 336 335 335 334 336 337 337
313 314 316 318 319 319 320 323 323 324 326 330 330 331 330 330 331 330 330 330 330 331 332 332 333 332 335 336 337 338 337 339 341 341 342 343 346 345 345 343 340 338 337 335 334 334 336 335 336
311 312 315 317 318 319 319 321 322 323 324 325 327 329 331 333 330 329 329 328 327 328 330 332 334 336 335 334 335 334 334 338 343 344 343 343 345 345 345 343 342 340 337 336 335 335 336 337 338
311 312 313 314 317 319 320 321 321 323 324 324 325 326 328 329 329 329 328 328 329 330 330 331 334 336 339 336 336 333 337 340 343 344 344 344 345 345 345 343 342 340 338 338 337 336 336 336 341
311 311 312 314 316 318 319 321 322 321 322 323 324 325 326 327 328 330 329 330 329 330 331 331 333 335 338 336 337 339 342 345 344 345 345 346 345 345 344 343 343 342 339 338 337 338 337 339 341
312 311 311 312 315 318 319 322 322 323 323 323 324 325 325 326 326 327 328 331 330 329 328 330 332 335 338 341 337 337 342 343 344 346 346 346 345 343 343 343 342 343 341 338 338 337 338 341 339
311 311 311 312 313 316 316 319 320 322 322 323 324 324 325 325 325 325 326 326 325 326 328 329 332 335 337 338 337 336 343 343 345 346 348 344 344 344 343 343 342 341 340 337 338 341 340 339 337
310 310 311 312 313 316 317 318 319 320 321 322 323 323 323 324 324 325 325 325 324 324 325 327 332 335 337 341 342 345 346 346 347 346 346 347 344 343 342 342 342 341 338 341 342 340 340 338 336
310 310 310 312 313 315 316 318 319 319 320 322 322 323 322 323 323 324 324 324 325 325 326 326 328 335 342 344 343 346 348 350 349 350 345 343 343 342 343 343 341 340 343 342 341 340 339 337 334
312 311 311 311 312 313 313 316 317 320 320 321 320 321 321 323 324 327 326 326 326 327 333 337 340 343 345 343 345 347 349 349 350 346 344 344 344 344 343 343 344 344 342 339 339 338 336 334 333
314 312 313 313 314 314 315 315 316 318 319 319 321 322 325 326 329 330 331 330 327 331 342 345 346 346 345 345 346 348 348 348 346 348 347 346 346 345 345 344 343 341 339 339 339 334 333 332 332
314 313 315 319 316 314 316 315 317 317 319 320 322 323 324 334 336 334 331 332 340 345 347 347 347 347 347 347 348 349 349 350 347 348 345 345 345 344 344 342 340 339 338 336 335 332 332 333 334
316 315 315 316 314 317 315 318 317 318 319 319 322 323 333 339 337 335 341 345 347 348 348 348 348 348 348 348 348 348 347 345 345 344 344 343 342 340 339 338 337 336 334 333 333 334 333 333 335
312 314 314 319 322 316 315 317 320 322 322 323 322 324 332 340 341 342 345 347 348 348 347 348 347 347 347 347 346 346 346 344 343 341 341 339 338 337 336 335 333 332 331 333 334 334 333 333 334

GFSSGP_925_thetae_036.txt.gz
Theta_e
317 317 325 324 325 325 325 324 328 329 330 332 335 336 338 340 345 348 339 342 347 343 326 320 319 318 317 318 319 325 332 337 339 340 342 344 345 344 340 334 326 320 320 318 318 315 315 317 316
321 321 326 324 325 327 325 325 327 329 332 334 335 335 337 344 343 340 339 341 348 342 327 320 319 318 317 316 317 323 328 334 337 337 339 341 343 340 333 324 319 320 321 317 316 316 319 322 320
326 330 324 323 325 327 327 327 328 331 336 336 336 336 338 343 342 342 341 344 348 344 329 322 319 319 317 316 317 320 325 331 333 334 336 339 338 332 322 318 318 318 319 328 330 329 327 325 325
329 330 323 324 325 325 327 328 328 332 338 337 337 336 337 340 341 342 341 345 345 345 333 327 319 319 318 317 316 316 320 324 325 328 329 333 331 325 319 317 317 314 321 329 331 331 326 327 326
330 327 324 322 323 325 326 327 328 334 336 337 337 337 338 340 341 340 341 345 346 347 344 338 320 319 319 317 316 315 316 318 320 321 323 325 324 319 318 316 314 315 321 328 331 327 327 328 330
330 327 326 324 325 325 326 326 328 334 336 336 337 338 338 338 341 340 340 343 344 346 346 343 332 319 319 318 316 316 315 316 316 317 318 318 318 317 316 314 313 315 321 328 329 326 327 328 330
332 331 329 325 324 324 325 326 326 328 334 336 337 338 339 339 340 338 339 340 341 344 346 346 339 324 319 319 317 316 315 315 315 316 316 316 316 316 314 313 314 316 319 326 329 328 328 329 329
328 330 331 329 328 326 326 327 327 327 328 332 335 339 342 341 340 337 337 338 340 342 346 352 347 337 324 322 320 318 316 315 316 315 315 315 315 314 313 314 315 316 319 326 328 328 329 330 331
325 331 333 331 329 327 327 326 327 326 326 331 334 338 339 339 340 337 336 337 339 341 342 349 353 347 335 337 328 320 318 316 315 316 315 315 314 315 315 315 316 317 320 327 326 327 333 333 331
326 331 332 330 329 329 328 327 327 326 325 328 333 337 338 339 339 339 337 337 339 341 343 346 351 349 342 340 340 332 321 319 316 316 316 316 315 322 323 323 320 324 321 325 326 329 333 331 333
323 329 330 331 330 329 329 328 328 325 325 327 331 336 335 340 341 339 338 338 338 339 342 345 347 348 346 342 340 340 337 328 322 318 320 323 323 325 332 330 330 326 329 324 327 331 331 332 333
320 324 326 329 330 330 330 330 328 327 326 326 329 333 336 335 338 339 339 338 338 337 337 344 347 348 348 347 344 343 342 341 338 334 329 331 333 332 332 333 334 331 332 329 332 335 334 335 338
318 320 323 325 327 328 329 330 330 329 328 328 327 329 336 335 337 336 336 335 334 334 334 338 347 348 347 346 348 345 346 345 343 341 339 334 337 334 333 335 335 335 335 334 332 337 338 340 337
318 318 319 321 326 327 327 328 330 330 329 328 329 328 331 334 334 335 335 335 335 334 335 334 336 342 347 345 345 349 342 344 346 344 343 340 337 338 336 334 337 338 337 337 333 338 338 339 342
317 318 318 319 320 322 324 326 328 330 330 329 329 329 330 332 335 333 333 333 333 332 334 334 333 345 342 344 342 343 352 344 346 347 345 344 341 339 337 339 337 335 340 336 337 335 341 343 343
314 316 319 318 319 320 321 322 324 327 329 331 330 330 331 331 330 332 334 335 333 331 331 331 334 334 338 343 344 346 343 349 349 345 347 346 346 342 341 340 340 339 336 338 339 336 338 338 339
312 313 315 317 318 318 319 322 323 324 327 330 331 332 332 333 334 333 333 334 335 333 333 337 335 335 342 345 345 345 348 348 346 345 346 346 348 346 342 343 342 340 339 338 337 338 339 339 340
312 312 312 313 315 318 319 320 323 324 325 326 328 329 331 333 332 334 334 334 333 335 335 335 336 336 334 339 345 347 344 342 342 343 342 345 347 349 345 344 344 342 339 339 339 337 335 336 339
314 313 313 314 314 316 318 320 321 322 323 324 327 329 330 331 332 331 334 332 333 332 332 331 331 332 333 335 340 340 341 339 340 343 343 342 346 348 348 346 345 342 343 340 337 337 336 338 337
314 313 313 313 314 315 316 317 320 322 323 324 326 327 328 330 332 333 331 331 333 332 330 331 334 335 333 334 336 337 338 337 336 341 344 344 347 348 347 348 345 345 343 340 338 337 338 338 337
313 313 314 312 313 313 315 317 319 320 322 323 324 327 327 328 329 331 333 335 333 332 331 333 331 330 327 333 339 340 336 335 340 346 346 345 346 348 347 347 346 345 342 341 338 339 337 338 338
312 313 313 313 312 312 314 318 320 320 322 323 324 324 326 328 328 328 330 333 333 332 330 332 334 331 330 336 342 340 341 343 343 347 348 346 346 347 347 346 344 345 342 341 340 339 338 336 341
313 314 312 312 312 312 312 314 317 320 322 323 324 326 325 325 328 328 328 329 328 327 327 327 327 331 334 337 338 341 345 344 343 344 348 348 346 347 346 344 343 344 343 340 340 339 337 337 341
314 313 313 311 311 314 313 314 315 318 320 322 324 325 325 325 325 325 327 326 327 327 330 331 333 334 336 336 342 342 339 341 346 351 350 349 347 346 342 343 342 343 342 342 338 338 337 341 339
316 312 311 311 312 312 312 314 316 316 318 320 322 323 324 326 327 327 326 326 328 328 328 328 330 338 338 338 342 344 337 348 345 351 349 347 346 345 343 342 342 342 340 341 338 341 341 338 336
315 315 315 312 311 311 311 313 315 315 318 320 321 322 324 326 326 327 328 331 328 328 329 328 328 336 338 339 343 346 344 354 354 350 346 345 344 343 342 341 342 342 340 343 341 339 337 337 336
315 313 315 315 314 314 315 311 314 316 316 318 321 323 323 325 326 327 327 332 330 328 332 330 334 334 341 348 346 349 350 351 352 348 345 343 342 342 341 344 342 343 342 340 338 338 336 335 333
311 312 316 317 317 313 313 312 313 316 316 318 320 323 324 325 326 329 332 334 335 330 342 343 344 347 347 347 350 351 352 352 349 346 344 346 346 345 342 345 343 341 340 339 337 336 333 334 332
314 316 315 316 320 321 319 314 314 323 321 320 320 323 324 327 335 342 336 336 344 345 349 350 348 349 349 349 350 350 351 350 350 349 348 348 345 345 344 342 340 339 338 337 335 334 334 334 333
311 314 317 318 315 314 314 316 316 319 318 316 322 323 327 335 340 344 342 342 344 348 349 350 349 350 349 348 349 349 347 346 346 345 345 345 343 342 341 340 337 336 335 334 334 333 334 333 333

GFSSGP_925_thetae_039.txt.gz
Theta_e
317 315 319 324 319 319 320 321 321 323 325 325 331 332 335 340 343 347 342 346 332 325 322 320 319 318 317 317 319 325 330 332 335 336 339 340 341 340 337 332 326 320 320 320 318 315 314 316 315
321 319 321 323 319 320 321 320 321 322 322 328 332 333 337 342 338 346 348 346 328 324 321 320 319 318 317 317 319 323 326 331 334 334 336 337 338 336 331 325 318 318 317 315 313 314 316 318 318
322 325 326 317 317 321 321 323 321 323 325 332 334 334 337 341 339 340 347 344 329 325 322 321 319 318 317 317 318 321 324 328 331 330 332 334 335 333 327 319 317 317 315 313 314 316 318 319 319
326 329 323 318 320 320 322 322 323 324 325 335 334 335 338 339 340 343 346 343 329 326 322 321 320 318 317 317 317 318 321 323 327 327 329 330 330 330 323 317 317 316 314 316 320 323 322 321 321
330 327 322 319 319 320 322 323 323 323 324 334 335 336 339 341 341 346 347 341 330 328 324 320 320 319 318 316 316 317 317 319 323 323 325 325 326 326 320 317 316 315 315 321 325 327 325 325 325
332 324 326 322 323 323 323 322 321 322 326 334 334 335 337 340 343 347 344 342 335 330 327 320 320 320 318 317 316 316 316 316 319 319 322 321 322 322 319 318 316 314 315 322 323 324 326 326 327
324 332 329 325 324 323 323 322 322 321 323 335 336 338 337 338 340 345 344 343 340 336 332 326 320 319 319 318 317 316 316 316 316 316 318 318 319 318 317 317 314 314 315 320 325 324 325 327 329
320 326 332 331 330 328 326 325 322 322 323 326 328 335 339 339 338 340 344 346 345 344 341 334 325 320 320 319 317 316 315 316 316 315 316 316 317 316 316 316 314 314 316 319 322 322 327 326 326
320 322 325 329 329 328 327 326 327 325 323 323 328 337 338 338 339 338 339 343 346 345 343 340 335 323 321 320 319 317 316 315 315 316 316 316 316 316 316 315 314 314 316 318 320 322 328 325 327
318 324 325 325 328 329 328 327 327 327 326 323 327 337 337 337 339 340 337 337 344 349 347 344 340 336 325 322 321 319 318 317 316 315 316 316 316 317 316 314 314 315 316 318 320 323 329 327 328
317 321 323 325 327 328 329 328 328 328 326 323 323 335 336 338 339 338 336 336 337 340 352 349 346 343 335 326 323 321 319 319 317 316 316 317 318 320 318 317 317 317 318 320 320 325 330 328 328
314 316 321 322 323 324 326 327 328 328 328 326 324 324 331 337 336 335 335 336 340 342 352 352 348 346 342 335 335 334 333 325 320 318 317 318 320 321 321 321 325 324 323 325 322 323 328 328 328
312 314 316 318 321 322 323 324 326 327 327 328 326 325 325 332 335 336 335 336 337 340 347 342 340 346 346 343 340 339 339 338 337 333 327 321 322 322 322 323 328 330 330 328 325 325 327 327 328
311 313 315 316 316 320 322 323 325 326 326 328 328 326 325 330 333 332 334 336 335 336 337 338 341 339 346 346 342 342 342 341 341 340 340 339 332 328 327 326 329 332 334 332 330 328 327 329 333
311 311 313 314 315 317 317 320 326 325 325 325 327 327 325 326 330 330 332 333 333 334 336 342 343 343 348 348 348 346 345 344 344 344 344 343 341 336 334 332 329 333 335 336 334 333 329 335 336
310 310 310 314 315 316 315 317 318 319 323 325 326 327 328 326 326 330 332 332 332 332 331 333 341 343 347 348 345 347 348 346 345 345 345 345 344 341 338 337 334 332 337 338 336 336 333 338 337
310 310 309 310 311 314 315 316 317 318 320 321 322 324 328 327 327 328 331 332 332 331 332 331 337 338 338 337 340 342 339 341 350 349 348 348 346 344 341 339 337 337 336 338 338 338 336 336 341
309 310 310 310 310 310 310 314 316 317 318 319 320 323 327 327 327 328 329 332 332 333 332 332 334 337 340 339 341 344 343 342 339 342 347 348 348 347 345 341 340 339 338 339 338 339 339 337 337
312 312 312 312 312 311 311 312 313 313 316 317 319 320 324 327 326 325 326 327 331 335 337 337 336 336 338 345 348 348 348 346 346 348 347 345 343 347 347 343 342 341 341 339 339 338 338 339 337
313 313 312 312 312 312 311 312 312 313 313 314 318 319 321 324 324 324 325 327 329 335 337 336 335 335 334 334 333 334 338 346 344 341 338 336 342 345 349 345 343 343 343 342 339 339 338 337 336
311 311 312 312 313 312 311 311 311 312 313 315 316 318 319 322 324 324 325 329 330 334 334 332 331 330 330 330 331 330 334 336 337 340 340 337 343 345 349 348 345 345 345 342 342 339 338 337 338
310 311 311 311 311 311 312 311 310 312 313 315 316 316 317 319 322 322 322 323 327 334 333 331 331 332 330 328 329 330 338 340 336 334 333 343 345 346 349 348 347 345 345 344 342 340 339 336 338
315 315 314 314 312 310 310 309 310 311 312 312 314 317 316 317 320 320 321 322 325 328 334 333 333 332 330 329 330 333 337 338 340 339 339 348 347 347 348 347 347 346 344 344 342 340 338 338 336
314 315 314 313 311 312 309 310 310 311 312 312 313 315 316 319 318 318 318 323 325 327 328 327 327 332 331 331 330 335 338 339 340 342 348 348 346 347 348 347 346 344 344 345 342 341 339 337 336
312 313 314 312 312 313 309 309 309 310 312 313 312 313 315 316 319 320 319 318 320 323 325 325 327 329 330 332 335 335 335 336 340 347 350 348 347 346 346 344 343 342 343 343 341 340 338 336 338
311 314 318 321 313 311 313 313 310 311 311 313 314 313 313 315 316 317 320 320 320 321 322 324 326 330 331 335 338 338 340 341 339 347 349 347 347 346 345 341 342 342 341 341 340 338 338 339 338
314 314 314 318 317 317 313 312 312 311 314 316 315 315 314 314 317 318 319 321 320 322 324 325 329 335 338 340 339 343 342 340 339 349 348 346 345 343 342 341 341 341 341 341 341 341 339 336 335
312 312 313 316 316 316 314 314 312 320 317 316 315 314 315 316 317 318 321 322 324 326 324 328 328 330 337 339 339 340 345 345 351 347 346 345 343 342 341 341 341 341 341 341 339 337 336 336 335
310 315 315 315 316 315 315 315 319 316 316 315 314 314 316 317 321 320 334 333 328 331 335 336 344 343 346 346 346 346 348 351 349 347 344 343 341 341 341 342 343 342 340 339 336 335 335 334 332
311 314 313 317 316 315 314 314 315 314 314 314 313 314 316 317 320 331 337 338 338 347 347 347 347 347 347 348 349 349 351 350 346 343 346 343 345 344 342 343 341 340 338 337 334 334 334 334 333

GFSSGP_925_thetae_042.txt.gz
Theta_e
318 317 319 322 318 315 318 319 319 320 320 321 321 324 334 337 341 342 341 341 332 324 322 320 318 317 318 319 323 326 328 331 334 334 333 333 334 332 331 328 324 319 318 317 317 316 314 313 312
319 321 320 319 317 318 318 318 321 320 320 320 321 328 338 341 341 346 344 343 325 323 321 320 318 317 318 319 321 323 326 327 330 330 330 330 330 328 326 322 318 318 317 316 314 316 317 317 316
322 326 325 320 315 317 319 319 320 321 321 322 323 330 338 339 345 344 345 338 325 323 321 319 318 317 318 318 320 322 324 327 326 327 328 328 328 325 322 318 316 316 315 313 314 317 318 318 317
324 325 322 317 317 316 319 319 320 321 322 322 322 338 338 339 341 345 344 332 325 323 321 319 318 317 317 318 319 321 323 325 325 327 326 325 326 324 321 317 316 316 314 314 314 317 319 319 319
330 323 323 317 316 316 318 319 319 320 320 321 324 334 338 339 343 345 340 329 324 323 321 319 318 318 318 318 318 319 321 323 323 324 324 325 323 323 321 317 316 316 314 315 317 320 320 321 322
330 323 324 325 323 322 321 320 320 320 320 320 329 337 339 343 347 344 336 329 325 323 322 319 319 317 318 318 318 318 319 321 322 322 322 320 320 321 320 317 316 315 314 316 318 319 322 324 325
322 329 327 325 326 327 325 323 320 319 319 320 330 338 338 337 347 346 338 332 328 323 323 322 322 318 318 317 318 317 317 318 321 321 319 319 319 320 319 317 316 315 315 317 318 320 322 325 327
318 325 331 331 333 332 329 327 323 323 326 322 324 337 339 337 347 347 343 336 334 331 325 323 322 319 317 317 317 317 317 317 317 319 318 319 320 319 319 317 316 315 314 316 317 320 322 323 328
315 318 322 330 331 330 327 327 327 326 325 325 326 336 337 338 345 345 344 341 337 336 330 325 323 321 318 318 317 316 316 317 317 317 318 319 320 320 319 317 316 315 314 316 317 321 324 324 328
313 319 322 321 325 326 325 326 327 328 327 327 325 336 338 338 338 337 342 344 346 344 339 329 324 322 320 319 318 317 317 316 316 316 317 318 319 318 318 317 316 316 314 315 317 320 326 326 327
312 316 321 323 323 323 325 325 325 325 326 326 325 325 337 338 337 337 336 342 347 348 346 341 333 327 321 321 320 319 318 317 317 316 316 317 318 318 319 318 317 316 315 317 317 320 325 325 326
311 312 314 317 319 320 321 322 322 323 324 324 326 325 331 337 337 336 336 339 340 344 347 345 342 336 331 323 320 320 319 319 318 318 317 318 319 320 321 319 318 317 316 318 318 318 321 323 325
310 311 311 312 314 318 320 321 321 321 322 323 325 326 323 335 335 335 338 340 344 348 351 349 347 345 341 334 325 322 321 320 319 319 319 318 318 319 320 320 319 318 319 321 320 321 321 321 323
308 309 309 310 311 312 315 318 319 320 321 323 324 326 324 326 333 334 337 339 339 342 345 343 343 340 341 344 334 332 326 325 325 325 325 322 320 320 320 320 320 321 321 324 325 324 323 322 322
309 309 309 310 312 313 315 316 317 317 319 323 324 324 324 324 326 334 335 337 338 339 339 337 336 336 335 342 338 341 339 338 338 338 338 337 336 333 329 326 323 321 322 326 329 329 329 328 326
309 308 308 309 309 313 314 315 316 316 316 318 319 322 323 325 324 326 334 334 335 336 336 340 338 336 339 345 343 343 342 341 341 341 341 341 340 340 339 336 333 329 326 327 331 333 332 332 331
307 307 308 308 308 310 312 314 315 315 315 316 317 318 319 321 324 326 327 330 333 333 336 337 343 344 344 345 344 343 343 343 344 343 343 343 343 343 342 341 338 336 333 331 333 335 335 334 334
308 308 308 309 308 309 308 308 309 311 311 313 315 316 318 319 320 325 327 327 327 330 332 336 342 340 337 339 345 346 347 347 347 346 345 345 345 345 345 343 340 339 336 333 335 336 336 335 336
311 311 310 310 311 311 309 310 310 310 310 310 310 313 315 317 320 324 326 327 327 327 328 331 332 337 341 342 349 349 349 347 347 345 346 349 349 348 348 345 342 340 339 336 335 337 337 336 336
309 310 309 311 311 311 310 311 311 310 309 309 310 311 312 314 316 319 324 324 324 324 324 326 333 336 341 343 344 347 348 346 343 342 340 342 344 346 347 346 344 342 339 338 337 337 337 338 338
311 310 313 312 311 311 311 311 311 311 310 310 310 311 312 313 315 317 320 322 323 324 325 327 330 335 340 342 345 346 345 343 342 345 345 343 344 344 343 342 345 343 341 340 339 339 338 337 337
312 313 314 314 313 311 310 311 310 310 309 309 309 308 310 312 314 316 319 321 322 325 326 329 333 337 339 340 340 341 336 336 334 332 333 335 336 339 339 342 345 345 343 342 342 341 339 339 337
312 314 314 313 314 311 311 309 311 308 309 309 309 309 309 310 311 313 316 318 321 322 325 329 332 336 335 335 334 333 333 331 329 331 331 332 333 335 338 344 347 346 344 343 344 342 340 338 337
313 313 311 310 311 312 311 309 311 309 308 309 309 309 310 309 310 312 315 317 320 323 323 328 333 333 332 330 330 330 330 330 333 334 337 339 339 344 346 347 348 347 346 344 344 343 341 339 337
310 311 312 311 310 311 310 310 310 308 308 313 315 314 313 313 312 312 311 313 316 317 321 326 332 333 332 332 331 331 331 330 330 332 339 338 346 348 348 348 347 347 346 344 344 343 341 339 337
308 313 313 318 315 313 313 313 311 310 314 314 314 313 313 313 314 314 315 314 314 316 317 322 327 330 332 331 330 330 331 333 332 334 337 342 346 347 347 347 346 346 344 342 343 341 340 338 337
311 314 313 316 316 320 315 312 310 316 315 315 314 313 312 312 314 315 317 320 320 316 318 318 319 322 325 326 329 332 333 335 335 335 339 344 347 346 346 345 343 342 341 342 341 340 339 338 337
309 309 310 312 317 318 314 313 313 316 316 314 312 311 311 312 313 315 316 319 322 324 319 318 319 321 323 327 331 335 337 337 338 341 344 347 347 346 345 342 341 341 341 341 340 340 339 339 336
308 311 314 314 316 317 315 312 315 317 314 313 311 310 311 312 312 314 315 315 316 327 327 321 321 323 327 332 337 339 342 342 341 341 344 347 346 344 342 341 341 340 341 340 341 339 337 336 335
310 310 311 309 312 315 313 314 313 312 312 311 311 311 312 313 314 314 313 313 314 324 334 331 328 330 333 338 341 341 342 344 345 347 347 345 343 342 341 341 341 341 341 340 338 336 336 335 335

GFSSGP_925_thetae_045.txt.gz
Theta_e
320 319 319 320 318 314 317 318 318 319 320 320 319 320 321 325 339 341 337 337 328 324 325 324 325 323 324 325 326 328 330 333 334 335 336 335 333 331 331 329 326 321 317 315 315 314 312 311 310
320 321 319 315 316 316 315 316 319 318 318 317 319 321 326 335 339 342 340 333 327 323 323 320 320 321 323 323 324 325 327 329 329 330 330 329 328 327 325 322 318 315 315 315 314 313 313 314 314
322 326 322 320 315 317 315 317 319 319 318 319 320 321 326 338 345 341 339 332 327 325 322 319 318 320 322 322 323 323 325 327 327 327 328 328 326 324 322 319 316 315 315 314 313 314 315 317 317
324 325 320 320 318 316 317 318 317 318 319 319 320 321 330 337 343 341 338 336 325 325 324 318 318 319 320 321 321 321 322 323 324 325 326 325 324 323 320 317 316 316 315 313 314 315 317 319 319
329 320 326 319 318 316 317 317 317 318 318 318 319 322 336 337 343 343 341 334 326 329 326 319 318 319 320 320 320 320 320 321 321 322 323 322 321 321 320 317 316 316 315 314 315 316 319 320 320
328 321 323 326 322 321 320 320 320 319 318 318 319 325 338 346 345 342 339 332 327 326 325 320 317 318 319 320 320 320 320 320 320 320 321 322 321 321 320 318 316 316 315 315 316 317 320 322 322
323 326 326 324 325 324 325 324 325 321 321 324 323 334 337 337 345 341 338 334 335 333 326 321 318 317 319 320 320 321 320 320 320 320 320 322 322 321 320 319 316 316 315 315 316 319 321 323 324
319 325 331 331 328 329 328 326 324 324 326 324 323 327 338 338 345 340 337 336 336 336 331 323 318 318 321 320 320 321 321 320 320 320 320 320 321 321 322 320 317 316 316 315 316 320 322 324 326
315 319 324 330 331 329 326 324 325 325 325 325 325 328 330 344 345 341 336 335 337 337 333 323 320 320 323 323 322 320 320 320 319 319 320 320 322 323 323 322 319 317 316 315 315 318 321 325 326
312 316 319 322 326 326 322 323 323 324 322 324 325 325 325 343 344 342 338 338 338 337 333 322 320 320 321 324 326 324 323 322 321 321 322 323 323 323 322 321 319 317 317 315 314 317 320 325 326
310 315 320 322 321 321 322 322 321 322 323 324 323 324 324 334 335 339 339 337 335 333 334 329 322 320 321 324 327 325 326 322 321 320 322 323 323 324 324 322 319 318 317 316 315 316 320 321 323
310 311 313 314 316 317 318 318 318 318 319 320 321 322 323 322 336 334 335 340 341 337 334 329 327 323 322 325 324 323 323 323 322 321 322 324 322 322 321 320 319 318 318 318 316 316 317 319 321
309 309 309 310 309 310 313 316 317 318 318 319 320 323 323 322 326 334 336 338 342 345 338 334 330 326 328 326 324 326 324 321 324 321 320 321 320 320 319 320 320 318 319 319 317 317 318 319 319
308 308 308 309 309 310 312 313 315 316 317 318 319 320 322 321 325 334 337 338 341 346 346 342 338 332 325 324 323 324 325 323 324 324 321 321 320 320 320 320 320 320 320 319 318 318 319 320 320
309 308 307 308 310 311 313 313 314 315 316 316 316 320 321 321 322 332 336 338 342 343 345 345 344 340 339 339 338 335 327 331 327 324 323 322 321 322 321 321 321 320 320 320 321 322 325 326 325
308 306 306 307 308 310 312 313 314 314 314 316 316 317 319 320 320 327 334 336 338 341 345 349 348 345 344 338 337 339 339 340 338 333 329 330 329 328 329 327 328 328 326 323 323 324 328 329 329
305 306 308 307 307 307 310 311 311 309 310 311 312 313 315 316 319 323 328 334 336 336 337 341 344 341 339 337 336 336 335 340 342 339 338 338 338 338 337 337 337 336 334 331 328 327 328 330 331
310 308 308 308 308 308 307 309 308 309 310 310 309 310 311 313 314 317 321 326 330 334 335 335 336 339 337 337 336 336 338 342 342 341 340 340 340 340 341 340 340 339 337 335 332 330 330 332 332
309 310 310 310 310 308 308 309 309 309 309 308 308 309 310 311 312 314 317 321 325 329 333 334 335 335 339 341 342 343 344 344 344 343 343 343 343 343 343 342 342 340 338 339 336 333 332 333 334
308 308 310 310 312 311 309 310 309 309 309 308 308 308 309 309 311 313 315 317 323 326 329 330 333 333 333 342 344 345 345 345 346 346 345 346 347 345 346 346 345 343 339 337 336 335 334 334 335
311 313 313 313 313 311 309 311 309 309 309 308 308 307 307 309 309 311 312 315 317 321 323 325 326 327 328 333 344 346 346 346 346 347 346 347 345 341 343 346 346 345 342 340 338 337 335 335 336
310 311 313 314 313 312 311 312 310 309 308 308 307 306 306 306 307 308 310 311 313 316 318 321 323 326 328 330 343 344 344 343 344 344 344 341 341 341 343 345 346 346 344 340 340 339 336 336 336
309 313 313 311 311 311 310 309 310 308 310 309 307 306 307 307 308 308 308 309 312 313 316 318 322 324 328 333 340 343 341 341 341 340 338 337 338 340 338 339 339 341 342 342 341 340 337 337 337
312 311 309 308 308 311 309 310 309 308 309 308 310 313 313 312 312 311 311 313 313 315 314 315 320 325 327 331 337 341 340 340 336 334 333 333 331 331 333 338 341 341 343 343 343 341 341 340 338
307 307 309 311 309 311 310 311 309 308 307 312 314 313 312 311 310 311 311 312 314 316 315 314 316 321 328 331 335 339 339 337 335 332 330 329 331 333 337 341 343 344 345 345 344 343 343 341 339
306 308 309 314 315 312 310 313 311 310 312 314 313 312 311 310 309 309 311 312 314 315 321 321 317 317 322 331 333 336 335 333 330 329 329 330 332 335 335 343 346 346 346 345 344 342 343 342 339
310 311 308 311 311 312 312 312 309 312 313 313 312 312 309 308 308 309 310 312 314 315 315 316 326 317 319 326 331 332 331 330 330 330 330 331 335 337 343 347 347 346 346 345 342 342 342 340 338
308 308 312 311 317 315 313 312 312 311 310 313 312 310 308 308 308 309 310 311 314 313 313 316 324 327 317 321 329 331 330 330 330 331 332 335 338 343 345 346 346 345 343 342 342 341 339 338 337
308 308 311 309 313 315 314 311 308 311 314 312 311 309 308 308 309 311 311 312 312 312 312 320 325 332 320 318 322 327 328 329 331 334 335 338 343 344 345 345 343 341 341 341 340 339 338 338 337
311 311 310 311 311 311 313 312 314 312 310 310 310 310 309 309 310 311 311 312 311 310 318 322 327 334 326 319 323 326 328 333 337 339 342 343 344 345 344 343 341 341 341 339 340 339 338 337 334

GFSSGP_925_thetae_048.txt.gz
Theta_e
322 319 319 318 316 312 316 316 316 319 318 318 318 319 322 322 337 338 338 338 327 325 329 334 336 339 336 334 334 333 333 333 335 335 336 335 335 335 334 333 332 329 325 320 317 314 314 312 311
322 321 319 313 315 314 312 315 317 317 318 316 317 318 319 320 320 334 340 336 326 323 327 331 334 332 332 329 330 330 330 331 331 329 330 330 330 329 329 327 324 320 316 315 314 313 312 312 312
324 326 320 319 313 314 314 314 316 318 316 317 319 318 320 329 340 339 338 334 328 323 327 331 333 327 328 327 326 327 327 328 327 327 328 327 327 325 324 321 318 316 315 315 314 314 315 315 317
324 325 318 321 319 317 316 318 315 315 317 317 318 319 319 336 342 342 339 333 328 324 325 329 332 326 324 323 325 325 324 325 325 326 325 325 325 323 320 318 316 316 316 314 315 316 317 317 318
326 322 325 322 320 317 316 316 315 317 318 317 318 320 322 342 344 342 337 335 330 329 325 329 333 326 324 322 325 323 323 323 323 323 324 324 323 322 319 317 316 316 315 314 315 316 318 318 319
328 320 325 326 321 320 320 318 319 319 318 319 323 323 329 343 342 338 336 334 332 330 326 328 336 326 323 324 323 322 322 322 321 322 323 323 322 321 319 317 316 316 316 315 315 316 318 320 321
326 324 327 326 325 325 325 324 325 322 323 325 322 327 329 335 341 337 335 334 331 332 331 333 335 325 325 325 324 322 322 321 321 321 321 321 321 321 321 318 316 316 316 315 316 317 318 320 321
318 326 331 329 327 328 327 325 324 324 325 323 323 326 326 337 338 337 335 334 335 334 332 332 339 333 325 325 324 324 322 321 321 321 321 321 321 322 322 321 317 316 316 316 316 317 318 320 320
315 319 325 329 329 329 326 325 324 322 324 321 324 325 324 343 337 336 336 336 335 335 335 331 337 330 325 324 325 326 327 325 324 324 324 323 325 325 326 323 320 317 316 316 315 316 317 319 322
313 314 319 321 325 325 323 323 322 322 321 321 322 321 322 341 343 339 336 337 336 334 334 331 332 326 325 322 325 325 329 329 329 328 327 328 326 325 326 325 324 320 317 317 316 315 317 321 323
310 313 318 320 319 319 319 318 318 318 319 322 319 319 320 321 332 337 340 334 334 331 331 330 329 327 322 321 323 324 328 329 328 328 329 332 332 330 330 326 325 323 319 318 317 316 316 319 322
310 310 312 312 312 312 314 314 315 315 316 316 317 317 319 321 322 330 337 339 334 332 331 333 331 329 324 322 322 323 324 327 328 330 332 331 330 332 330 327 326 323 320 319 318 317 317 317 319
308 308 309 309 309 309 310 311 313 313 314 315 316 317 319 319 320 325 334 339 337 335 335 332 334 329 323 322 321 322 324 322 324 326 325 329 329 328 327 325 325 323 319 320 319 319 318 318 318
308 308 308 308 309 309 310 311 312 314 315 315 316 317 317 318 319 327 334 336 340 338 334 330 331 329 324 322 323 320 321 320 320 320 321 323 322 322 323 323 322 321 319 320 321 319 319 319 319
308 308 306 307 308 309 309 311 312 313 315 315 315 314 315 316 318 319 326 334 337 341 340 330 328 329 326 324 321 323 321 322 321 320 321 320 321 321 321 322 321 321 319 320 323 322 322 322 322
306 303 304 306 307 308 310 310 312 309 311 312 313 313 313 313 314 317 319 324 335 338 344 343 337 333 330 325 322 322 322 322 323 324 323 325 324 323 324 324 323 323 322 322 323 323 323 324 324
304 307 307 307 307 307 309 310 310 309 309 310 310 312 311 310 311 312 314 316 322 335 341 346 347 344 339 335 331 326 330 327 334 333 334 339 333 329 327 326 326 327 328 328 328 327 325 325 326
308 309 308 308 308 308 307 307 308 309 309 309 309 310 310 310 310 311 313 315 316 319 331 337 340 348 347 344 341 340 340 339 337 336 335 336 339 336 334 335 334 334 334 333 333 331 330 328 328
308 309 309 309 309 309 309 309 309 308 307 308 308 309 310 310 309 311 312 313 314 316 320 326 333 337 347 341 337 337 337 337 337 337 337 340 341 339 339 338 339 339 337 338 337 334 331 331 331
308 308 310 310 310 310 309 309 309 308 308 308 308 308 308 308 309 310 310 311 313 314 317 321 325 331 334 342 340 339 338 337 338 340 342 342 342 342 341 342 342 341 339 337 337 335 332 332 332
309 311 311 312 312 309 308 307 308 308 308 308 307 306 306 307 307 308 309 310 311 312 313 315 318 323 329 333 336 340 342 342 341 341 342 343 344 343 343 344 344 343 341 340 339 337 335 333 333
309 309 312 312 309 308 309 309 306 308 308 307 306 305 305 304 307 308 310 310 311 314 314 314 315 317 319 325 332 338 341 342 339 338 341 342 344 344 344 346 345 343 343 342 340 339 337 334 334
307 311 311 310 308 309 310 309 306 305 306 306 308 308 305 309 310 310 310 310 312 314 316 316 315 315 317 320 324 329 336 337 336 339 342 343 342 342 343 343 342 343 344 344 342 340 337 335 335
309 309 307 305 306 309 308 308 307 306 306 306 307 308 311 311 310 309 309 310 311 313 316 316 319 319 317 322 324 326 334 336 339 340 341 342 340 341 341 339 341 340 341 342 341 340 339 338 336
306 305 307 307 307 309 307 309 308 308 309 308 308 309 310 309 309 308 307 307 309 311 315 315 318 317 320 319 324 328 333 337 338 338 339 339 337 336 334 333 331 334 337 339 340 341 340 339 337
306 305 307 311 311 308 307 310 309 309 309 310 312 311 310 310 307 306 306 307 309 310 313 315 314 314 318 323 320 324 333 338 338 337 338 337 334 332 330 330 334 336 341 342 342 342 341 341 341
309 308 306 308 308 307 309 309 309 309 309 312 312 311 310 307 306 305 306 307 308 310 312 314 312 315 319 323 325 322 328 333 335 337 337 336 332 329 330 334 334 342 344 343 343 342 342 341 340
308 308 310 308 315 314 310 310 310 309 310 308 309 308 307 307 307 307 306 308 310 310 312 313 312 315 320 324 329 323 321 328 332 334 334 332 329 330 333 335 340 345 345 344 343 342 341 341 339
307 307 309 307 311 313 313 310 307 307 307 307 309 309 307 307 308 307 308 309 310 310 311 312 312 317 321 325 331 325 319 325 329 332 331 330 331 333 336 339 345 345 345 344 343 341 341 339 338
307 308 308 314 312 311 312 312 307 307 308 308 308 309 308 308 308 308 308 309 309 310 311 310 314 318 323 328 333 325 319 325 329 330 330 332 333 337 339 344 345 345 343 341 341 340 338 338 336

GFSSGP_925_thetae_051.txt.gz
Theta_e
321 317 319 320 322 321 321 321 320 322 322 321 320 322 324 325 333 331 341 342 338 334 340 338 343 341 339 340 344 348 349 348 347 346 345 342 340 341 343 340 336 332 331 330 326 319 315 313 312
322 322 319 320 320 320 320 319 321 320 321 321 321 321 322 324 323 326 335 341 336 331 326 347 342 342 339 337 336 338 339 342 342 342 337 336 339 340 336 333 331 328 324 318 315 314 312 312 312
324 327 325 326 321 317 318 318 320 320 320 319 322 322 323 325 331 332 340 338 338 335 325 339 343 343 339 335 333 332 332 333 333 334 332 331 329 330 329 327 324 319 315 315 314 314 314 314 315
324 328 322 324 320 319 318 321 320 319 320 320 322 325 324 343 344 345 343 337 339 341 336 335 342 343 339 335 331 329 329 330 328 327 325 326 325 325 324 322 318 315 315 315 315 316 316 317 317
325 327 324 324 321 320 318 319 319 320 320 323 325 327 329 338 335 342 341 337 339 341 342 337 337 342 338 336 332 329 329 327 324 324 323 323 322 321 320 318 316 316 315 315 316 317 317 318 319
329 327 328 326 322 320 322 322 322 323 323 326 328 329 333 330 340 339 339 337 339 340 342 345 334 337 336 335 332 330 329 325 323 323 321 321 320 319 318 317 316 316 315 315 316 317 318 318 319
329 329 325 326 326 326 325 326 327 327 328 328 327 329 329 330 339 337 337 337 340 340 341 347 345 336 334 332 333 330 329 325 323 323 321 321 320 319 318 317 316 316 316 315 315 316 318 319 320
325 330 327 327 325 326 328 327 327 326 326 325 325 328 328 329 339 339 337 338 340 340 339 344 346 347 347 344 331 331 332 328 324 325 323 322 321 321 320 319 317 316 316 316 315 316 318 318 320
321 325 324 326 327 326 327 326 325 324 324 324 325 325 323 328 339 340 338 338 338 341 342 344 345 347 347 345 342 331 334 333 330 330 329 329 337 332 328 324 320 317 316 316 316 317 317 319 321
318 319 321 324 325 326 326 325 323 323 323 322 323 322 321 319 336 340 339 337 336 337 341 342 345 345 346 346 346 337 337 341 342 342 343 343 345 344 340 335 324 320 318 317 317 319 319 324 332
314 317 319 321 321 321 323 322 320 320 321 322 320 320 320 319 324 327 339 338 336 335 338 341 344 342 343 343 345 346 345 346 345 341 341 344 343 333 338 339 333 328 326 330 329 331 331 332 334
312 312 312 316 314 314 317 314 315 317 318 317 317 317 318 321 323 326 326 338 337 335 335 339 340 340 339 343 344 344 339 338 338 329 330 335 335 331 339 340 339 335 335 334 332 332 333 333 332
311 311 311 312 311 312 312 314 315 314 314 314 316 318 320 321 323 324 329 333 340 335 334 336 339 339 336 340 337 336 336 331 328 326 329 329 328 331 335 336 335 334 335 333 332 331 331 332 331
310 311 311 311 312 312 312 313 313 314 315 314 315 317 318 319 319 321 329 334 339 340 336 330 333 337 334 333 334 332 327 326 328 327 327 326 326 328 331 332 335 335 332 331 332 332 330 331 330
310 311 310 310 310 311 311 312 312 313 314 315 316 316 317 317 317 319 320 326 332 340 342 339 332 328 329 325 328 330 333 329 324 323 321 325 323 324 328 333 335 334 326 323 324 327 330 331 330
310 308 310 311 310 310 311 311 312 311 312 313 313 314 314 315 316 316 316 318 323 330 342 343 338 333 327 325 326 327 326 325 322 324 324 320 322 321 322 326 330 330 326 324 327 331 331 331 330
310 311 311 311 310 312 311 312 313 311 311 312 313 313 314 315 316 316 314 317 317 317 334 344 344 338 329 332 330 325 326 323 323 323 321 324 325 326 326 328 329 327 327 328 330 331 332 332 333
310 310 311 311 311 312 312 312 312 311 311 312 312 312 313 314 315 315 315 314 315 316 318 330 344 345 341 335 333 333 332 327 326 326 326 323 327 329 333 334 334 331 328 332 332 333 334 334 335
310 311 311 311 312 311 311 311 311 311 312 312 313 313 314 314 314 313 314 314 315 316 316 320 330 341 346 346 343 341 338 335 335 331 329 332 334 335 335 334 333 334 334 335 335 336 336 337 336
311 311 311 311 312 311 310 310 311 310 312 312 313 313 313 313 313 314 313 315 316 316 314 315 319 322 330 340 344 344 342 342 340 340 339 337 337 337 338 339 339 338 337 337 337 337 339 338 337
311 310 311 310 311 311 311 309 310 310 312 312 312 313 313 313 313 313 315 316 317 317 316 316 315 315 316 325 340 343 343 342 344 343 342 339 340 340 341 341 341 340 339 340 339 339 340 342 338
309 310 311 310 310 310 310 309 310 310 310 311 312 313 313 313 313 313 317 316 316 316 314 315 316 316 316 316 330 339 342 344 343 343 343 344 341 342 342 341 342 341 342 342 341 340 340 340 341
309 310 311 311 311 311 310 311 311 310 310 310 311 311 311 312 312 315 316 314 313 314 315 313 316 316 317 319 321 330 336 337 341 343 343 341 342 342 341 342 343 343 344 342 341 340 340 340 340
311 311 311 310 311 311 311 311 310 310 310 311 311 312 312 313 315 316 314 313 313 313 314 315 317 316 316 318 321 326 330 336 338 340 340 342 344 346 342 344 345 344 343 341 341 341 341 341 340
311 312 311 309 311 310 312 311 311 311 311 311 312 313 314 314 315 315 314 313 313 313 315 316 316 320 319 317 317 322 323 327 334 334 335 337 340 341 339 342 344 343 340 340 339 341 341 340 341
311 312 311 310 310 310 311 312 311 311 311 312 314 315 316 316 315 314 314 312 312 313 314 316 316 318 318 318 318 321 325 331 332 331 333 336 338 339 338 340 341 338 333 332 339 341 341 342 342
311 311 310 313 312 314 312 311 311 311 312 313 313 313 314 315 314 314 313 312 312 313 314 315 316 317 318 317 321 322 325 330 334 336 335 338 338 339 339 336 334 331 332 339 342 343 343 343 342
311 311 314 315 316 315 312 312 312 312 312 311 312 313 314 314 314 314 313 312 311 312 313 315 316 316 317 317 321 324 327 331 329 336 338 336 337 337 335 331 332 333 340 345 344 345 344 344 343
311 313 312 313 314 316 315 313 312 312 311 312 312 312 313 313 313 313 312 311 312 312 313 314 315 316 316 318 322 325 326 330 331 332 335 336 337 337 332 334 337 342 346 346 345 345 344 343 341
311 313 313 316 316 314 315 314 312 312 312 313 312 312 312 313 313 312 312 312 313 312 313 314 315 315 315 319 322 326 329 330 331 331 333 335 337 335 337 340 342 345 346 346 345 345 342 341 339

GFSSGP_925_thetae_054.txt.gz
Theta_e
327 321 322 325 324 323 326 325 323 324 325 325 325 326 329 331 335 337 343 343 338 339 348 341 342 343 344 344 348 349 349 349 348 347 345 344 343 340 338 340 339 336 333 333 328 323 317 314 312
326 323 323 323 322 324 326 324 323 323 323 323 325 326 326 329 329 329 333 343 338 342 349 345 341 341 344 345 347 348 349 349 349 347 345 344 342 341 339 338 335 332 329 326 321 315 313 311 310
326 327 324 322 322 321 323 322 323 322 322 324 326 326 327 330 336 339 345 343 340 344 348 346 337 340 343 347 347 348 349 349 348 345 344 340 339 338 334 332 329 326 323 319 315 313 312 313 313
327 326 323 324 321 321 319 321 323 323 322 324 327 329 328 333 334 337 338 344 341 344 345 349 332 339 341 347 348 348 349 347 344 343 337 335 333 331 327 326 324 320 316 316 315 315 315 316 316
326 327 326 327 324 321 320 321 321 321 322 322 328 331 332 335 332 342 344 344 341 343 342 351 332 337 339 341 346 345 344 341 341 336 331 330 327 325 324 321 319 316 316 316 316 317 317 318 318
328 327 329 328 326 323 323 324 324 326 325 324 328 330 334 331 332 342 342 344 341 341 340 350 338 337 338 338 339 340 339 338 336 332 327 325 324 323 322 319 317 316 317 316 317 318 318 319 320
330 328 328 327 327 327 327 326 326 327 328 327 329 331 332 329 332 341 342 342 341 339 340 349 348 343 338 336 337 338 338 336 335 332 327 325 324 323 320 318 316 316 317 316 316 317 318 319 320
326 328 329 327 327 327 327 328 327 328 327 327 328 331 330 328 329 339 342 341 340 339 339 345 346 347 347 343 336 336 337 336 335 331 329 327 326 325 323 319 317 316 317 316 316 316 318 319 320
322 328 329 328 328 327 327 327 327 327 327 327 327 327 327 324 323 335 343 341 341 339 338 342 344 345 344 341 344 339 335 335 335 335 332 328 337 336 334 328 328 317 317 317 317 316 317 319 321
322 326 326 326 326 327 327 328 327 325 327 327 327 327 325 324 323 326 331 343 340 340 338 341 343 344 343 339 342 345 345 344 344 343 343 341 339 340 337 336 328 322 317 318 318 319 320 322 329
319 323 323 323 324 325 326 326 326 324 325 326 327 325 324 322 323 325 329 335 338 338 339 340 344 345 343 339 341 343 342 343 343 344 345 343 342 344 342 339 340 335 328 331 330 331 331 331 331
317 319 320 321 322 320 322 323 323 322 321 320 321 320 320 322 324 325 328 329 340 337 337 340 343 346 346 342 343 342 341 342 343 343 346 345 345 345 342 339 338 339 335 335 333 333 333 333 333
314 316 316 316 316 317 318 319 319 320 319 317 317 319 320 321 322 322 325 332 333 340 337 337 341 345 347 346 342 342 341 342 342 343 345 344 343 342 341 340 339 338 337 336 336 334 333 334 334
314 314 314 315 315 316 315 316 316 317 317 316 317 318 319 320 321 320 322 328 335 332 340 338 338 342 346 347 344 344 344 342 343 341 343 346 342 342 339 341 340 338 337 335 335 334 333 333 332
313 313 313 314 314 314 314 314 315 316 316 316 316 319 319 319 319 320 321 324 328 331 334 343 339 341 344 345 345 343 342 341 341 341 342 343 345 343 343 340 339 337 337 339 338 336 334 333 332
313 313 313 313 312 313 313 313 315 315 315 316 316 315 318 319 318 319 319 321 323 328 333 345 343 341 343 342 342 339 336 338 338 338 338 342 343 342 343 338 337 336 337 336 336 334 334 333 334
314 313 314 314 314 314 314 314 315 315 315 315 316 315 316 317 318 318 318 319 321 323 329 338 347 343 341 343 341 338 336 336 333 335 333 336 340 338 338 334 329 334 337 336 335 334 335 336 338
315 314 314 314 315 314 314 315 315 315 315 315 315 316 315 315 316 316 317 318 318 322 326 327 342 333 344 343 342 339 337 336 335 334 331 335 335 336 333 334 329 332 337 335 337 338 339 339 340
312 313 313 314 313 314 314 315 315 315 315 315 316 316 316 316 315 315 316 318 318 322 324 326 333 340 343 348 342 339 337 335 334 333 333 329 335 336 328 331 330 336 338 334 338 342 342 343 343
312 313 314 313 313 312 313 313 314 314 314 314 316 316 316 316 316 316 315 317 320 322 324 325 326 330 344 351 349 347 344 341 337 336 336 337 336 333 333 337 336 341 340 340 344 344 344 344 345
312 313 313 312 312 312 313 314 313 313 313 314 314 315 316 316 316 316 316 316 319 320 321 322 325 326 327 334 342 347 347 348 347 345 343 341 335 334 337 339 338 344 345 345 347 346 345 345 346
312 311 310 311 313 313 313 313 313 313 313 313 314 314 315 315 315 315 316 315 318 318 318 320 323 326 325 327 329 338 342 343 345 346 347 347 348 345 344 345 346 348 348 346 348 347 347 347 346
311 311 311 312 313 314 314 315 314 313 313 313 313 313 314 314 314 315 315 316 317 317 317 319 321 324 326 328 330 330 339 339 342 344 346 350 350 350 347 348 349 350 349 347 348 348 348 346 345
312 311 313 314 314 314 314 314 313 314 314 313 314 314 314 315 315 317 316 316 316 316 316 318 320 321 325 327 328 331 333 336 337 339 341 345 347 350 350 349 350 351 350 350 350 349 347 346 345
312 314 314 313 315 313 314 314 314 314 314 314 314 314 314 316 316 317 316 316 315 315 316 317 317 320 321 324 325 326 331 334 337 341 340 340 339 341 345 350 350 351 351 351 350 349 347 347 346
314 314 314 313 313 313 314 315 317 314 314 314 314 315 315 316 317 317 317 317 316 315 315 316 317 318 320 321 324 324 327 330 333 334 334 335 338 337 341 349 350 351 351 350 350 347 345 345 346
314 314 313 314 314 316 315 315 315 315 314 314 314 314 315 315 316 316 316 316 316 315 315 315 316 317 319 320 322 324 326 330 331 333 336 337 336 337 339 345 349 350 350 350 347 343 346 346 346
313 313 314 315 317 316 315 316 316 316 315 314 314 314 314 315 316 315 315 315 314 314 314 315 317 318 319 321 321 322 323 328 332 336 338 340 340 341 340 346 348 349 347 345 346 345 348 347 348
314 313 313 315 318 320 318 315 316 315 315 315 315 314 315 315 315 315 315 315 314 314 314 314 316 318 318 319 320 321 323 326 329 333 337 338 343 343 343 345 346 346 345 346 347 348 349 349 349
313 314 315 319 318 316 316 316 315 315 315 315 315 315 315 316 316 316 316 315 314 315 315 316 316 318 317 317 318 319 322 326 330 332 336 337 339 342 343 344 344 343 343 347 348 349 348 349 348

GFSSGP_925_thetae_057.txt.gz
Theta_e
325 325 321 323 326 325 330 330 328 326 326 328 331 332 334 335 338 341 341 341 338 348 347 342 335 340 344 348 346 345 344 344 342 341 342 341 341 339 339 338 337 334 332 331 329 324 320 317 314
326 325 324 325 324 328 328 330 327 327 326 326 327 329 330 333 335 334 343 343 338 349 349 347 334 338 341 347 347 347 346 347 344 344 343 342 341 337 336 337 336 331 330 327 323 318 314 312 311
326 325 328 325 324 324 327 326 327 325 324 325 326 327 330 333 337 337 339 344 341 349 349 348 337 334 340 346 348 348 348 349 346 345 344 341 340 336 336 336 331 328 326 322 317 314 312 312 311
327 328 326 326 326 325 324 325 324 325 324 325 327 329 328 333 335 335 342 343 344 346 349 350 339 330 338 343 349 348 348 349 348 346 344 339 337 337 336 332 327 325 320 316 315 314 313 314 314
326 328 330 330 328 325 323 323 323 323 324 324 325 328 330 335 332 336 344 343 344 344 347 350 337 335 335 340 347 349 349 349 348 346 343 337 335 336 332 327 324 321 316 316 316 316 316 317 317
330 330 331 331 329 328 325 322 323 325 326 325 325 328 331 334 331 338 345 345 343 343 345 354 337 339 334 337 345 349 350 350 349 347 343 339 336 334 328 325 321 317 316 316 317 317 318 318 320
327 331 332 330 330 330 328 325 325 326 327 327 327 329 332 332 328 337 346 345 344 343 344 354 345 344 337 335 340 349 350 350 348 347 344 341 336 330 327 324 320 317 317 318 318 319 319 319 320
325 328 330 331 331 329 329 328 327 327 328 329 328 330 332 330 327 330 345 344 345 342 342 349 345 347 347 345 339 342 347 348 347 345 343 340 334 329 327 324 320 317 318 320 320 319 319 319 321
323 326 328 329 330 330 329 329 328 328 329 328 328 328 329 327 327 327 332 345 344 343 340 346 343 346 344 342 346 338 339 342 343 343 340 336 339 337 336 329 331 318 319 321 322 321 318 319 320
323 325 325 326 327 329 330 329 329 328 329 329 328 328 328 327 326 327 330 339 344 343 341 343 345 345 344 340 344 344 344 344 345 344 344 342 339 339 336 335 329 330 320 322 322 322 321 320 328
322 324 323 324 326 327 327 328 329 330 329 328 328 328 328 327 325 327 328 332 339 344 341 340 345 346 343 339 342 343 341 342 344 344 344 343 339 339 340 338 337 336 331 332 330 333 332 330 331
321 322 323 323 324 325 326 327 327 328 329 326 325 325 325 325 325 326 327 329 336 340 342 339 345 346 345 340 340 343 339 342 342 343 344 345 342 342 344 340 341 341 337 337 333 335 335 335 334
319 321 322 322 322 323 324 324 324 325 325 324 321 321 322 324 324 324 325 328 332 335 340 341 342 348 348 347 341 342 339 341 341 341 344 345 344 343 346 343 340 339 340 338 339 336 335 336 336
318 318 319 320 320 321 320 320 321 322 322 321 321 320 322 324 324 323 323 324 332 335 337 339 341 345 348 349 348 344 343 340 342 342 343 347 345 345 344 343 342 340 339 338 337 338 337 336 336
316 316 317 317 318 319 319 319 319 320 321 320 320 321 321 322 323 323 323 324 326 332 334 341 342 341 348 350 349 348 344 344 343 343 343 346 347 344 344 342 342 340 339 339 338 339 337 336 335
315 315 316 316 316 316 316 316 318 319 319 319 319 320 320 322 324 322 321 323 325 327 331 334 341 342 343 348 350 349 346 345 343 344 343 344 348 344 344 342 341 340 338 339 341 341 337 336 337
316 316 316 316 316 315 315 316 317 318 318 318 319 319 320 321 323 322 321 321 324 326 329 341 345 344 347 346 347 347 345 343 343 341 342 344 345 346 344 344 341 340 337 339 340 339 338 339 339
317 318 316 317 317 316 316 317 317 318 318 318 318 319 319 319 320 320 321 320 321 324 327 332 341 340 339 346 347 346 344 342 339 338 338 337 341 343 344 343 341 338 338 339 340 339 340 341 341
316 317 317 317 317 316 317 318 317 318 318 318 318 319 318 319 319 318 319 319 320 324 326 328 331 347 335 339 345 346 344 341 340 339 337 337 339 341 341 343 340 338 336 341 340 341 342 344 344
314 315 316 316 316 316 316 317 317 317 317 318 318 318 318 319 319 319 317 318 321 323 326 328 329 330 344 343 340 343 343 339 338 337 336 337 337 340 340 338 337 337 340 343 344 343 344 347 346
314 315 316 316 316 315 315 316 317 317 317 317 317 317 318 319 318 319 319 318 319 322 324 324 327 330 331 339 348 349 348 348 348 342 339 338 338 339 335 337 328 336 340 345 346 346 348 346 346
314 315 314 313 314 316 316 318 317 316 316 316 316 316 317 318 318 318 318 318 318 320 320 321 324 327 329 329 331 338 345 346 347 350 348 344 343 343 342 339 332 334 344 347 348 350 350 350 347
314 314 313 313 314 316 316 317 317 318 317 316 316 316 316 317 317 317 317 316 317 319 320 321 322 325 327 330 332 331 337 344 341 336 338 348 349 349 346 343 343 346 347 349 350 352 353 350 348
313 313 314 314 315 317 317 317 317 318 317 316 316 316 316 316 316 317 318 318 317 317 318 318 320 322 324 328 330 333 333 336 339 342 343 337 340 341 334 349 349 351 352 352 353 352 353 351 350
314 315 316 317 318 318 317 316 317 317 316 316 316 316 316 317 318 318 319 318 316 317 317 317 318 319 321 323 325 328 329 333 337 337 341 341 337 344 354 354 352 353 356 354 353 354 353 353 351
314 317 317 318 319 316 318 317 319 317 317 316 316 317 317 317 318 318 318 318 317 317 316 316 317 318 319 320 322 324 326 327 328 332 335 337 342 344 344 354 351 354 354 355 354 354 354 352 351
314 315 315 316 316 317 317 317 316 318 317 316 317 316 316 317 318 318 318 317 317 317 317 317 317 317 318 319 321 323 325 327 328 330 336 335 336 339 340 352 354 354 353 354 354 354 353 350 350
315 315 319 318 316 315 315 316 317 318 318 317 316 317 317 317 317 317 317 317 316 315 316 316 317 317 317 319 321 321 322 324 326 331 335 337 339 339 337 344 350 353 353 354 354 354 352 349 348
316 315 315 315 320 324 319 317 318 319 318 317 316 317 317 317 317 317 317 317 317 316 316 317 316 317 317 318 320 320 321 323 324 328 332 335 340 343 347 341 345 351 353 354 355 350 346 348 350
314 315 317 317 316 315 317 317 317 317 318 317 317 317 317 318 317 317 317 316 316 316 316 316 316 316 317 318 319 319 320 321 323 327 330 334 339 342 344 345 346 348 352 353 352 349 344 350 349

GFSSGP_925_thetae_060.txt.gz
Theta_e
318 326 325 323 325 325 328 330 331 330 327 328 332 333 332 335 339 353 343 344 350 347 344 339 339 339 346 348 345 339 339 339 338 340 340 339 341 341 341 339 336 334 329 331 328 322 319 317 314
320 326 326 325 326 326 329 330 330 329 326 327 328 330 332 338 341 345 346 342 351 348 341 343 340 337 343 347 345 341 341 341 340 341 341 340 340 337 338 335 333 328 327 327 321 318 315 313 311
323 328 327 327 324 325 328 329 327 325 325 325 326 328 330 338 337 337 342 343 352 350 341 345 341 338 339 346 346 344 343 343 341 342 342 341 339 334 335 333 329 324 323 320 317 314 312 311 310
325 328 328 327 328 324 325 326 325 325 325 325 326 328 328 334 335 336 342 344 350 352 347 347 340 340 336 341 347 347 346 346 344 344 343 341 338 333 333 331 326 323 321 318 315 313 313 313 313
324 327 330 331 328 327 326 325 324 324 325 325 325 327 331 334 332 336 343 343 343 352 348 347 339 339 334 339 345 349 348 348 346 345 344 341 338 334 332 329 325 322 318 315 315 315 315 316 316
324 328 331 330 330 330 328 325 323 323 324 326 325 325 331 332 329 333 344 344 342 348 349 349 336 340 335 337 340 348 349 350 348 347 345 341 339 337 333 328 324 320 316 316 316 317 317 318 319
323 327 331 331 330 330 330 326 325 323 325 327 328 325 330 331 329 328 342 344 344 345 350 351 337 341 340 335 338 343 349 350 350 349 346 343 340 339 334 327 323 319 317 317 317 318 318 318 319
322 326 328 330 331 330 330 327 326 325 327 328 329 329 332 330 328 328 330 344 344 343 349 355 346 343 349 341 340 341 346 350 350 350 347 345 342 340 332 327 322 318 317 318 319 318 319 319 320
321 324 326 325 327 330 329 329 328 327 327 327 328 328 328 328 327 327 328 337 344 344 347 353 347 349 350 351 345 343 345 348 349 348 347 344 342 337 332 327 326 318 317 318 319 320 319 319 321
321 322 322 323 324 326 328 329 329 329 328 329 329 328 327 327 328 326 328 331 345 345 344 348 345 347 347 345 347 344 345 346 346 345 344 342 338 340 337 334 327 330 323 319 320 320 319 321 321
320 323 322 322 323 324 324 326 329 329 330 329 329 329 328 328 328 327 327 330 335 338 342 347 344 346 345 343 345 345 345 344 341 343 343 340 339 340 339 337 335 331 329 326 322 320 319 320 324
319 321 322 323 323 323 324 324 326 328 330 330 329 328 328 326 326 326 327 329 330 337 340 347 344 345 344 343 345 344 345 342 344 338 343 345 339 338 342 339 339 339 338 333 329 334 334 334 333
317 319 320 322 323 323 323 323 324 326 328 328 328 327 326 325 326 325 324 328 330 335 340 347 348 348 344 345 345 345 342 344 344 344 343 346 342 344 341 345 341 344 341 339 337 334 337 336 335
318 319 320 320 321 322 322 322 323 324 325 325 324 324 323 322 323 325 325 325 331 333 335 341 347 347 346 344 348 349 340 343 343 344 344 342 347 339 346 344 345 342 343 341 340 339 338 338 338
317 317 318 318 319 320 321 321 322 322 321 321 322 324 323 322 322 325 324 325 333 333 335 338 346 345 346 343 348 349 348 341 343 342 344 344 342 347 345 346 343 343 340 340 339 340 341 339 338
316 316 316 316 317 318 319 320 321 321 321 321 321 322 322 322 323 322 323 324 325 333 330 332 342 350 348 345 342 344 349 346 346 343 346 347 345 346 348 346 344 343 342 340 341 338 338 339 338
316 317 316 316 317 317 317 317 317 318 319 320 321 322 320 322 323 322 324 323 325 327 332 329 337 346 346 347 343 343 346 349 347 346 344 347 349 347 345 348 344 344 342 341 340 342 342 341 339
316 317 317 317 318 316 316 316 317 317 318 318 319 319 320 321 322 323 323 323 322 326 330 336 344 348 344 341 342 342 347 347 346 345 344 345 346 347 345 343 347 344 342 340 338 342 342 341 340
316 317 317 319 319 318 318 318 318 318 319 319 320 321 321 322 322 321 322 321 321 324 327 331 340 341 350 348 348 348 348 345 342 342 341 340 339 343 348 348 345 345 342 339 339 338 340 339 344
317 317 317 317 318 317 317 317 318 318 320 320 321 321 321 321 321 323 321 320 321 326 327 330 331 340 343 344 346 346 347 347 345 343 342 338 340 340 344 345 345 343 340 336 336 340 342 344 342
316 315 315 315 316 317 317 317 317 317 318 319 320 321 321 322 322 323 324 322 321 323 326 327 330 332 339 347 341 339 342 344 345 344 341 339 338 336 338 344 343 341 338 336 341 344 344 345 347
315 315 315 315 316 316 316 318 318 319 319 320 320 320 320 320 321 323 323 324 322 324 324 323 325 328 331 332 341 348 349 346 342 343 348 342 340 339 338 339 340 339 336 340 338 345 346 347 346
314 315 315 314 315 315 315 316 317 318 318 318 318 317 317 318 319 320 321 319 320 319 321 321 321 326 328 332 333 335 341 344 340 339 340 346 346 346 341 342 343 342 340 342 345 345 350 350 351
315 315 315 315 315 317 315 316 317 318 318 318 318 317 316 316 318 319 319 318 319 319 320 319 323 322 323 327 330 331 332 337 342 343 337 336 337 336 334 342 345 341 338 337 346 349 349 354 354
314 316 315 317 318 319 317 318 319 319 318 318 318 317 317 317 318 318 321 320 318 318 317 318 319 321 322 322 324 326 330 330 331 338 340 343 338 335 332 331 336 332 334 331 331 332 340 358 354
315 316 318 320 322 321 319 323 319 319 318 317 317 316 316 317 319 319 321 322 319 318 317 317 318 319 319 320 322 322 324 328 329 328 329 334 343 344 341 331 334 335 332 332 331 337 350 356 357
318 315 315 319 320 322 318 319 321 319 318 317 317 317 317 318 320 320 321 320 319 318 318 318 317 317 317 319 320 322 322 325 326 328 327 330 338 339 339 341 340 338 335 344 348 350 356 357 356
317 316 317 319 322 319 316 317 317 321 320 318 317 317 317 318 318 319 318 319 319 318 317 317 318 317 317 316 319 320 322 324 326 327 327 327 328 329 337 337 338 349 349 353 355 357 357 356 355
318 317 316 319 322 326 322 320 321 321 321 320 318 317 317 318 317 317 318 318 318 317 317 318 319 320 318 316 320 320 321 323 323 325 326 327 331 334 337 331 344 345 355 356 356 357 356 355 354
315 317 318 322 322 318 319 318 319 320 319 320 320 318 317 317 318 318 318 318 317 317 317 317 318 319 318 319 319 319 319 321 324 322 322 329 330 334 337 341 341 346 344 353 355 357 356 355 352

GFSSGP_925_thetae_063.txt.gz
Theta_e
321 321 325 324 320 320 321 324 325 327 326 324 325 335 344 341 347 348 345 347 333 336 339 345 344 344 346 345 339 337 337 337 337 338 337 337 339 340 338 336 334 330 328 326 322 318 316 314 312
321 323 327 322 321 321 321 323 324 321 322 322 324 326 340 341 344 342 348 344 327 329 337 345 345 345 346 346 339 338 338 338 339 339 337 337 338 339 336 331 328 325 325 322 318 315 313 312 311
320 323 325 323 319 321 322 323 323 322 321 321 324 326 334 337 336 340 349 346 330 330 334 342 346 345 345 345 340 339 339 339 340 340 338 337 334 336 332 329 326 323 322 319 315 313 312 311 310
320 323 325 325 324 323 322 322 320 321 321 322 322 328 333 335 336 340 349 349 342 329 331 340 345 345 342 344 342 341 341 340 341 341 338 336 332 333 331 326 322 321 319 316 314 314 314 314 312
317 320 325 327 325 324 324 324 322 321 320 321 323 326 333 334 337 341 344 350 349 336 330 338 342 345 343 343 343 343 343 342 342 342 339 338 333 333 332 325 322 320 317 316 315 315 316 317 316
316 319 325 327 326 327 327 323 322 322 321 321 322 323 331 328 328 338 344 345 351 346 337 335 340 343 344 342 344 345 346 344 343 343 341 339 335 334 331 326 322 319 316 316 316 316 317 318 318
315 318 321 325 328 328 328 323 321 320 322 322 326 328 329 326 328 328 341 343 350 349 344 334 338 341 343 343 343 346 346 347 345 345 343 340 337 335 331 327 323 319 316 316 317 317 317 318 319
316 316 320 322 325 328 327 325 321 321 322 324 328 328 330 327 327 327 327 338 348 349 347 339 334 340 342 346 345 345 346 348 348 347 344 341 338 336 333 328 324 320 317 317 317 317 317 318 318
315 317 318 320 324 324 324 324 322 322 324 325 327 327 328 327 327 327 326 329 348 352 349 344 333 340 343 347 347 346 346 346 347 348 346 342 339 337 333 328 324 320 317 317 317 317 317 317 317
313 316 317 319 320 321 321 321 322 325 325 326 327 327 327 327 325 325 325 326 339 353 352 347 334 337 345 347 352 348 346 347 347 347 346 343 339 336 332 327 324 322 319 317 317 317 318 317 318
313 315 317 319 319 319 320 321 321 324 325 326 326 327 327 325 323 324 325 331 335 339 346 348 339 333 342 350 344 349 348 347 347 344 342 340 337 333 335 329 332 328 325 324 322 318 318 318 318
312 315 317 318 320 320 320 320 321 322 328 327 328 327 327 323 322 322 324 328 331 336 343 346 346 334 337 347 344 343 347 346 344 341 337 336 334 332 336 338 336 336 336 336 332 326 322 327 333
312 314 316 317 319 319 319 321 321 320 328 327 326 326 326 323 323 322 323 327 326 334 342 345 346 344 337 344 344 341 338 342 339 337 335 331 330 328 338 340 338 338 338 341 339 334 334 333 334
313 313 314 315 314 316 319 319 319 320 321 324 324 324 323 322 320 321 321 325 330 334 344 344 346 345 344 344 346 342 340 335 337 337 335 335 331 329 335 342 343 340 341 343 341 339 337 337 335
313 313 313 314 315 316 316 317 319 319 319 320 319 319 321 320 320 319 321 324 331 330 338 348 347 345 343 349 350 349 342 344 341 339 337 335 339 338 340 340 341 344 346 345 343 342 341 339 339
312 313 313 312 314 315 316 316 317 318 318 319 319 318 318 319 319 320 321 324 331 330 335 340 349 348 344 343 345 347 349 346 343 342 342 341 339 339 341 341 347 344 342 341 341 341 341 339 339
311 311 312 313 314 314 314 315 316 317 316 315 316 318 318 317 319 321 321 327 333 331 329 332 338 349 346 343 342 343 347 348 348 343 344 345 343 341 345 346 346 346 343 342 342 342 341 340 338
312 312 313 314 315 314 314 314 315 315 315 314 317 317 318 319 319 320 327 327 328 327 328 329 341 349 348 345 340 337 345 345 346 347 347 350 348 344 343 345 345 346 344 344 343 342 339 342 342
313 314 314 315 316 316 313 314 316 316 316 315 314 315 316 317 318 320 325 324 325 325 325 324 329 340 352 349 345 347 346 346 345 345 345 345 344 350 347 345 344 344 344 343 343 341 339 340 341
315 315 315 315 315 314 314 317 316 316 316 315 315 316 315 316 316 318 321 322 322 322 324 327 325 331 345 350 348 346 345 344 343 344 343 344 343 341 346 345 344 344 345 345 343 341 339 340 339
313 314 314 314 314 314 314 315 316 316 315 314 315 314 316 315 316 317 319 322 324 326 327 328 329 330 332 344 347 346 346 343 343 342 341 335 337 336 338 343 346 344 342 343 339 339 337 340 342
312 314 314 314 314 313 315 314 314 315 315 315 315 315 314 316 317 316 317 320 320 323 327 325 327 330 332 332 342 345 343 346 345 345 344 343 341 340 340 340 342 344 345 343 339 338 337 343 346
313 314 313 315 313 312 312 312 313 314 314 314 315 315 314 313 314 316 318 321 323 323 323 321 320 321 323 329 333 341 346 342 343 343 343 344 342 337 340 340 340 343 343 341 339 337 339 343 348
315 315 314 313 311 312 313 313 313 313 314 315 315 314 314 313 314 315 316 319 319 323 321 320 320 322 321 325 328 331 335 339 343 343 342 341 343 345 345 341 342 341 341 341 340 340 345 345 342
314 313 313 314 314 314 313 316 314 314 315 315 315 314 312 313 313 315 315 314 317 318 320 321 321 321 321 322 322 323 327 329 332 333 337 337 340 340 338 339 340 337 339 342 342 335 342 332 330
322 320 316 318 320 319 318 323 321 319 318 316 314 313 314 312 313 314 315 314 316 318 317 319 319 321 321 322 320 324 322 324 326 327 326 327 328 329 336 339 335 336 332 335 337 333 335 332 330
321 320 318 317 314 319 318 318 317 317 319 316 315 314 314 313 314 314 315 315 316 317 317 318 317 317 317 317 317 319 319 320 320 323 325 329 328 333 338 339 340 337 334 334 333 333 332 333 332
318 318 321 321 323 321 319 319 316 322 320 318 317 315 314 315 314 315 315 315 317 318 317 317 317 317 317 316 316 316 317 318 320 320 322 323 323 323 323 329 335 339 339 339 335 336 334 336 335
316 319 320 320 322 320 322 319 319 320 319 317 316 316 314 314 313 313 312 315 318 317 316 317 319 321 317 316 316 316 315 316 318 320 323 323 324 325 325 325 332 333 333 340 344 341 338 340 343
315 319 318 323 323 320 316 317 318 318 318 319 317 316 316 314 312 312 311 313 315 316 316 316 316 316 317 319 320 318 317 317 319 322 323 321 322 324 326 330 334 337 339 342 346 342 344 349 351

GFSSGP_925_thetae_066.txt.gz
Theta_e
320 321 326 323 319 316 320 323 324 323 320 321 334 341 341 341 343 344 344 346 342 340 345 348 348 344 340 336 336 336 335 334 334 334 335 336 337 337 336 336 333 327 324 322 319 316 314 312 312
319 320 326 319 318 319 321 322 322 320 319 319 331 339 344 346 344 347 348 346 334 336 344 346 348 345 341 337 337 337 336 335 335 334 334 336 337 336 332 330 326 324 321 318 316 314 312 312 312
317 321 324 321 317 320 321 321 319 319 319 319 322 332 335 337 339 346 347 343 334 340 340 342 346 346 342 337 337 337 337 337 336 334 332 335 336 332 327 326 323 321 319 317 314 313 312 312 313
315 319 321 324 324 322 322 322 321 320 320 319 322 334 333 334 335 347 340 333 335 338 341 341 345 346 343 338 338 338 338 338 337 334 331 332 333 329 327 324 322 320 318 315 315 314 314 314 313
315 315 322 324 324 322 324 323 322 320 320 319 323 333 333 333 342 347 341 333 331 337 341 340 344 347 344 339 339 340 339 340 338 335 331 329 330 328 326 324 322 319 317 316 316 316 316 316 315
313 315 322 324 324 326 325 324 321 321 320 320 326 329 328 327 340 348 347 335 330 330 337 339 343 346 345 340 340 340 340 341 340 337 334 330 330 329 327 324 322 319 317 316 317 317 317 318 318
312 314 318 322 324 325 326 324 321 320 321 323 324 328 327 325 326 335 349 346 335 338 336 339 342 344 345 342 341 342 341 341 342 339 336 333 332 331 329 325 323 319 317 317 317 317 317 318 318
312 312 317 317 320 321 322 323 321 318 320 323 327 329 327 325 326 327 332 349 343 338 338 340 341 345 347 344 343 344 343 342 342 341 337 336 334 332 331 326 323 319 317 317 317 317 317 317 318
314 313 316 317 318 319 320 322 321 320 322 323 327 327 327 326 327 326 343 348 350 351 347 347 343 344 350 347 346 345 346 343 343 341 339 337 335 333 329 325 322 319 317 317 317 317 317 317 317
310 310 314 316 317 318 318 319 318 319 320 323 325 325 326 324 325 324 336 349 352 351 349 347 351 347 347 352 351 348 348 347 345 343 339 336 334 332 328 324 322 320 318 317 317 317 317 317 317
310 313 313 314 316 317 318 318 317 319 319 321 326 325 324 322 320 322 334 351 351 351 349 342 346 350 347 349 353 353 351 349 347 343 339 336 333 331 328 325 322 320 320 320 320 319 318 318 318
309 311 312 314 315 316 318 318 319 319 321 323 324 324 322 321 321 320 326 339 348 352 351 347 340 344 346 347 350 352 351 349 348 346 341 337 333 330 328 326 323 323 325 328 331 332 330 325 323
309 310 311 313 314 315 316 318 318 319 320 322 324 325 324 319 321 323 321 328 339 343 347 350 345 341 347 343 339 342 345 346 347 346 345 338 333 328 326 326 331 329 331 334 337 338 337 333 334
311 311 311 311 311 311 314 316 317 318 320 326 325 324 323 321 320 321 321 321 332 341 344 347 348 340 346 346 342 336 339 342 344 344 343 340 334 329 327 328 335 336 338 337 338 341 340 338 337
311 311 310 311 312 313 315 314 316 317 318 319 319 318 321 320 320 318 321 320 324 337 342 345 346 342 340 345 345 342 336 336 337 338 338 337 336 332 328 328 336 338 341 340 341 343 342 341 340
310 310 310 310 313 312 314 313 314 315 317 317 317 317 318 320 319 319 320 320 322 334 344 345 346 345 341 343 344 343 341 338 335 334 334 334 332 332 331 328 333 338 343 344 345 344 342 342 342
307 309 310 310 311 312 312 313 314 314 315 315 315 315 316 315 316 319 319 320 323 333 345 347 348 346 345 344 347 346 345 342 341 340 337 335 333 333 333 333 333 341 342 342 343 341 342 343 341
309 310 310 311 312 312 311 312 313 313 314 315 313 312 314 315 315 318 321 324 328 333 335 343 348 349 345 350 350 349 347 343 343 342 341 340 341 340 339 338 339 340 343 346 344 343 343 342 340
310 311 311 312 312 314 312 311 312 312 313 312 312 312 313 314 315 322 325 331 331 330 332 333 337 344 350 349 349 348 348 348 348 346 343 342 345 345 343 342 345 346 347 346 345 343 343 342 340
312 312 312 312 313 313 311 312 312 313 313 312 312 313 313 312 314 320 326 327 326 325 325 326 331 339 344 350 349 345 342 344 347 346 346 345 346 347 346 345 343 345 346 345 345 344 343 341 340
313 312 312 312 313 312 312 312 313 314 313 313 312 312 313 313 312 317 322 323 323 323 322 326 325 325 338 348 350 348 346 346 346 346 345 344 340 344 343 345 347 344 344 344 343 344 343 341 339
311 311 313 313 312 312 313 311 311 313 313 312 311 311 310 312 313 313 318 319 321 322 323 325 329 327 325 328 341 346 345 345 345 344 344 344 343 342 340 339 337 335 342 344 344 343 343 340 339
313 312 314 314 312 311 311 310 310 311 312 311 311 311 311 311 313 312 316 319 321 325 327 326 326 326 326 326 327 332 344 345 342 342 344 343 341 337 334 338 341 340 339 339 340 344 342 339 340
315 313 312 311 309 312 311 311 312 311 311 311 312 312 312 310 310 313 315 318 324 325 324 322 320 319 319 320 328 332 333 334 339 344 343 342 342 342 341 339 338 338 338 338 338 343 340 339 339
318 312 311 312 311 314 315 317 313 312 315 316 316 315 312 311 312 315 317 317 320 321 320 320 319 320 320 320 322 324 326 331 333 335 339 341 342 342 342 341 338 341 340 340 342 342 340 339 342
322 322 323 317 315 314 316 318 316 317 317 316 312 311 310 311 314 315 315 315 318 319 319 319 320 319 320 321 321 321 322 323 325 328 327 327 331 335 338 339 340 342 342 342 342 342 342 342 340
321 321 320 322 321 317 313 315 315 315 317 316 316 312 310 311 313 313 313 313 313 316 319 320 320 320 320 318 318 318 318 319 319 319 320 322 325 329 332 334 336 335 338 339 338 338 338 339 334
319 318 319 320 323 323 316 317 316 319 317 317 316 316 314 312 312 312 312 311 314 315 316 319 319 319 317 317 317 316 316 317 318 318 318 320 320 323 324 325 327 327 337 338 337 335 335 334 336
317 318 317 317 320 322 321 316 316 318 318 318 317 317 313 313 313 311 310 312 314 316 315 316 317 316 316 316 316 316 315 315 315 316 316 318 320 322 323 324 326 326 327 334 337 337 338 338 337
316 318 317 318 319 322 318 316 315 317 318 317 317 317 316 315 314 312 313 314 315 313 315 316 316 316 317 317 316 316 316 317 318 317 316 318 319 321 320 320 323 322 331 331 337 338 339 340 340

GFSSGP_925_thetae_072.txt.gz
Theta_e
320 318 323 318 318 316 319 319 321 319 320 318 321 338 341 341 341 342 346 346 339 339 346 345 341 339 340 339 340 345 347 347 347 346 346 346 343 339 337 337 336 335 332 324 319 317 315 316 317
317 318 322 315 316 319 317 320 321 319 319 316 317 336 339 342 346 346 346 346 342 341 347 345 340 338 338 336 336 339 343 345 346 346 346 344 341 337 336 336 333 329 322 318 316 315 314 316 320
315 322 320 318 314 316 319 319 321 320 320 317 322 331 334 338 344 346 346 345 340 345 348 345 340 337 336 335 335 336 338 342 343 344 342 338 337 336 335 331 325 321 319 317 316 314 314 317 325
314 316 317 322 323 320 319 320 323 324 322 317 324 334 331 332 333 346 347 344 342 346 347 345 339 336 336 335 335 334 334 335 337 336 336 336 335 334 329 323 321 319 318 316 314 313 313 315 317
314 313 321 325 325 323 321 323 323 324 322 319 325 333 334 329 344 347 348 346 341 348 349 346 340 336 336 335 335 333 333 333 335 335 335 336 334 329 323 320 320 318 317 315 314 313 312 313 315
312 312 318 322 323 324 323 323 322 323 320 319 325 331 330 330 347 348 349 349 345 343 348 347 342 337 336 336 335 334 333 333 333 335 335 334 329 323 321 321 319 318 316 315 315 315 316 315 315
312 314 316 319 322 322 323 322 322 320 321 320 320 328 324 324 345 346 346 346 345 345 350 350 344 338 336 336 336 335 334 332 330 333 334 331 323 321 321 320 319 318 316 316 316 317 318 318 318
309 311 314 317 320 321 320 321 319 320 321 318 320 326 324 322 341 344 344 345 345 346 350 352 352 341 337 337 337 336 335 333 329 329 332 328 323 323 321 320 319 318 317 317 317 317 317 318 318
309 310 312 315 316 319 317 317 318 318 317 317 318 319 322 323 341 344 344 345 346 348 349 351 352 349 339 337 338 337 337 335 332 328 328 327 324 325 324 321 320 319 317 317 317 317 317 317 317
310 309 312 312 315 316 315 316 315 316 316 316 316 316 321 325 341 345 342 346 348 349 349 350 351 351 344 339 338 338 339 338 336 333 328 327 325 325 324 323 321 320 318 317 317 317 317 317 317
310 310 311 312 314 313 314 314 314 316 316 315 316 316 320 320 335 343 344 344 345 348 349 348 350 351 349 341 340 340 339 340 339 337 332 328 327 327 325 324 321 321 321 319 318 318 318 320 323
310 309 311 311 311 313 313 313 314 314 315 315 315 315 318 319 330 339 344 346 345 345 347 349 348 351 350 345 341 341 341 341 341 340 338 333 330 329 328 326 324 323 322 321 320 321 324 332 332
308 308 309 309 308 308 310 311 312 313 313 313 314 314 317 318 324 337 343 346 347 347 345 348 348 350 348 347 345 343 342 341 342 343 341 337 334 331 329 327 326 325 325 323 322 325 333 336 338
309 308 309 309 309 308 310 310 310 312 313 314 314 315 314 317 317 328 339 346 348 348 347 347 348 348 348 347 346 345 345 345 344 344 343 339 335 332 330 333 329 329 326 324 326 331 334 337 340
309 309 308 309 310 310 308 311 310 311 311 311 312 313 319 318 317 319 336 343 347 348 348 347 346 345 345 345 346 346 345 346 346 345 342 340 339 335 334 329 329 329 327 329 333 336 337 338 342
308 306 308 308 309 310 310 312 311 310 312 314 314 314 314 316 318 319 327 339 343 346 348 348 347 345 345 344 346 346 346 347 349 349 344 342 341 340 338 335 332 330 325 329 335 337 339 343 342
303 307 308 307 307 309 309 310 310 310 311 311 311 312 312 313 313 317 320 327 338 342 346 347 347 346 344 344 346 346 346 347 347 347 345 344 344 342 342 341 334 332 327 327 335 340 342 341 342
306 307 307 308 309 309 308 309 308 309 309 308 308 309 310 312 313 314 318 320 321 331 341 343 347 347 346 345 346 346 345 344 344 343 343 342 340 341 342 341 340 334 330 326 330 337 341 342 343
308 308 308 308 309 309 308 309 309 308 308 308 307 306 308 310 312 312 314 315 318 318 326 337 343 345 345 344 345 344 344 343 342 342 342 342 341 337 336 339 340 338 332 329 329 339 343 344 343
308 308 309 309 309 308 308 309 308 308 308 308 308 308 307 307 308 309 316 318 317 318 319 331 339 343 344 344 344 344 343 342 340 340 339 339 339 339 337 334 331 333 335 334 333 338 343 343 343
309 309 309 310 310 309 309 310 309 309 308 309 309 308 308 308 308 308 312 321 322 323 322 329 338 341 343 344 344 344 345 345 343 343 342 339 335 338 340 341 339 336 336 335 338 342 345 344 342
310 309 310 311 310 311 309 312 309 309 309 309 309 307 306 307 307 307 308 317 323 324 326 333 341 344 344 344 345 345 344 343 344 344 342 339 338 338 340 340 341 341 341 342 343 345 344 344 342
314 314 314 314 312 309 310 308 311 309 309 308 308 308 308 306 306 307 308 310 318 325 329 336 343 346 348 347 345 346 346 343 343 344 343 343 343 342 341 344 343 343 340 339 342 342 331 335 337
315 316 314 306 306 311 312 309 312 312 308 308 308 308 310 310 309 306 307 311 314 322 325 330 336 339 342 346 347 347 346 343 341 342 342 342 341 341 342 343 342 341 339 339 336 337 337 336 334
315 315 316 318 311 317 310 309 311 311 310 309 309 310 310 308 307 308 307 306 313 318 322 324 326 331 336 338 337 334 332 334 338 339 340 341 341 340 339 339 340 340 339 340 340 339 340 340 339
317 316 316 318 318 316 316 315 313 312 312 311 312 312 311 311 307 308 307 306 311 317 320 323 325 325 326 326 325 325 325 325 326 327 330 336 338 339 339 340 340 339 339 340 340 340 340 340 340
317 319 316 320 320 322 318 316 313 312 314 314 313 312 313 312 310 309 308 310 313 317 320 323 323 323 321 320 320 320 318 319 321 323 325 326 324 324 326 327 327 329 331 333 334 335 336 337 339
316 315 320 321 322 319 318 315 316 315 316 314 313 313 311 311 311 310 309 309 312 314 315 317 320 319 318 319 318 317 317 317 317 319 319 318 318 318 319 321 323 323 322 324 325 327 330 334 335
314 316 316 319 320 321 321 318 315 318 316 315 313 312 311 311 311 311 310 310 311 311 315 316 315 317 318 318 318 316 315 316 316 317 317 317 317 317 319 320 320 320 321 323 324 323 327 331 332
312 313 312 310 308 312 309 313 315 317 315 313 313 310 309 309 311 310 311 311 312 312 312 313 317 315 316 316 316 315 315 316 316 316 316 316 315 316 317 318 321 321 320 321 321 322 323 325 325

GFSSGP_925_thetae_075.txt.gz
Theta_e
320 319 322 320 322 322 323 323 324 324 325 324 323 337 343 343 343 340 348 348 347 352 355 349 345 345 347 347 347 347 347 346 343 338 339 341 339 338 337 337 337 335 335 333 323 317 316 318 322
319 319 322 322 322 321 321 323 324 326 327 324 320 333 343 347 347 350 349 349 349 354 355 353 344 343 347 348 347 348 348 346 344 342 345 343 340 338 336 336 334 334 329 320 317 318 320 320 329
316 321 324 326 324 322 321 322 326 327 327 323 326 334 337 343 345 348 347 348 351 354 355 352 342 341 344 347 348 347 347 347 345 345 345 343 340 337 335 334 333 329 320 317 317 316 318 321 330
315 320 323 327 327 324 321 322 326 327 327 324 324 335 334 333 336 347 349 350 350 353 353 347 340 340 340 343 345 346 347 347 345 345 344 342 338 335 334 331 328 321 317 316 315 315 317 324 328
315 320 325 327 327 325 323 324 326 327 326 325 326 330 338 337 352 352 351 350 349 352 352 351 339 339 338 337 339 341 343 344 345 345 343 338 335 334 332 327 321 318 317 315 314 314 314 317 320
319 320 324 325 325 325 325 324 325 325 325 326 324 325 334 343 352 353 352 351 349 352 353 352 340 337 337 336 336 337 338 341 342 341 338 335 334 332 326 322 320 318 316 315 314 313 313 314 316
319 321 322 323 323 323 323 323 324 324 324 325 323 324 327 326 347 352 352 351 350 351 353 353 349 339 336 336 335 334 335 336 337 336 335 335 334 329 323 321 319 317 316 316 315 316 316 316 317
316 319 321 321 322 322 321 321 320 322 323 321 320 326 324 323 343 349 351 351 349 350 352 352 351 348 346 342 336 334 333 334 336 336 336 335 331 324 322 321 319 318 317 317 317 317 318 318 319
312 319 320 320 320 321 318 319 319 319 320 320 320 321 321 323 345 347 349 350 349 349 352 351 351 349 347 346 342 335 334 334 336 337 337 335 334 324 323 323 320 318 317 318 318 318 318 318 318
316 318 319 316 318 319 318 317 318 318 319 319 320 321 319 328 343 345 346 346 347 348 351 351 351 350 348 346 346 344 342 339 338 343 343 342 340 334 333 325 321 320 319 318 318 318 318 318 330
313 316 314 315 316 316 316 316 316 317 317 318 318 320 320 320 327 342 345 343 345 347 349 350 352 351 348 346 347 347 346 345 344 338 338 343 341 339 335 335 332 332 323 330 324 323 329 330 330
313 312 314 315 315 315 315 316 316 316 317 317 317 318 319 319 320 327 343 344 344 347 348 349 350 351 349 348 347 346 346 346 344 343 334 339 340 340 340 338 338 335 336 331 323 330 322 327 333
312 311 312 312 312 311 312 313 313 314 314 315 316 317 318 318 320 321 332 344 346 347 347 348 350 350 350 349 347 346 346 345 345 344 344 338 340 340 341 340 338 335 335 331 323 321 325 333 336
311 311 312 311 312 312 312 314 313 314 315 316 316 317 318 319 320 320 327 340 347 347 348 348 349 349 348 350 349 347 347 347 346 346 344 337 335 333 339 340 338 334 326 326 326 327 330 334 337
311 312 312 313 313 313 313 314 313 314 315 315 317 317 318 318 319 321 323 338 346 348 349 349 349 350 347 350 349 348 347 347 346 347 347 341 334 334 334 332 331 331 328 326 325 328 335 337 339
311 311 313 313 311 312 312 315 315 314 314 315 316 317 318 319 321 323 323 334 344 349 350 350 350 349 349 348 349 349 347 347 347 346 346 345 342 336 334 336 335 330 331 330 330 334 337 340 343
310 311 311 312 312 312 312 313 314 314 315 315 315 316 316 317 318 318 321 322 335 346 350 350 350 350 349 348 349 349 348 348 346 343 335 332 343 343 337 337 336 332 332 330 332 334 337 344 344
311 312 311 312 313 312 313 314 314 314 315 315 315 315 316 316 317 317 318 317 321 328 343 349 350 350 349 349 349 348 348 348 346 340 330 332 345 345 342 341 338 337 335 336 329 334 339 341 340
311 311 312 313 313 312 314 315 315 315 315 315 316 316 316 316 317 316 316 317 316 319 323 343 347 348 348 348 347 346 346 347 346 345 343 345 344 344 344 346 343 341 340 336 333 337 333 342 342
312 313 313 313 313 313 315 316 315 315 315 316 316 317 316 317 318 318 316 316 316 316 319 320 338 346 347 347 347 346 345 345 345 345 345 345 344 343 338 343 343 342 341 338 334 334 341 345 343
313 313 314 314 315 315 315 316 316 315 314 315 315 316 316 317 318 318 318 317 321 321 317 320 327 341 345 346 347 346 346 345 344 344 344 343 342 342 341 338 339 341 339 340 336 333 341 343 342
314 313 314 316 318 317 316 318 317 316 315 315 315 316 317 316 316 316 317 317 317 323 326 323 328 338 343 345 345 346 345 346 345 344 343 343 340 339 338 338 339 340 342 341 339 335 335 341 345
314 316 318 318 318 318 316 318 316 315 315 315 315 316 316 317 315 317 318 317 317 318 324 328 330 337 342 345 345 346 347 347 346 345 345 344 344 341 337 337 339 341 342 342 341 342 342 342 339
317 319 318 315 316 318 317 318 316 316 316 316 315 315 315 315 317 317 316 315 315 316 321 327 334 338 343 344 345 346 346 347 346 347 346 347 346 345 344 345 345 344 344 343 341 338 335 334 333
318 318 318 317 317 317 316 318 316 316 315 315 315 315 316 318 317 317 318 318 317 316 317 323 331 339 344 346 347 347 347 346 347 347 346 346 345 345 345 344 343 344 344 343 340 339 335 329 331
317 317 317 317 313 313 313 315 313 316 317 317 317 316 318 318 318 318 318 318 318 315 315 321 327 335 341 345 348 347 347 346 345 345 344 344 344 344 344 344 342 340 341 343 341 338 335 330 325
319 318 319 317 317 319 315 316 315 318 319 317 317 317 318 318 318 318 318 318 319 319 314 318 324 330 334 338 340 338 337 336 335 336 336 338 340 341 341 341 342 342 342 344 344 342 339 338 334
318 317 319 321 320 316 313 315 317 319 318 317 316 316 316 316 317 318 317 317 316 318 319 319 323 327 328 332 331 330 328 326 326 327 330 330 330 329 331 332 332 334 336 337 340 340 339 338 338
317 319 319 319 319 318 315 312 319 318 315 316 315 316 315 313 313 314 316 316 316 315 318 320 321 324 325 327 326 325 324 324 323 323 322 320 319 319 322 327 330 330 330 332 334 334 334 334 335
313 314 316 319 317 316 317 314 312 313 317 315 315 314 313 313 312 312 312 313 315 317 316 320 320 321 322 322 322 322 323 319 317 317 317 317 317 317 322 324 325 326 327 330 330 329 329 330 330

GFSSGP_925_thetae_078.txt.gz
Theta_e
321 321 323 326 327 324 329 329 332 331 329 329 328 329 342 343 339 348 351 350 345 347 354 349 346 346 347 346 346 345 342 341 338 337 337 337 336 336 336 339 340 342 342 337 331 325 318 318 322
320 322 325 328 328 327 327 326 329 330 328 328 327 330 343 346 347 351 351 348 347 350 353 352 346 345 346 346 346 346 346 343 339 336 337 337 337 337 336 339 338 338 335 328 320 316 317 322 326
319 321 327 329 330 329 326 324 328 328 328 328 330 336 340 346 346 350 350 348 348 351 353 354 346 345 346 346 346 347 347 345 341 337 339 339 338 337 336 336 335 333 327 318 316 316 318 329 334
320 324 326 328 330 329 324 326 328 328 328 328 330 336 339 341 343 349 349 347 350 352 352 355 345 344 345 346 347 348 347 345 341 338 342 341 339 337 335 334 332 327 319 316 315 317 321 328 336
320 325 328 330 329 329 326 326 327 328 328 329 329 334 342 351 354 351 347 348 350 350 351 355 344 344 345 348 348 348 347 345 342 342 345 342 339 337 335 333 330 321 317 316 315 317 322 327 330
322 324 328 330 330 327 326 327 327 327 327 328 328 330 335 338 350 353 349 348 348 349 351 353 345 342 344 347 348 348 348 347 345 345 345 342 339 336 334 331 325 320 317 315 315 315 316 318 321
319 323 326 328 328 326 325 326 326 327 327 327 326 328 330 328 336 352 351 350 348 348 351 352 348 344 341 343 346 348 348 347 346 346 345 341 337 336 333 328 322 319 316 315 314 314 314 315 316
319 320 322 323 324 324 323 324 325 325 325 325 325 328 328 326 330 348 353 351 348 348 348 351 349 347 345 344 339 342 343 345 345 345 344 339 336 335 331 324 322 319 316 316 316 316 317 318 318
319 321 320 320 321 321 321 321 322 322 323 323 324 324 325 324 332 345 352 350 348 346 347 349 349 348 345 344 344 337 339 341 341 342 340 338 342 341 336 330 327 319 317 317 317 318 319 319 319
319 319 319 319 320 320 320 321 321 321 322 323 323 323 323 323 329 338 348 350 348 346 346 348 350 349 347 345 346 344 343 342 343 343 345 344 342 339 335 334 332 320 319 320 319 319 319 319 329
317 319 319 319 318 319 319 319 319 319 320 321 321 321 323 323 323 325 336 346 347 346 345 347 351 352 348 345 347 345 345 343 343 343 346 345 342 339 337 337 335 335 327 330 327 329 329 331 332
316 317 317 318 317 317 317 317 318 318 318 319 319 320 320 321 323 323 325 337 345 345 346 347 350 353 351 348 347 347 345 344 343 342 345 345 344 341 338 336 334 336 334 332 332 331 332 335 339
316 316 316 316 316 316 316 316 316 317 317 317 318 318 319 320 322 322 323 326 338 346 347 348 350 352 352 350 348 348 347 345 343 343 344 344 343 340 339 338 337 337 335 335 334 332 333 338 342
316 315 315 315 316 316 315 316 316 317 317 318 318 319 319 320 322 322 323 324 328 343 348 349 350 351 352 351 349 349 348 347 345 342 343 343 342 340 339 341 340 338 336 334 333 333 334 340 342
315 315 316 316 316 316 317 317 317 317 317 318 318 319 320 320 320 322 322 324 328 336 343 350 350 351 352 351 352 350 348 348 347 344 344 345 343 342 340 340 338 337 337 337 337 336 337 339 342
315 315 316 316 315 315 315 315 317 317 317 317 317 318 319 320 321 322 323 326 328 337 344 349 350 350 353 352 352 351 348 348 347 345 346 346 345 342 342 339 339 339 339 337 335 336 337 342 342
315 315 315 314 314 314 315 315 316 316 317 317 318 318 319 319 320 320 321 321 323 333 346 350 353 352 353 352 351 350 349 348 347 347 346 348 347 344 343 339 338 340 338 337 336 336 339 338 341
315 314 314 315 315 315 316 316 317 317 317 317 318 318 319 319 320 320 320 320 322 326 337 350 353 354 354 354 353 351 349 349 347 347 347 348 347 346 344 342 343 343 339 337 337 337 336 337 338
314 314 315 316 316 316 317 317 317 318 318 318 318 318 319 319 319 319 319 321 322 323 328 339 351 354 355 354 353 351 349 349 348 347 348 348 348 347 348 344 345 345 341 340 340 341 340 339 341
314 315 316 316 316 316 318 318 318 318 319 319 318 318 318 319 319 319 319 321 322 323 324 330 340 351 354 353 353 352 350 349 348 347 346 345 345 346 347 348 346 345 344 344 345 343 339 337 340
315 316 317 317 317 318 319 319 319 319 318 318 318 318 318 319 319 320 320 320 321 322 325 326 330 342 351 351 351 351 350 349 348 348 348 347 347 347 348 349 347 347 335 344 346 345 342 337 343
316 316 316 317 319 320 320 322 321 320 319 319 319 319 319 319 319 320 320 320 319 321 322 325 327 330 341 350 349 350 349 349 347 348 348 348 348 347 347 348 348 348 346 344 343 344 343 341 340
317 317 318 319 320 321 320 320 320 319 319 319 319 319 319 319 319 319 319 318 318 320 321 323 328 330 332 343 347 349 350 347 347 347 348 349 348 347 346 347 348 347 344 345 344 344 344 342 342
317 318 319 320 320 322 319 319 319 318 318 318 317 317 318 318 319 320 320 320 320 320 320 320 325 331 333 337 346 349 349 348 346 349 350 348 347 346 346 345 346 346 346 347 348 348 346 343 342
320 321 322 320 320 320 317 315 316 316 318 319 319 319 319 320 321 321 321 321 321 321 321 321 321 328 334 336 341 346 348 349 351 350 350 349 347 346 346 346 346 346 349 350 349 349 346 342 340
319 320 321 323 320 318 315 314 315 317 319 319 319 320 320 320 321 321 321 322 321 320 322 323 321 323 330 338 341 343 346 347 348 350 347 348 345 347 349 350 349 350 350 350 350 349 346 344 342
319 319 318 318 316 317 315 315 316 317 320 320 319 319 319 318 317 319 320 320 320 320 320 322 324 321 326 335 343 345 347 348 348 348 350 348 346 342 347 350 350 348 348 348 348 347 345 344 342
315 317 317 319 320 315 313 313 313 317 318 317 317 317 317 317 317 317 318 318 318 319 320 320 324 324 323 330 341 347 349 350 349 349 350 346 344 342 345 347 347 347 347 346 346 345 346 344 337
317 317 317 318 320 319 317 313 315 314 315 315 316 315 315 316 316 316 316 316 316 317 319 320 322 325 324 328 336 343 346 346 344 341 337 335 337 335 335 337 339 341 342 343 344 343 343 344 343
313 314 315 321 318 320 321 318 314 315 315 317 317 314 315 315 315 315 316 315 315 315 316 319 320 324 324 326 332 337 337 333 331 329 330 330 330 329 328 329 331 332 333 335 337 337 337 338 338

GFSSGP_925_thetae_081.txt.gz
Theta_e
321 325 325 327 329 328 334 338 338 338 335 332 332 333 336 341 344 355 351 351 347 355 355 351 348 347 346 341 334 334 335 336 338 338 337 337 336 337 342 344 346 344 342 339 335 330 319 318 324
322 324 326 329 331 332 333 335 335 336 334 332 331 332 334 341 346 350 351 349 347 356 355 354 347 346 345 339 335 335 336 337 338 338 337 337 336 337 340 343 344 344 339 334 324 317 316 320 330
320 323 328 331 332 333 333 333 331 332 331 332 332 335 339 346 346 350 353 349 347 354 354 355 347 347 346 345 342 341 339 339 338 337 337 337 336 337 338 341 340 338 334 323 317 316 319 323 330
322 324 327 331 333 333 332 328 330 330 330 331 331 334 339 351 352 350 353 349 349 352 351 356 347 346 346 347 347 346 343 342 339 337 338 338 337 338 338 339 337 335 325 317 316 317 324 333 335
321 325 329 331 332 333 332 328 328 330 330 331 330 336 344 349 352 350 347 348 350 350 350 356 346 346 346 346 347 348 346 345 340 337 338 339 339 339 338 337 335 329 319 317 316 319 324 333 336
323 325 328 332 332 331 331 329 328 329 329 329 330 332 338 333 351 350 348 348 348 348 351 357 347 345 345 345 346 348 348 347 342 338 340 341 340 339 337 336 332 323 318 317 316 319 325 328 330
322 326 328 329 331 331 332 329 329 329 329 329 329 330 334 330 334 352 349 348 348 348 350 355 353 349 345 345 346 348 349 347 344 339 343 343 341 339 336 334 329 321 318 316 315 316 317 318 319
320 323 327 327 328 330 331 329 329 328 328 329 327 330 332 329 332 347 351 350 347 348 349 351 351 351 351 353 348 348 348 348 345 342 346 345 341 338 337 332 326 321 319 316 315 314 314 315 316
320 320 321 323 325 327 328 327 326 327 327 326 326 327 328 326 329 341 350 349 347 347 347 349 349 349 347 347 352 349 348 348 347 346 347 345 346 345 344 335 333 322 320 317 316 316 317 318 319
320 320 320 321 321 322 324 323 323 323 328 327 327 327 325 326 327 334 346 349 347 346 346 348 349 348 347 345 347 350 351 351 352 351 350 348 344 344 340 336 336 324 322 319 318 318 319 319 329
320 320 320 321 322 322 322 322 322 321 323 325 327 327 326 325 327 327 329 342 347 346 346 347 349 350 348 345 346 346 346 346 348 348 348 346 344 343 338 338 337 336 325 330 324 326 328 329 330
319 320 320 321 321 320 320 320 320 320 321 320 321 322 322 323 324 325 326 327 340 346 346 347 349 351 350 346 346 348 345 345 343 343 345 345 345 342 337 337 338 334 333 330 331 330 331 332 334
319 319 319 319 320 319 319 318 318 319 320 320 319 320 320 321 323 323 325 326 328 342 347 346 349 354 353 352 347 348 346 346 344 342 344 345 344 343 341 337 337 334 334 333 334 333 334 335 340
319 319 319 318 318 319 318 318 318 318 319 319 319 320 320 321 322 322 325 325 326 331 343 348 349 353 354 353 351 349 348 347 345 343 344 345 346 344 342 339 338 337 336 335 336 334 334 336 342
319 318 318 319 318 319 319 319 319 319 319 319 319 320 321 321 321 322 324 325 326 327 330 347 350 352 355 355 353 351 350 349 347 345 344 345 346 345 341 340 340 339 338 337 336 335 335 336 339
317 318 318 320 319 318 317 318 320 319 319 318 319 319 320 320 321 321 322 323 327 330 332 340 349 351 355 356 355 353 350 350 349 346 344 345 346 344 341 341 341 339 339 339 338 337 335 335 337
318 318 319 319 319 318 317 318 319 319 319 319 319 319 320 320 321 321 322 323 323 325 333 342 347 349 354 355 355 353 352 351 349 348 346 347 346 343 344 340 341 340 340 339 337 336 336 335 340
318 317 317 317 318 317 317 317 318 318 319 319 319 319 319 320 320 320 321 322 323 324 329 342 350 353 355 355 356 353 353 352 350 349 348 348 348 346 344 340 338 340 340 339 338 336 336 337 336
317 318 318 318 318 318 318 319 319 319 319 320 320 320 320 320 320 320 320 320 321 324 327 332 347 356 356 356 357 355 354 353 351 350 349 349 350 349 346 342 340 342 341 339 337 340 339 338 337
318 317 318 318 318 319 319 320 321 321 321 321 321 321 320 321 321 321 321 321 322 324 326 329 337 351 359 356 356 355 353 352 352 350 349 349 351 350 348 341 342 345 343 343 342 341 342 341 339
318 318 319 319 319 319 319 321 321 321 322 322 321 321 321 320 321 321 321 320 320 321 324 327 330 336 355 354 355 355 355 354 353 353 351 350 351 350 350 343 348 346 345 344 345 343 343 341 340
318 318 318 318 319 321 322 323 323 322 322 322 321 321 321 321 321 321 321 322 321 320 321 323 326 331 335 353 352 354 354 355 354 352 351 352 350 348 349 349 350 349 349 346 347 348 347 345 340
318 319 320 320 321 323 323 324 323 322 322 321 322 321 321 320 320 321 321 321 321 321 320 323 325 327 334 334 351 352 354 351 351 350 349 350 351 350 349 349 351 351 350 348 347 350 349 346 343
318 319 320 321 322 324 323 324 323 321 320 320 320 321 320 320 320 321 322 321 321 321 321 321 325 326 327 334 336 350 352 352 349 351 351 351 350 351 349 350 350 352 351 349 348 347 347 343 345
319 322 326 326 325 325 323 321 320 319 319 320 321 320 321 322 322 323 322 323 322 322 322 322 323 326 325 327 334 339 349 352 351 350 351 350 351 351 351 350 349 351 350 349 348 348 347 346 346
321 323 326 327 326 324 322 320 318 318 320 320 320 320 319 320 320 320 321 321 321 322 322 322 323 324 326 326 328 337 342 348 350 350 348 349 347 350 351 351 350 349 349 349 350 351 351 349 347
320 323 321 323 322 320 318 318 318 318 321 321 320 318 318 318 318 319 320 319 319 319 320 321 322 323 325 327 326 334 341 346 347 347 348 348 347 349 349 350 350 349 349 350 351 350 350 346 347
319 318 320 321 324 323 318 317 315 318 318 317 317 316 317 317 316 317 317 318 318 318 318 319 320 322 324 327 327 329 341 345 347 348 348 347 348 349 350 353 351 351 351 350 348 348 348 347 347
320 320 318 319 321 324 322 316 317 317 317 317 316 316 317 318 318 317 316 316 316 317 317 318 319 321 322 325 327 327 335 341 344 345 346 348 348 350 348 350 352 349 348 348 346 346 345 346 346
317 317 316 320 322 321 322 321 318 317 316 316 316 316 317 318 318 318 317 316 316 315 316 316 317 319 322 323 326 327 332 341 344 345 345 345 344 346 345 346 344 343 343 345 346 345 343 343 344

GFSSGP_925_thetae_084.txt.gz
Theta_e
320 323 326 327 329 331 333 335 336 337 339 336 333 334 336 334 348 361 352 352 356 357 356 349 347 347 347 341 336 333 334 335 338 337 337 337 340 342 344 343 343 344 342 341 338 331 317 323 327
320 323 325 327 330 331 332 334 336 338 334 333 332 332 333 337 350 351 352 352 356 357 355 354 348 347 346 339 335 333 335 336 338 337 337 337 338 342 344 345 344 343 340 334 327 318 318 327 329
318 322 326 328 330 332 333 333 335 336 333 333 333 333 335 351 349 355 352 354 357 357 356 355 348 347 345 338 334 334 336 337 337 337 337 337 337 340 343 343 345 341 335 325 318 316 320 331 334
321 324 325 328 331 331 332 334 331 334 332 332 333 334 349 351 350 352 353 351 357 356 356 352 348 346 344 338 335 335 337 337 337 337 337 337 336 337 340 341 339 336 328 318 316 318 324 329 334
319 324 327 328 330 331 333 333 330 330 331 332 332 336 349 350 351 350 350 349 354 354 356 354 348 347 345 342 339 338 338 339 338 338 338 338 337 337 338 338 335 331 321 317 317 319 331 334 335
321 323 327 330 330 331 332 334 333 329 330 330 330 332 337 340 352 347 347 350 351 351 358 353 347 347 347 346 346 345 342 342 340 338 338 338 338 338 338 336 335 328 319 317 317 322 327 332 333
321 325 326 327 330 331 331 332 331 329 329 329 329 331 332 332 341 351 348 348 348 350 359 357 348 348 347 347 347 346 347 345 342 339 338 340 339 339 337 335 332 324 318 316 317 320 325 327 327
320 323 326 326 328 329 331 332 331 330 330 329 328 328 331 329 332 347 349 347 347 348 358 356 353 354 349 348 347 346 347 347 345 341 339 341 341 340 338 336 333 325 320 318 316 316 317 318 318
319 321 324 325 326 328 329 331 332 330 328 329 328 327 328 327 328 339 349 349 347 348 353 353 353 354 353 355 352 350 352 349 347 343 340 344 343 341 340 336 333 324 323 321 316 315 315 315 316
319 320 319 321 323 325 327 328 328 327 326 328 329 329 326 327 327 330 343 350 348 347 349 351 351 352 351 351 353 352 354 353 348 346 343 346 347 346 346 340 337 327 322 320 317 316 317 318 319
318 320 320 320 321 322 323 323 324 324 325 326 330 330 328 329 327 328 329 339 346 347 346 350 350 350 349 348 350 350 355 354 352 352 352 348 347 347 343 340 333 334 323 320 318 317 318 319 322
318 319 320 321 321 322 322 322 322 322 322 323 324 323 323 324 325 325 325 325 329 341 346 349 349 349 348 347 349 349 351 352 353 353 353 350 348 345 342 340 336 333 330 322 329 322 322 324 331
318 319 320 320 320 321 321 321 321 319 320 320 321 321 321 322 323 322 323 324 326 330 341 349 352 351 348 348 350 349 346 348 348 349 350 350 346 345 343 339 340 337 333 327 332 331 331 331 335
319 319 320 320 320 320 319 319 319 319 319 319 320 320 320 320 321 321 322 324 326 326 334 346 353 351 352 347 351 350 346 347 346 345 346 347 345 346 343 337 340 337 334 335 330 335 335 335 335
319 319 320 319 319 319 319 319 319 319 319 320 320 320 321 322 321 323 323 324 326 327 328 342 352 353 353 350 348 353 349 349 346 345 344 344 347 346 343 339 340 340 334 337 334 336 334 335 335
319 319 319 320 319 319 319 319 320 321 320 320 320 319 320 322 322 322 322 323 325 328 332 332 348 356 355 354 349 353 351 349 349 346 344 346 346 347 344 342 341 339 340 337 340 337 337 334 336
319 318 319 319 320 320 319 319 319 320 320 319 320 321 321 321 323 321 323 323 324 324 325 328 337 351 356 357 354 351 355 352 352 348 347 346 343 347 347 344 342 341 341 339 339 338 337 337 335
318 318 318 319 320 319 318 318 318 319 319 320 321 320 320 321 322 323 321 321 324 325 325 325 330 351 357 359 358 357 354 353 353 351 348 347 346 347 347 343 342 343 341 342 339 339 337 336 337
318 318 319 319 319 318 318 319 319 320 320 320 321 321 323 322 321 320 321 320 321 321 325 324 325 346 351 356 359 358 356 355 354 351 352 348 348 347 344 346 343 342 343 342 341 339 338 337 336
319 318 319 319 318 319 319 320 320 320 321 322 323 324 324 324 324 324 323 322 320 320 326 327 327 330 353 354 355 358 356 354 354 354 351 352 349 348 346 345 342 341 342 341 340 338 340 341 338
319 319 319 318 319 320 320 320 321 321 322 323 323 324 322 324 325 326 328 325 322 323 326 327 327 327 329 356 355 356 355 353 354 353 353 351 350 350 349 346 339 342 344 344 344 345 343 341 339
319 319 318 319 319 319 320 323 323 323 323 323 323 324 323 323 324 324 326 327 326 325 323 325 325 328 328 329 349 353 354 353 351 353 353 351 353 353 351 347 346 343 344 344 344 343 345 343 343
318 319 319 320 321 322 322 323 323 324 323 323 324 323 323 322 323 322 324 323 324 323 323 323 326 327 326 332 331 336 348 352 353 352 353 353 353 353 351 349 348 346 342 347 345 345 347 346 343
319 319 320 321 322 323 323 324 324 324 322 322 322 322 321 321 323 324 323 323 324 324 323 324 324 326 326 329 333 332 337 347 351 350 349 349 350 351 353 351 351 351 348 349 349 349 348 349 346
320 321 323 325 328 328 325 326 326 322 321 321 321 320 320 320 320 321 321 322 322 322 322 323 323 325 324 325 328 333 335 336 345 349 348 349 349 350 351 350 351 352 352 350 351 349 350 351 349
321 323 327 330 329 326 324 324 322 320 320 321 320 320 320 320 321 320 320 321 319 320 321 321 322 323 325 326 324 326 330 338 340 346 348 347 347 347 349 352 351 351 352 352 351 351 350 351 347
321 323 322 325 324 325 323 321 321 319 322 322 321 321 319 320 321 320 319 318 318 319 320 321 321 322 322 323 326 328 330 330 339 343 346 348 349 348 348 348 351 351 352 353 352 350 349 349 349
320 321 322 321 327 326 323 320 319 319 318 318 318 317 317 318 318 320 321 319 318 317 317 319 320 321 320 322 325 325 329 329 330 342 345 347 347 348 351 348 349 352 352 353 351 350 348 351 351
320 321 321 322 324 324 323 321 320 319 318 318 317 316 317 319 318 318 318 318 318 317 317 316 317 317 317 320 322 324 325 331 329 334 341 346 344 347 349 350 351 348 352 352 351 350 350 349 347
320 319 320 327 325 325 328 324 320 319 318 319 317 319 318 319 319 318 318 317 317 317 317 317 317 318 317 317 320 322 323 328 330 335 338 343 344 344 347 347 347 348 347 346 345 346 348 347 349

GFSSGP_925_thetae_087.txt.gz
Theta_e
318 321 323 323 325 324 328 329 330 331 333 330 329 330 337 351 355 361 355 354 349 349 350 347 346 347 345 341 333 332 333 336 336 336 335 337 338 338 338 338 339 339 339 338 334 318 323 328 329
317 319 322 321 324 324 327 328 330 331 332 330 331 331 338 359 353 353 356 357 348 348 349 349 347 347 344 338 332 333 334 336 336 336 336 337 339 338 339 341 341 339 336 332 325 317 324 328 329
316 319 319 321 323 326 328 327 328 331 331 331 332 332 349 354 355 352 356 354 346 347 347 349 347 346 342 336 333 333 335 336 337 336 336 337 339 342 343 341 340 338 331 324 317 317 328 332 333
318 318 318 322 324 325 327 328 329 330 330 331 331 352 352 350 352 355 356 354 348 351 348 347 347 346 341 334 333 334 335 336 337 336 337 337 338 339 340 341 340 334 326 318 316 319 328 333 333
316 315 320 322 323 324 326 328 329 328 331 329 331 348 353 349 351 355 357 356 350 356 351 348 347 345 341 335 333 335 336 337 338 337 337 336 337 338 338 337 336 331 321 316 316 323 327 332 333
312 315 319 323 323 324 326 327 330 331 326 328 330 333 333 348 347 349 356 356 354 353 354 347 347 346 342 336 334 335 337 337 337 337 337 336 336 336 336 335 333 328 318 317 317 323 332 333 333
312 314 319 320 323 324 326 327 329 331 328 327 327 330 329 329 344 347 351 354 353 352 353 348 347 346 343 338 337 337 338 339 338 337 338 337 337 337 336 334 333 327 318 317 318 323 327 331 330
312 313 317 321 323 323 324 329 330 332 332 329 327 328 328 327 333 349 348 351 353 353 353 348 346 347 347 345 343 343 342 342 340 338 338 339 339 339 337 335 333 326 319 317 317 320 323 324 322
312 313 315 317 322 323 322 328 329 330 331 329 328 326 326 326 330 339 347 347 357 358 356 352 346 347 348 349 348 347 347 345 344 340 338 339 340 340 338 336 332 326 320 318 316 316 317 317 316
311 312 314 315 318 319 320 324 328 330 331 328 328 328 329 327 326 327 345 347 347 357 356 351 345 346 349 351 350 351 351 349 347 343 341 340 342 341 338 335 333 326 320 318 316 315 315 316 317
312 313 314 317 317 317 318 321 327 329 329 328 328 327 325 326 323 321 321 332 343 348 348 352 348 345 349 355 349 355 357 354 350 346 342 341 344 344 340 339 334 332 322 319 317 316 317 318 318
312 314 315 316 317 318 318 321 321 322 325 322 321 322 320 320 322 322 320 321 325 344 347 348 352 352 348 352 352 348 350 352 350 348 345 342 346 347 345 343 337 331 326 319 318 317 317 318 318
312 314 315 316 317 316 319 319 319 319 320 319 318 319 319 319 319 320 320 321 322 335 343 334 339 351 349 350 352 349 349 350 349 348 348 348 346 347 346 343 340 335 328 323 318 319 319 320 326
313 314 315 315 316 316 318 318 318 318 319 318 318 317 318 318 318 319 320 320 320 323 347 340 348 348 346 339 351 349 348 348 350 350 349 349 347 345 347 342 340 337 335 324 320 322 329 328 331
317 316 316 316 316 316 318 316 316 316 316 317 317 317 317 317 318 318 319 319 320 321 332 349 349 344 333 335 339 350 347 347 347 350 349 348 343 346 345 343 340 339 338 333 328 327 331 332 333
316 316 315 316 316 316 315 315 317 316 315 316 316 318 319 318 318 320 320 322 324 329 338 344 337 336 332 331 346 352 347 347 347 346 348 349 349 340 345 345 337 341 339 334 332 331 334 335 336
315 314 315 316 316 316 315 316 317 317 318 316 316 317 317 317 319 320 319 320 323 324 324 343 347 337 332 346 351 352 352 348 348 346 346 345 347 345 344 345 339 339 340 335 336 337 332 336 335
314 315 315 316 317 317 315 315 316 317 317 317 316 316 316 317 317 318 319 320 320 326 327 325 328 348 351 355 352 352 353 352 350 348 346 345 345 345 346 346 343 340 341 338 335 340 335 337 336
318 317 316 317 318 317 315 316 316 316 318 316 316 316 316 316 317 318 320 319 319 321 321 321 322 323 353 354 353 352 353 353 352 353 349 346 345 345 345 348 345 342 341 342 341 340 339 337 336
318 318 317 317 318 317 317 318 318 318 317 318 317 317 317 317 317 317 319 319 319 320 322 322 321 320 323 349 351 352 354 353 352 352 352 351 347 346 345 346 347 343 343 342 343 340 339 338 336
316 317 317 318 318 317 318 317 318 318 318 318 318 318 318 318 318 319 321 324 324 323 325 330 326 323 322 324 340 352 351 351 351 351 352 352 351 349 347 345 345 344 343 343 342 341 339 339 339
316 316 318 318 318 317 318 318 318 319 319 319 318 317 318 318 317 318 318 322 323 324 324 326 328 332 330 329 330 342 348 349 350 351 351 351 351 351 348 346 345 344 343 342 341 341 340 338 339
317 318 319 319 317 318 319 318 318 318 320 321 319 319 318 318 319 319 319 321 321 321 321 323 325 324 323 323 326 334 333 339 342 345 347 347 348 348 349 347 346 344 342 341 341 340 343 340 338
320 318 318 318 317 319 319 320 320 321 321 321 319 319 318 318 318 317 318 319 319 319 319 321 321 321 321 323 324 323 323 327 336 337 341 343 345 347 347 348 348 346 343 343 342 345 344 344 341
321 319 318 320 321 324 327 329 326 323 321 321 318 318 317 317 316 317 317 316 318 318 319 320 319 319 320 320 322 324 325 324 325 327 337 341 341 344 346 345 347 345 341 343 344 344 343 344 344
323 322 329 335 328 327 324 327 325 321 319 319 318 318 318 317 317 317 317 316 318 319 319 319 319 320 319 320 320 319 320 324 327 327 327 335 341 340 345 345 343 338 330 331 343 343 346 343 344
322 321 321 322 323 324 322 321 320 321 321 320 319 319 318 316 315 315 315 316 316 316 317 317 317 318 319 318 319 319 321 323 324 327 329 329 333 343 343 344 342 340 332 334 342 346 345 348 348
321 319 321 321 325 325 322 321 319 318 317 316 315 314 313 312 311 315 316 317 317 317 316 316 316 317 317 316 316 317 317 319 325 321 323 329 330 336 343 344 346 342 342 343 348 349 347 346 348
320 320 320 322 324 323 322 320 319 318 317 317 315 313 314 314 313 313 312 314 315 313 313 313 315 317 317 317 316 316 317 318 320 320 324 325 327 332 339 344 345 345 341 342 343 348 347 347 345
321 321 321 328 328 325 321 321 317 316 316 314 314 314 313 311 311 310 310 311 311 311 311 311 312 312 312 313 315 315 316 317 319 318 323 322 322 327 335 340 343 344 341 342 331 334 341 338 343

GFSSGP_925_thetae_090.txt.gz
Theta_e
316 317 318 321 323 320 326 328 328 329 329 329 328 346 353 351 351 349 352 352 347 346 347 350 348 345 338 331 331 333 335 335 334 333 333 334 335 336 337 339 337 335 335 332 319 323 327 328 328
314 316 321 318 322 323 323 326 328 327 328 328 327 350 355 358 356 357 357 355 346 345 347 348 347 345 338 331 331 333 336 335 334 333 334 336 337 337 338 338 336 336 334 327 318 325 328 329 330
315 316 317 319 319 323 324 325 327 326 326 327 331 350 352 358 355 355 356 354 348 347 347 347 347 345 338 331 332 334 336 335 334 333 335 336 336 336 338 337 336 334 330 323 318 325 328 329 331
318 315 315 320 322 321 324 325 326 327 327 327 347 356 351 350 353 356 356 352 349 349 347 346 346 345 337 332 332 334 336 335 335 334 335 337 337 338 338 337 335 330 324 318 317 327 331 332 331
315 311 318 319 321 320 322 323 325 326 329 327 340 355 353 352 355 357 356 354 349 350 348 346 346 344 337 332 333 334 336 336 335 334 334 336 339 341 339 338 334 328 320 316 318 324 331 332 332
311 311 316 320 321 321 320 321 325 326 327 326 333 334 335 354 356 356 352 349 347 347 348 346 346 343 338 333 333 335 336 337 335 335 334 335 336 337 337 336 332 326 318 317 319 324 328 332 332
310 310 314 317 318 319 321 321 323 325 328 328 329 330 329 335 356 356 353 347 346 347 348 348 347 344 338 335 334 336 336 337 336 336 336 335 336 337 336 334 331 325 318 318 318 326 331 331 331
308 308 314 314 317 319 319 320 320 323 330 328 328 328 327 327 349 356 355 354 352 350 346 346 347 345 341 336 335 336 337 337 337 336 337 336 336 336 337 334 331 325 318 317 319 323 326 328 327
309 309 310 312 314 316 317 319 320 323 330 329 327 326 325 328 343 349 353 356 357 356 354 349 345 345 343 337 337 337 338 338 338 337 337 337 337 338 337 335 331 326 318 317 318 320 323 323 321
307 306 309 311 312 313 315 316 318 317 325 331 329 328 326 326 323 331 347 354 357 355 354 352 353 350 345 344 343 343 342 341 341 340 339 339 339 338 337 335 332 327 320 317 317 317 318 317 317
308 310 310 312 312 313 314 315 317 316 327 332 331 326 323 320 320 321 338 348 355 355 354 352 351 352 353 354 348 349 349 348 345 342 340 338 340 340 339 336 334 330 323 319 317 316 316 316 317
309 310 311 312 313 314 314 317 318 321 321 330 330 321 319 319 319 318 320 345 351 353 353 351 347 345 350 354 352 350 351 351 349 347 343 339 340 342 340 338 333 330 324 319 318 317 316 316 317
308 310 311 312 312 313 313 315 317 317 320 326 325 325 323 316 317 319 318 320 346 350 351 352 345 337 335 351 353 352 352 350 347 347 346 342 340 343 343 341 337 332 327 321 318 318 317 317 318
310 311 312 312 312 312 314 315 315 317 317 321 317 317 316 316 316 317 317 318 329 343 343 340 339 339 344 350 350 341 333 344 348 346 346 345 341 343 345 344 342 337 330 325 321 318 317 317 318
313 312 312 313 311 312 315 316 315 315 315 316 316 316 316 315 316 316 317 319 319 327 339 340 336 342 349 345 336 341 335 335 345 348 347 345 344 343 345 346 343 340 336 332 326 322 318 319 322
315 314 314 313 313 314 315 316 315 314 313 314 315 315 316 316 317 317 319 319 327 326 331 336 340 346 348 343 339 337 331 334 339 349 347 345 346 346 346 346 345 342 339 336 334 326 320 321 328
311 314 314 314 314 315 314 314 315 314 314 314 313 314 315 315 316 318 319 319 321 328 336 338 338 345 345 345 340 333 336 341 349 349 350 347 345 348 348 346 343 341 340 337 336 332 325 326 329
314 314 314 315 316 315 314 314 314 314 315 315 312 313 314 315 315 317 319 318 321 326 335 341 345 346 348 345 337 337 350 346 348 347 347 347 347 347 347 346 346 342 341 338 337 334 331 331 332
315 315 316 315 315 316 313 315 314 314 315 314 312 313 313 314 314 316 317 318 320 327 329 339 343 341 339 334 335 345 351 351 347 347 346 346 346 347 347 347 344 345 339 340 339 336 335 335 335
315 316 316 315 317 316 316 315 315 314 314 313 314 313 312 313 313 314 318 321 323 323 322 324 330 341 349 346 344 349 351 350 348 349 348 346 345 345 346 346 345 344 344 341 340 340 338 339 336
315 315 315 315 316 315 316 315 316 316 317 316 314 314 315 315 317 318 319 321 324 326 327 329 331 331 331 341 346 352 352 348 346 346 347 347 348 347 345 345 346 346 344 343 342 340 341 339 338
316 315 316 318 316 317 316 317 316 317 316 317 316 315 316 317 316 318 317 319 320 321 323 324 323 323 323 323 325 330 335 345 347 347 345 345 345 345 346 346 345 345 345 344 343 342 340 340 338
316 316 318 317 315 316 316 316 315 317 320 319 317 318 317 316 316 317 317 318 319 320 320 320 321 322 322 322 323 325 324 323 324 326 331 338 340 339 343 345 346 345 344 344 343 342 341 340 339
320 317 315 314 314 316 318 317 317 319 319 318 317 317 316 315 315 315 316 317 318 318 318 319 319 319 319 319 320 322 323 323 324 324 325 325 325 325 334 340 342 346 345 344 343 342 340 340 339
320 317 317 319 319 320 326 327 323 320 319 318 317 316 316 315 315 314 315 314 316 317 318 319 318 319 319 319 319 319 319 319 320 321 323 325 327 327 331 334 338 340 342 343 343 341 340 341 340
322 321 325 328 328 327 326 330 324 320 318 317 316 315 315 316 314 315 313 313 314 316 317 319 318 317 317 317 318 318 319 318 319 321 323 324 325 324 327 331 334 336 340 340 342 341 340 334 332
322 321 320 324 323 324 323 322 318 319 319 318 318 318 313 311 310 311 311 311 312 312 312 311 312 313 314 316 316 316 317 318 318 318 321 324 321 322 324 326 329 338 340 340 339 339 336 332 329
322 320 325 320 324 324 323 322 320 317 316 316 313 312 311 310 310 309 308 310 310 311 311 311 311 311 311 311 312 313 314 315 316 317 319 320 321 321 321 320 322 325 338 341 339 335 334 330 328
321 319 321 320 323 322 322 321 317 317 314 312 312 311 309 308 307 307 307 309 310 310 309 309 309 310 310 310 311 311 312 312 313 315 318 318 320 319 318 317 322 324 332 337 338 333 330 332 335
320 322 321 325 324 320 318 320 315 313 312 310 309 309 308 308 308 307 306 308 308 308 308 308 308 308 308 309 311 311 312 312 312 312 313 317 319 319 319 318 318 322 327 334 337 338 338 337 339

GFSSGP_925_thetae_093.txt.gz
Theta_e
313 315 318 320 321 321 326 326 327 328 329 327 325 327 347 350 349 346 352 351 347 348 348 348 344 335 331 331 335 336 337 335 334 335 337 339 338 337 339 338 336 334 331 323 320 324 325 326 327
313 316 319 316 321 322 323 324 326 326 325 324 325 336 354 356 358 356 354 355 350 348 347 348 345 335 331 331 334 336 335 333 332 332 333 335 336 337 338 335 334 334 330 319 324 327 328 328 333
315 316 316 318 318 322 323 325 325 324 324 325 327 350 351 357 357 354 355 354 350 351 351 349 345 336 331 331 334 336 334 333 332 331 333 334 335 337 337 336 334 333 327 319 326 328 329 331 336
317 314 312 319 321 319 322 323 323 323 324 325 340 355 350 350 353 354 356 354 349 351 351 349 345 336 331 331 334 336 334 333 331 331 333 335 336 337 336 335 334 332 326 319 326 328 329 330 332
313 311 317 318 318 319 320 321 321 322 324 324 332 354 351 356 356 357 356 353 350 351 350 350 346 338 332 332 334 336 335 334 332 331 333 335 334 335 335 335 333 329 324 318 325 328 330 330 331
309 309 314 317 319 319 318 319 320 321 323 324 334 334 335 356 358 357 353 350 349 348 349 351 347 341 333 332 334 336 335 335 333 332 334 335 336 337 337 337 334 327 321 317 321 330 331 331 330
309 309 312 315 317 317 319 319 320 320 322 322 328 331 328 343 356 355 353 351 350 349 349 350 348 343 334 333 334 336 336 335 335 333 333 336 340 340 340 338 334 326 319 317 320 324 329 330 330
306 306 311 312 314 314 317 318 320 320 322 323 327 327 328 326 355 354 354 356 353 353 352 350 346 343 336 334 334 336 337 336 335 335 333 333 335 337 337 336 333 327 319 318 319 326 329 330 329
306 308 308 309 312 313 313 314 317 318 318 318 328 324 324 345 355 353 355 356 354 353 354 350 349 343 337 335 335 336 337 337 336 336 336 335 335 335 335 334 332 328 320 318 319 321 326 328 327
305 304 307 307 310 311 312 312 315 316 316 317 329 327 327 344 351 352 355 356 355 354 352 352 352 348 343 340 338 337 338 339 338 337 337 337 336 335 334 334 332 330 324 319 318 319 322 324 323
305 306 308 309 310 310 311 312 312 314 315 316 323 327 326 321 329 348 354 355 355 353 351 350 350 350 346 342 342 341 340 340 340 340 338 337 338 337 337 335 333 330 327 321 318 318 318 319 318
308 307 308 309 310 312 311 313 313 314 316 316 321 327 323 324 316 320 345 354 355 354 352 348 346 346 345 345 343 342 344 344 342 342 341 339 339 339 339 338 335 330 326 322 319 318 317 317 316
308 308 308 308 308 308 310 311 312 313 314 315 322 326 325 325 326 319 336 350 354 354 353 351 349 347 345 345 346 346 346 347 347 346 344 342 340 339 340 340 338 334 330 325 320 318 318 317 316
311 310 311 310 308 308 311 312 312 313 315 318 323 324 328 328 327 323 319 342 352 353 353 352 350 348 348 343 345 347 346 344 343 342 340 344 344 341 339 341 341 338 334 329 324 320 318 318 317
312 311 310 309 309 309 311 311 313 314 315 315 318 315 324 322 323 315 316 322 344 348 350 351 348 347 346 344 346 346 345 343 338 335 342 341 343 344 341 340 342 342 340 336 331 325 320 319 318
314 312 313 311 312 311 312 312 313 313 314 314 313 313 314 314 316 317 317 320 322 330 347 342 349 342 340 342 344 346 347 342 342 336 338 343 341 345 344 342 342 344 343 341 338 333 330 325 322
311 313 313 313 312 314 312 313 313 313 312 313 312 312 312 313 315 316 318 319 325 324 326 342 343 343 340 345 347 345 339 334 337 339 345 346 346 346 346 344 343 343 344 344 342 339 334 330 326
313 313 313 314 314 313 312 312 313 313 312 312 312 311 311 312 314 316 316 317 322 331 329 330 338 339 343 347 346 343 342 340 336 339 346 350 350 349 347 346 345 344 344 344 343 340 337 334 331
313 314 314 314 315 314 313 312 311 312 313 313 312 311 310 311 312 315 316 318 324 327 338 341 337 338 343 347 347 345 341 337 338 336 333 344 349 349 348 348 347 346 344 343 342 341 338 336 335
314 314 314 313 314 313 313 315 312 312 314 313 313 312 311 311 312 318 320 320 321 323 336 340 342 341 341 342 340 339 339 338 336 336 344 346 346 346 346 346 346 345 344 342 341 340 338 337 336
315 315 315 313 315 315 315 314 313 315 315 315 314 312 313 312 313 318 319 323 326 327 325 325 328 330 341 346 344 342 342 342 344 347 347 348 345 345 344 343 343 346 345 343 342 340 339 338 337
317 316 315 316 315 315 315 315 314 315 315 317 315 314 314 316 316 317 316 317 322 323 325 326 325 324 324 326 327 330 334 337 337 336 341 344 345 345 344 343 342 343 342 344 343 343 339 339 340
315 316 315 316 314 315 315 314 314 314 317 318 317 317 316 316 315 315 315 317 319 321 320 320 320 321 321 322 322 323 323 323 323 322 322 322 324 329 335 337 340 339 338 340 343 342 343 341 340
319 317 314 313 312 315 316 315 315 319 318 318 317 317 316 315 315 315 315 316 317 317 319 318 318 318 318 318 319 319 319 320 321 321 322 322 322 322 323 325 327 331 340 341 339 340 341 342 341
318 316 318 317 318 318 323 323 319 320 317 317 316 316 315 313 311 311 309 310 312 313 314 316 316 316 318 318 318 318 318 318 318 318 319 319 321 321 322 324 325 328 331 337 340 341 341 341 340
321 318 321 323 324 324 324 326 323 319 316 315 313 310 310 310 308 308 307 308 309 310 310 310 310 310 311 311 314 316 317 317 318 318 317 318 320 322 325 323 322 325 328 332 338 341 341 340 340
321 320 318 322 323 321 322 323 316 318 318 314 313 311 309 308 307 307 307 308 308 308 308 309 309 309 309 309 310 310 310 311 312 313 315 319 318 318 323 321 320 320 320 321 324 338 340 340 338
320 319 322 319 325 325 321 321 319 317 313 312 310 309 308 307 306 306 305 307 307 307 307 307 307 307 307 307 307 308 309 311 311 312 312 313 315 321 322 321 319 318 317 317 319 331 337 336 336
321 319 318 321 320 322 322 320 316 313 312 311 309 308 307 306 305 305 304 306 307 306 306 306 305 305 305 305 305 305 306 307 308 310 311 311 312 313 317 324 321 319 318 317 318 324 330 334 335
319 320 319 320 326 318 315 321 313 310 310 309 309 309 307 306 305 304 304 305 305 305 305 305 305 305 304 304 304 304 304 305 305 306 307 308 309 310 311 316 321 321 318 317 319 320 330 330 333

GFSSGP_925_thetae_096.txt.gz
Theta_e
310 314 317 319 319 321 326 324 325 325 325 324 322 324 326 347 348 347 352 353 349 348 348 347 341 337 339 342 342 342 343 344 344 344 345 344 340 337 338 339 339 341 339 332 322 323 325 326 327
312 316 319 315 318 321 321 323 325 324 322 321 322 342 349 354 357 355 353 352 350 347 348 346 338 334 338 341 340 339 340 340 342 344 345 342 338 337 338 336 335 333 329 321 323 325 326 328 336
314 317 315 318 317 321 321 323 322 321 321 323 325 339 351 352 355 354 355 353 349 347 348 345 337 333 335 339 338 337 335 335 337 340 341 339 337 337 337 334 332 331 322 323 327 327 327 331 339
316 312 311 318 321 319 321 321 319 321 323 321 322 339 348 355 354 354 354 353 350 348 348 346 338 333 333 336 336 335 333 332 332 333 335 335 336 338 336 332 334 331 321 326 328 328 330 336 338
312 309 313 317 318 318 319 320 319 320 321 321 322 349 344 357 357 357 355 353 351 351 351 349 339 333 332 335 336 334 333 332 332 332 333 335 336 338 336 335 335 332 322 325 328 329 330 332 334
307 308 313 313 316 318 317 318 319 319 319 321 322 331 337 355 357 357 355 354 351 350 352 350 342 334 332 334 335 334 333 332 332 332 334 335 337 338 336 336 334 330 324 321 326 328 329 331 331
307 307 311 313 315 316 317 318 319 319 318 320 320 330 330 351 356 355 354 353 352 353 354 354 347 336 332 334 336 335 334 333 332 332 333 334 334 336 337 336 334 329 323 319 325 329 331 330 330
304 305 309 311 310 312 314 316 318 318 319 319 322 325 324 335 355 354 354 352 351 355 356 353 354 342 333 333 335 335 334 334 333 331 333 333 334 336 337 337 335 330 322 319 319 326 330 330 330
304 305 306 308 311 310 313 313 315 317 316 317 317 324 325 353 354 354 355 353 353 353 356 357 348 344 337 333 335 337 336 335 335 334 333 334 336 337 337 335 333 330 324 320 319 322 326 329 329
304 304 305 305 307 309 311 310 310 314 313 314 316 322 338 352 352 354 354 354 353 354 355 356 350 344 338 335 336 337 338 337 336 335 334 332 332 332 333 333 333 331 328 321 319 319 322 327 329
303 305 305 306 308 309 309 310 310 312 312 312 314 318 323 336 346 351 354 354 353 353 353 354 352 345 340 336 335 336 338 338 338 337 336 336 335 334 334 333 332 330 328 324 319 318 319 322 324
307 305 306 306 308 310 309 310 312 311 312 313 313 314 319 319 330 346 350 353 353 353 350 351 349 347 342 336 334 335 337 337 338 337 337 337 337 337 336 335 334 332 330 327 323 319 318 318 318
306 307 307 307 306 307 309 309 310 309 311 312 312 315 321 321 319 321 333 350 353 353 352 349 348 347 345 340 337 335 336 337 338 339 339 338 338 337 337 338 337 335 333 330 328 324 321 319 318
308 309 310 309 308 306 309 309 309 310 311 311 313 318 323 324 324 320 322 333 349 353 353 351 348 348 347 346 341 338 337 338 339 340 340 341 341 340 338 338 339 339 337 334 331 329 326 323 321
310 312 310 311 310 309 307 309 310 311 311 313 314 318 319 324 324 326 327 322 327 344 352 352 350 348 348 346 345 343 342 344 343 345 345 344 343 342 341 340 340 339 340 339 337 334 331 329 325
313 310 312 311 311 310 310 311 311 310 311 312 313 312 313 315 322 319 320 320 321 325 343 351 351 350 349 348 348 348 348 348 348 348 348 347 345 345 344 342 341 340 340 341 341 340 337 335 332
308 312 312 311 311 311 311 312 312 312 310 311 311 311 312 312 313 315 321 323 325 319 332 346 349 350 349 348 349 348 348 348 347 347 346 342 342 343 346 344 343 342 341 341 342 342 341 340 338
312 312 312 312 313 313 312 310 311 311 311 311 311 310 311 311 310 314 320 325 322 319 322 326 341 346 344 344 346 346 346 345 343 340 336 344 346 347 347 346 345 344 343 343 343 342 343 342 340
313 313 313 313 313 314 312 311 311 310 308 310 310 310 311 310 312 313 315 316 318 321 327 328 330 338 343 342 342 344 345 343 343 340 338 339 342 345 347 348 347 345 344 344 342 341 341 340 339
312 313 313 313 313 312 313 313 311 312 312 311 311 311 311 310 316 317 316 318 324 323 326 329 334 335 339 340 342 344 342 342 342 341 339 339 343 345 347 348 344 342 335 342 342 341 339 337 337
313 313 314 314 313 313 314 313 313 314 313 315 314 312 312 312 314 318 319 321 322 324 329 333 335 339 340 340 341 342 340 340 340 340 339 339 346 347 346 345 342 337 336 333 337 337 339 338 339
315 314 315 316 314 313 313 314 312 313 314 316 314 314 315 315 315 316 317 320 323 325 326 325 325 327 330 338 342 345 346 345 342 337 335 335 336 342 344 345 343 341 339 339 337 336 336 340 338
315 315 315 314 313 314 314 313 312 313 317 317 316 316 315 314 314 314 313 316 316 317 318 319 320 320 321 323 323 323 323 323 323 323 323 322 322 322 323 329 336 342 342 341 337 338 341 339 339
317 315 312 312 311 314 314 313 314 319 319 318 316 315 312 311 309 308 308 309 310 312 313 314 315 315 316 317 317 318 318 318 319 318 318 318 318 320 323 324 326 326 327 331 335 339 340 341 340
316 315 317 316 315 317 320 320 316 318 317 316 315 311 309 308 307 307 306 306 307 308 308 309 309 310 310 311 311 311 312 313 314 315 315 316 317 317 317 319 322 325 326 327 329 330 332 337 339
320 316 318 320 319 320 322 324 322 316 312 312 310 309 308 307 306 306 305 305 306 307 307 307 307 307 307 308 308 308 308 309 309 310 311 311 312 314 318 320 322 324 323 324 328 330 333 336 338
320 320 317 322 320 321 320 321 316 313 314 312 310 309 307 306 305 305 305 305 306 306 306 306 306 306 306 306 306 306 306 306 306 307 308 310 311 311 313 315 318 324 322 322 321 322 324 330 334
319 317 322 319 324 325 320 321 318 315 313 311 310 308 307 306 305 304 304 305 306 306 306 306 306 305 305 305 305 304 305 305 305 305 305 306 307 309 311 312 314 319 322 323 319 319 319 321 327
320 319 318 318 316 322 321 318 314 312 311 310 308 308 306 306 305 304 303 305 305 305 305 305 305 304 304 304 304 304 303 303 304 304 304 305 305 306 306 309 310 311 319 324 320 319 318 320 327
317 318 318 321 323 313 312 316 311 309 309 308 309 307 306 306 304 303 303 304 304 304 304 304 304 303 303 303 303 302 302 302 301 301 302 303 303 305 307 308 309 310 311 319 320 320 318 320 321

GFSSGP_925_thetae_099.txt.gz
Theta_e
310 313 317 322 325 326 329 328 328 328 328 326 326 327 335 338 345 354 355 355 354 355 357 350 348 343 345 346 346 346 346 343 340 337 339 337 335 335 336 336 341 346 344 341 332 326 325 326 326
312 317 320 323 325 327 328 327 328 325 325 325 326 328 338 353 356 357 356 356 354 356 356 354 345 341 344 346 346 346 345 343 342 342 343 339 336 335 337 338 341 344 340 330 323 324 327 327 329
314 317 322 324 325 323 325 325 325 324 324 325 326 327 349 357 354 355 357 355 355 356 355 354 341 339 343 344 344 344 344 344 344 345 343 340 337 336 338 339 339 335 328 322 324 326 327 333 335
316 319 319 324 322 324 323 324 323 324 324 324 324 334 341 358 359 357 357 355 354 355 354 349 338 338 341 342 342 343 343 343 343 344 343 339 338 337 338 336 334 330 322 325 328 327 330 337 341
314 316 318 320 320 322 321 322 323 324 323 323 323 327 326 357 359 358 356 355 353 354 354 352 338 335 340 340 339 339 339 340 341 342 340 338 337 338 337 333 333 329 322 329 330 329 332 338 340
316 316 315 314 317 319 320 320 321 322 322 321 321 324 329 358 359 358 356 355 353 354 354 353 341 334 336 337 337 335 334 333 334 335 336 336 337 338 336 333 333 330 322 328 330 330 332 336 337
314 315 313 314 315 316 316 319 319 318 319 318 321 323 330 347 358 357 356 354 352 353 354 352 349 340 335 336 336 334 333 332 331 332 334 335 337 338 337 335 334 331 325 324 329 329 330 331 332
313 313 314 314 313 312 315 316 317 316 315 319 321 326 329 339 356 357 355 354 353 353 353 352 351 347 345 339 336 335 333 332 331 332 335 336 337 337 336 334 332 329 325 321 325 328 330 332 332
309 312 312 311 313 312 314 315 316 316 316 316 318 319 323 351 357 356 354 353 352 352 353 353 351 349 346 345 342 336 335 334 333 333 333 335 342 341 339 338 334 331 325 320 319 323 330 331 331
312 311 311 311 312 312 312 312 312 313 314 315 316 318 335 353 356 357 355 353 352 352 353 353 352 350 346 344 344 344 344 343 341 340 336 342 344 344 344 342 335 332 328 322 318 319 322 326 336
310 311 309 311 311 312 311 312 312 312 314 314 317 318 318 338 353 355 355 354 353 353 352 353 352 350 347 344 346 346 346 345 344 339 336 337 342 344 343 343 340 337 332 333 325 322 324 332 333
309 309 309 309 310 312 312 312 313 313 315 316 316 317 316 318 329 351 355 354 354 353 352 353 352 350 346 345 343 344 344 342 344 344 338 344 342 337 339 342 341 342 340 339 337 334 332 323 323
309 311 310 310 310 312 312 313 313 313 315 316 315 316 317 318 325 342 351 354 355 355 354 353 351 351 350 347 343 345 345 344 344 344 344 344 344 344 343 341 340 340 340 339 339 337 333 328 322
313 313 314 314 313 311 312 314 312 316 316 316 315 317 318 319 324 325 334 339 348 353 354 354 353 352 350 349 347 346 345 345 344 345 346 343 343 345 344 345 345 344 343 341 338 336 336 334 332
313 315 315 315 315 315 313 314 314 317 317 316 317 317 321 325 324 325 325 327 335 343 349 354 354 352 351 351 350 346 346 345 346 346 345 347 346 346 345 344 344 345 344 343 343 340 336 335 335
315 315 316 316 314 312 314 317 317 317 315 317 318 318 319 321 326 326 327 325 324 325 328 339 348 353 353 352 352 350 348 347 348 347 347 343 341 342 346 345 345 344 344 343 343 343 342 341 340
314 316 316 316 315 314 314 317 319 318 316 318 319 319 319 320 319 323 326 327 326 325 325 326 337 350 353 351 351 349 349 347 347 347 348 345 345 348 346 347 345 344 345 344 343 343 342 343 343
316 316 316 316 317 316 317 318 318 318 316 318 319 319 319 318 319 318 320 325 324 324 324 325 326 338 348 349 349 349 348 348 348 347 347 348 347 343 342 347 346 344 345 345 343 343 344 341 341
315 316 316 317 316 316 319 318 319 318 317 317 317 318 318 318 318 316 318 321 323 323 324 324 322 324 337 346 348 348 348 346 346 344 342 340 339 343 343 344 348 346 345 345 343 341 338 338 336
315 316 316 317 317 317 318 318 318 318 318 319 317 317 318 317 318 321 319 322 326 328 333 332 332 333 341 344 344 344 344 344 345 345 344 342 344 346 348 349 347 347 344 344 340 338 333 329 334
316 317 317 317 317 318 318 319 319 318 318 321 320 320 320 319 321 325 326 327 327 329 331 331 336 338 338 340 341 341 342 344 344 345 345 346 344 344 348 347 347 348 346 337 334 333 331 333 332
317 317 317 318 319 320 317 319 320 318 320 323 323 323 322 322 326 327 325 321 320 319 320 321 321 325 329 338 342 344 345 346 346 342 338 336 339 342 343 345 345 345 345 342 338 335 333 334 335
318 318 318 319 320 319 318 319 319 320 323 324 323 321 320 320 319 317 316 315 314 314 314 315 314 314 314 317 319 320 322 323 324 326 323 322 323 324 337 340 343 345 344 343 341 341 339 336 336
318 317 317 317 318 320 319 319 319 320 323 324 320 318 317 316 315 314 313 312 312 312 312 312 313 312 310 311 311 311 313 314 317 318 318 319 319 321 318 325 335 337 339 342 342 342 342 341 339
320 321 321 321 321 320 322 321 319 323 321 323 320 317 315 315 314 314 313 312 311 310 310 310 311 312 311 310 310 309 310 310 312 313 314 315 316 317 318 320 320 326 333 337 338 339 340 341 342
322 321 321 323 322 320 325 325 325 320 318 318 316 315 314 313 313 312 311 310 310 310 310 310 310 310 310 310 310 310 310 310 310 311 311 311 312 313 315 317 319 321 324 329 334 334 335 336 337
323 323 320 325 324 326 323 324 319 318 317 316 315 314 313 312 312 311 310 309 309 309 309 308 309 309 309 309 309 309 309 309 309 309 309 309 310 310 311 312 314 317 319 323 329 331 333 334 334
322 320 325 323 327 327 324 324 323 321 319 316 316 315 313 312 310 310 310 309 309 308 308 308 308 308 308 308 308 308 307 307 307 307 308 308 308 309 309 310 311 312 315 318 323 327 330 331 330
323 324 323 324 324 326 324 322 319 322 319 317 315 313 312 311 309 309 309 308 308 308 308 307 307 307 307 307 306 306 306 305 305 305 305 305 305 306 307 307 309 310 312 314 317 322 325 327 328
321 323 324 327 328 325 325 324 315 316 316 315 314 311 310 310 309 309 308 307 308 308 307 307 306 306 306 305 304 305 304 304 304 304 304 304 304 304 305 307 307 308 309 311 313 316 320 324 325

GFSSGP_925_thetae_102.txt.gz
Theta_e
318 317 319 324 327 330 335 335 332 334 332 331 331 332 333 339 349 356 359 358 356 356 359 354 346 344 343 344 347 347 345 344 336 331 334 336 336 336 337 342 346 345 343 340 340 337 325 324 325
318 317 321 325 324 331 333 333 332 331 329 329 330 332 338 350 355 356 358 359 357 358 359 356 347 344 343 345 347 347 346 342 334 333 335 336 336 336 337 342 347 345 343 338 331 326 326 326 326
318 318 322 322 324 326 330 330 331 329 328 328 330 333 347 355 357 357 360 357 357 358 358 358 346 343 344 344 348 346 346 341 335 336 338 337 336 336 337 339 344 345 339 327 325 326 327 328 335
316 318 320 322 322 324 324 327 329 328 328 327 327 334 335 342 356 360 357 355 357 357 356 357 345 343 344 346 347 346 345 343 339 341 341 338 336 336 337 339 341 337 328 324 325 327 329 331 336
316 318 318 320 319 321 324 325 327 327 327 327 326 329 330 354 360 360 356 355 355 355 355 355 343 342 344 345 345 345 344 343 343 345 343 339 337 337 338 336 334 330 324 327 327 328 332 338 341
317 318 316 318 319 319 321 322 323 323 323 323 323 325 331 348 359 360 357 355 353 354 355 354 344 340 342 343 344 344 344 344 344 344 343 339 338 337 336 333 332 327 323 327 329 329 331 339 340
317 317 316 317 317 317 318 319 319 318 318 319 320 322 329 337 358 360 359 356 353 353 354 353 348 343 340 341 341 340 340 341 342 342 339 338 337 338 337 333 333 329 322 328 330 330 332 337 338
316 317 316 316 316 316 317 318 317 317 317 318 320 322 332 337 352 359 358 356 353 352 352 352 350 347 346 345 339 337 337 336 335 334 335 334 336 338 338 336 335 333 327 322 328 330 330 331 332
315 315 315 316 315 316 316 315 317 317 316 317 319 322 323 334 348 358 357 355 352 351 352 352 352 348 344 344 345 337 335 334 333 334 333 334 342 343 344 340 342 332 329 325 321 327 329 330 331
314 314 315 316 315 315 315 315 315 314 315 315 316 317 319 332 342 351 357 354 352 351 353 353 354 350 345 344 346 344 344 343 343 343 344 342 341 343 341 341 338 334 330 326 321 319 323 329 336
314 315 315 315 314 314 314 314 315 315 315 316 316 317 321 322 333 343 352 355 353 352 353 353 354 353 348 345 346 344 344 344 345 345 345 342 341 343 342 342 343 342 338 337 332 330 329 330 333
313 314 314 314 313 315 315 316 316 316 316 316 316 317 321 321 322 334 345 350 354 354 353 354 355 354 352 346 345 345 345 345 346 346 347 344 344 343 342 340 340 341 339 339 337 334 332 332 333
312 313 314 314 316 316 317 317 317 317 317 317 317 318 320 321 322 323 339 343 346 350 354 355 354 354 354 351 347 346 345 346 347 347 348 347 346 344 343 340 339 338 338 337 338 337 336 335 334
315 314 317 317 318 317 317 318 317 319 319 317 319 319 321 322 323 330 341 342 342 343 350 353 355 355 354 354 351 349 348 348 348 347 347 348 347 347 347 347 346 345 342 339 338 338 337 337 334
317 317 317 318 318 318 319 319 319 319 319 320 320 320 322 324 324 331 337 334 334 333 339 351 353 354 356 355 354 352 348 347 348 349 348 349 349 348 348 348 348 347 348 348 348 347 344 342 339
317 318 319 319 318 318 318 319 320 320 320 320 321 321 322 324 326 327 327 328 332 329 330 337 338 344 353 353 355 353 351 349 347 347 347 349 350 350 350 349 348 348 348 348 347 347 347 346 346
318 319 318 319 318 318 319 320 320 320 320 320 321 321 322 323 326 328 327 327 330 330 330 337 337 340 344 349 351 352 354 352 349 349 348 349 348 345 349 348 348 349 348 347 347 346 346 345 346
318 318 318 318 319 319 319 320 320 320 320 320 320 321 322 322 323 323 326 326 328 331 335 333 337 333 340 343 348 351 353 352 352 350 350 351 349 343 334 348 350 348 347 346 347 347 347 346 346
318 318 318 318 319 319 320 321 321 321 321 321 321 321 322 322 323 322 322 326 329 331 334 331 336 339 325 328 344 348 350 350 351 351 351 351 352 350 343 346 347 347 344 347 347 348 348 347 345
318 318 318 317 318 319 320 321 321 321 322 324 323 322 322 323 323 325 323 326 329 334 339 340 340 339 332 336 343 345 347 347 348 349 350 349 347 347 348 348 347 349 349 349 350 348 346 344 343
317 318 317 317 319 319 321 322 321 321 323 325 325 324 325 323 327 327 327 329 332 335 337 339 343 344 343 343 344 345 346 346 346 346 347 348 349 349 347 346 348 350 348 348 348 348 346 342 339
318 316 317 317 319 321 321 321 322 321 322 326 327 327 326 328 329 329 328 327 327 327 327 327 327 328 330 338 343 346 346 347 345 346 343 343 344 346 347 348 348 349 349 348 347 345 342 341 339
317 317 319 320 321 321 322 321 321 322 322 327 327 327 329 328 326 325 324 322 322 322 322 322 322 321 321 322 322 325 328 326 326 328 328 330 332 334 337 339 341 345 346 347 345 344 344 341 341
318 320 321 321 321 323 321 321 320 322 323 327 326 325 324 324 323 322 321 320 319 319 319 319 320 319 319 319 319 319 320 321 322 323 322 322 323 323 325 327 330 335 338 339 340 341 342 342 341
320 322 323 322 322 322 321 322 321 325 324 326 326 324 323 323 322 321 320 319 318 318 317 317 318 319 318 318 318 318 319 319 319 319 319 320 319 319 321 322 324 324 326 329 334 336 338 338 340
321 322 322 324 322 320 323 322 322 325 324 326 324 323 322 321 320 319 318 317 317 317 317 317 317 318 317 317 317 317 317 317 317 317 317 317 317 317 317 318 319 320 322 324 326 328 331 333 335
321 323 321 324 325 326 325 325 325 324 325 324 323 322 321 320 318 317 317 316 316 316 315 315 316 316 316 316 316 316 316 316 315 315 315 315 315 315 315 316 316 316 317 318 320 322 326 331 334
323 322 324 323 327 330 324 324 325 326 326 324 323 322 320 318 317 317 316 315 315 315 314 315 315 315 314 315 315 314 314 314 313 313 314 314 313 313 313 314 314 315 315 316 316 318 321 325 329
323 323 323 324 328 329 328 326 324 325 326 325 323 321 320 318 316 315 315 313 313 313 313 313 314 313 313 313 312 312 312 312 312 311 311 311 311 310 310 310 311 311 313 314 315 316 317 320 325
323 323 324 329 327 326 326 325 321 324 325 324 322 319 318 316 315 315 314 313 313 312 312 312 312 312 312 311 311 311 311 310 310 310 310 309 309 309 309 308 308 309 310 310 311 312 314 316 319

GFSSGP_925_thetae_105.txt.gz
Theta_e
311 319 319 322 328 333 336 337 338 338 337 334 334 334 336 337 346 366 359 360 356 360 358 350 345 345 346 346 347 342 335 339 336 331 333 336 339 339 340 343 341 341 341 344 343 342 328 326 327
322 318 319 324 327 334 335 335 337 335 334 332 332 334 337 353 355 355 361 359 357 361 359 356 345 344 343 345 347 344 340 342 335 331 333 336 339 339 340 345 344 344 341 340 340 330 325 327 328
317 319 322 323 326 333 334 334 335 335 332 331 332 333 343 353 355 359 361 357 358 361 359 359 346 345 343 343 345 347 345 343 334 332 335 337 338 337 339 345 346 345 342 336 329 327 328 328 329
318 319 321 323 327 329 331 332 331 333 331 330 330 333 339 344 354 360 355 356 359 360 358 360 347 345 343 343 345 347 346 343 334 334 337 337 337 337 337 341 346 345 337 325 325 329 330 333 337
318 320 320 321 323 326 328 327 328 331 330 330 330 330 332 348 357 359 357 356 358 357 359 359 347 345 344 344 346 347 346 342 336 337 339 337 337 337 337 339 342 338 327 324 327 330 331 332 338
318 319 320 320 321 323 324 325 326 327 326 327 326 326 329 342 354 359 357 356 355 354 357 357 349 345 345 346 347 347 346 343 338 341 342 339 337 338 338 338 337 331 325 325 328 329 333 339 341
319 319 319 320 320 321 323 323 323 324 323 323 323 322 327 338 354 358 358 356 354 353 354 355 352 349 345 346 346 346 346 344 343 344 343 340 338 337 338 336 334 331 325 328 329 328 330 337 340
319 319 320 320 320 320 322 321 321 321 320 322 321 322 324 340 350 357 358 357 355 354 353 352 350 348 349 350 345 345 345 344 344 344 343 339 338 336 337 333 333 334 327 328 329 329 329 333 336
318 318 319 320 320 320 321 319 320 320 319 319 321 322 327 331 345 354 355 356 355 353 353 351 350 347 344 346 348 342 342 342 342 344 342 339 343 344 343 338 341 333 332 327 326 329 329 329 329
318 317 318 320 320 319 320 318 319 318 318 318 318 320 321 324 340 351 354 353 353 352 352 351 351 349 346 345 348 345 345 345 345 344 346 343 341 344 342 342 341 341 331 327 324 322 326 329 336
317 317 318 319 318 318 318 318 318 317 317 319 319 320 320 322 334 342 348 354 352 352 353 353 354 351 347 345 349 344 345 344 344 345 346 343 341 343 342 343 343 343 338 338 332 329 326 331 333
316 317 317 318 318 316 316 317 318 318 318 319 319 319 320 322 327 337 344 352 352 353 354 354 355 354 352 347 346 346 345 346 346 346 347 345 343 342 342 340 343 343 340 341 337 336 332 332 332
316 316 317 317 317 316 318 318 318 318 319 319 319 319 319 323 325 326 339 347 351 356 356 356 356 356 356 353 348 348 346 346 347 348 348 349 346 343 343 341 340 339 340 339 340 337 337 336 335
316 316 316 317 318 318 318 318 318 319 320 319 319 319 320 321 324 326 329 345 347 350 354 355 356 356 356 355 353 351 350 348 348 348 348 350 349 349 346 344 341 340 338 338 338 338 338 338 337
317 317 317 316 319 319 320 319 319 320 321 320 319 320 321 321 324 327 331 343 341 345 347 349 355 353 356 356 356 354 351 350 350 349 349 350 350 349 349 349 349 348 347 344 345 347 343 342 339
318 318 319 319 319 319 320 320 321 321 321 321 322 322 321 323 324 327 335 340 336 333 340 346 345 353 356 353 351 350 352 351 350 349 349 351 352 352 350 350 349 348 349 349 347 347 347 346 344
319 318 319 319 321 320 319 319 322 322 321 322 322 323 322 324 326 328 332 334 332 333 334 339 337 342 352 352 348 347 347 352 352 351 350 350 349 351 352 349 346 350 349 349 349 348 347 347 345
318 319 319 320 321 320 320 320 322 322 322 322 322 323 323 323 325 327 328 327 327 331 333 334 339 336 344 347 346 343 347 351 349 351 352 351 347 350 351 348 346 347 343 348 347 347 347 348 346
319 320 319 320 321 321 321 321 322 323 322 322 322 322 323 324 324 325 325 326 326 332 334 338 338 346 346 337 335 336 339 341 343 348 348 350 348 348 348 344 333 331 340 346 348 345 345 345 345
319 319 320 320 319 320 321 321 322 323 322 323 324 323 323 323 325 326 325 325 328 334 337 342 341 343 341 335 338 335 332 331 337 349 350 349 350 347 348 347 343 337 341 347 347 343 342 346 344
320 319 320 319 319 320 320 321 322 322 323 324 325 324 324 323 325 329 329 331 334 338 341 343 346 346 346 343 342 342 343 342 340 345 348 349 349 349 347 346 347 348 343 335 328 336 339 341 337
320 319 318 319 319 321 320 321 323 323 323 324 326 326 326 325 329 332 333 334 336 335 335 336 336 337 339 342 346 348 344 345 344 344 344 346 347 347 346 344 343 342 328 325 325 340 345 345 344
319 318 319 318 318 319 320 322 322 324 324 326 327 327 328 330 331 330 330 329 329 330 330 329 329 329 329 331 332 338 336 332 330 331 330 330 331 334 333 336 341 343 343 343 343 342 345 345 345
318 318 319 319 321 321 321 324 323 324 324 326 328 329 330 329 328 327 326 325 325 325 326 326 326 325 325 325 326 326 327 326 326 327 326 324 325 326 326 328 330 332 335 340 340 341 342 344 344
319 320 322 324 324 322 321 321 324 324 324 328 328 328 328 327 327 326 326 325 324 323 323 323 324 324 323 324 324 324 325 325 324 323 322 324 323 322 322 323 325 326 327 328 329 331 335 339 340
320 322 324 328 325 323 323 324 322 323 325 326 327 327 327 327 326 325 324 323 322 322 322 322 322 323 323 322 323 323 323 322 322 322 322 321 321 320 320 321 321 321 322 322 323 326 327 329 332
322 323 322 323 327 332 325 324 327 326 325 327 327 327 327 326 325 323 322 321 321 321 321 321 321 321 321 321 321 321 321 321 320 320 320 319 319 319 318 319 319 319 320 320 320 321 322 324 327
321 323 326 326 333 332 330 329 328 327 326 327 327 327 326 324 323 322 322 320 320 319 319 319 319 319 319 319 319 318 318 318 318 318 318 318 318 317 317 316 316 316 316 317 318 319 320 321 322
321 325 327 329 327 331 330 330 328 330 326 327 326 326 325 323 322 321 320 318 318 318 318 318 318 317 317 317 317 317 317 317 317 316 316 315 315 315 314 314 314 313 313 314 314 315 316 317 318
324 324 328 330 331 329 330 332 324 326 328 328 326 325 324 322 320 319 319 318 317 317 316 316 316 316 316 316 316 316 316 316 315 315 314 313 313 312 311 311 310 310 310 310 310 311 311 312 313

GFSSGP_925_thetae_108.txt.gz
Theta_e
309 315 319 320 324 331 335 336 336 337 339 337 335 335 336 336 357 374 359 358 359 357 350 347 347 348 347 344 341 335 333 335 334 331 333 336 337 338 337 335 337 338 338 339 339 337 331 327 330
317 322 321 321 325 332 334 334 335 336 335 334 333 334 335 360 355 363 362 358 361 357 351 349 347 347 346 346 345 339 334 337 333 332 334 337 338 338 339 342 339 339 340 343 342 331 325 327 330
313 321 320 321 323 329 332 334 335 335 334 333 333 333 335 354 355 360 359 359 363 360 354 351 345 346 346 346 346 343 337 340 333 332 334 336 338 339 344 345 343 343 340 338 334 328 328 328 332
317 320 320 321 325 328 329 332 334 334 333 332 332 332 340 347 353 358 356 357 363 361 358 354 345 344 344 344 346 345 341 342 334 332 334 335 337 339 343 346 345 344 341 332 326 328 331 329 333
319 319 318 319 322 325 328 330 331 331 333 332 331 331 336 350 354 357 356 358 361 359 361 357 346 345 344 344 346 346 344 343 334 333 336 336 336 337 340 344 346 344 335 324 325 327 330 336 339
318 319 319 319 320 323 325 326 327 328 330 331 330 329 329 347 352 358 356 357 358 361 362 357 347 345 344 344 346 347 346 343 335 335 338 337 336 337 337 338 341 339 330 327 327 328 330 333 339
318 318 318 319 320 321 323 325 325 326 327 328 327 325 326 333 353 355 356 356 355 358 361 357 350 345 345 345 346 347 346 342 337 337 340 338 337 336 337 337 336 331 326 327 328 329 331 338 341
318 319 319 319 319 320 323 323 323 323 324 325 325 321 323 346 350 353 356 356 354 354 358 355 354 353 351 350 348 347 346 344 341 340 343 341 338 338 337 335 331 329 325 327 329 329 328 333 338
318 317 319 319 320 321 322 321 321 322 320 321 322 321 328 337 343 350 353 354 354 354 355 353 353 352 352 354 348 347 346 345 344 345 345 343 341 340 342 337 335 331 329 323 327 329 329 329 332
318 318 317 319 320 321 321 321 320 320 319 319 320 321 322 326 335 343 349 351 354 354 354 352 350 349 346 348 349 347 349 347 346 348 348 344 344 345 345 343 340 340 333 330 326 325 328 329 329
317 318 319 318 320 320 319 319 319 319 319 319 319 320 320 321 325 338 344 346 355 354 353 351 349 347 346 347 347 348 348 348 347 347 347 341 343 345 342 345 342 340 340 333 329 325 323 325 330
316 317 318 318 319 319 317 318 318 318 319 320 320 320 320 321 321 326 337 342 353 354 354 353 353 349 348 349 347 344 346 345 345 345 345 346 343 344 345 344 344 342 340 336 338 337 333 326 328
316 316 317 318 318 318 317 317 317 318 319 320 320 320 320 320 322 327 333 337 354 349 348 347 334 352 351 354 351 345 347 346 346 346 346 348 343 345 344 343 345 346 342 340 339 338 339 334 332
317 317 317 318 318 318 317 317 318 319 320 319 320 320 320 320 321 327 327 337 350 351 338 336 339 351 355 356 352 350 349 349 348 349 348 348 348 346 347 344 345 343 344 342 342 340 339 338 337
317 317 317 317 317 317 319 318 319 320 320 321 321 321 320 321 321 325 326 329 348 345 338 332 342 347 350 353 353 352 351 349 349 347 348 349 349 349 350 348 345 342 341 340 341 343 344 340 340
317 317 317 318 319 317 319 319 321 321 321 321 321 320 321 321 322 322 325 335 347 353 348 348 342 339 350 355 352 349 352 351 350 350 351 350 352 349 349 349 350 351 349 349 349 348 347 342 344
318 319 318 318 319 319 318 319 321 322 321 322 322 323 323 323 325 325 328 342 341 341 348 351 353 355 354 357 355 353 353 352 344 336 335 348 350 348 348 347 347 348 349 350 350 351 340 348 348
320 320 319 319 319 320 320 320 321 323 323 322 323 323 324 324 327 329 330 340 335 335 341 345 353 356 353 350 349 346 348 353 349 347 351 352 347 338 334 340 338 345 345 348 347 346 346 346 346
319 320 320 319 320 321 321 321 321 322 323 323 323 324 325 325 328 328 330 337 335 339 338 340 341 351 352 353 346 346 347 347 345 344 346 352 349 339 335 330 330 338 345 345 344 344 339 340 340
318 318 320 320 320 322 322 321 322 322 323 323 324 324 325 326 326 330 330 328 336 344 343 341 341 347 346 344 339 338 337 336 338 338 344 346 351 349 349 343 344 345 341 340 339 326 326 328 332
318 318 319 321 320 320 321 322 322 322 323 324 324 325 324 326 330 330 331 331 340 344 345 346 347 348 347 344 338 339 339 335 334 339 344 347 349 351 349 348 347 347 342 333 326 327 321 324 328
318 318 320 320 321 321 321 322 324 323 324 323 324 326 325 326 331 332 334 339 343 341 340 339 340 341 340 345 346 348 348 347 343 338 342 336 340 340 343 339 341 342 339 328 325 326 324 327 328
319 320 320 320 320 320 320 322 321 323 323 325 327 327 327 332 334 335 336 336 334 334 333 333 332 332 333 335 338 340 337 333 332 332 330 328 327 330 330 329 330 332 337 339 333 329 329 329 336
319 320 320 320 319 322 320 320 321 324 325 325 328 327 329 333 333 331 330 330 330 330 330 329 329 328 328 327 327 329 329 328 328 328 326 325 325 324 327 325 326 328 328 330 330 334 337 338 338
320 321 320 321 323 322 321 320 322 325 327 326 327 331 332 331 330 329 328 327 327 327 328 327 327 326 326 326 326 326 326 327 326 324 325 324 324 323 323 321 321 322 323 323 323 325 327 330 333
321 322 321 324 323 322 322 324 323 326 329 328 328 329 330 330 328 328 327 326 325 324 324 325 325 325 324 324 324 324 324 324 323 324 323 323 322 322 321 321 320 319 319 320 322 322 323 324 326
321 321 321 324 327 334 329 324 324 324 329 329 328 329 329 329 328 326 325 324 323 323 323 323 323 323 322 322 322 322 322 321 322 321 321 321 320 320 320 318 318 318 317 317 318 319 320 322 323
322 321 323 324 333 334 332 329 327 326 330 330 330 329 329 328 326 325 324 323 322 322 322 321 321 321 321 320 320 319 319 320 320 319 319 318 318 317 317 316 316 316 315 315 315 316 316 317 318
321 324 325 328 329 335 335 335 332 332 331 330 328 328 328 326 324 324 322 321 321 320 320 319 319 319 319 318 318 318 319 318 318 318 317 317 316 315 314 314 313 312 311 311 311 311 311 312 313
321 323 327 334 332 331 331 336 331 331 331 330 329 328 326 324 323 322 320 319 319 318 318 318 317 317 317 317 317 318 318 317 317 317 316 315 314 312 311 311 310 309 309 309 308 308 308 308 309

GFSSGP_925_thetae_111.txt.gz
Theta_e
312 310 317 318 317 321 326 329 330 332 332 331 332 331 339 362 364 373 358 357 349 345 346 347 347 347 344 341 336 333 333 333 331 331 334 335 337 336 332 332 336 338 339 338 336 331 326 326 326
310 315 322 316 317 320 325 328 330 331 332 329 330 332 348 371 364 362 359 355 346 346 346 347 347 347 344 341 337 334 335 334 331 332 334 335 337 336 333 333 336 337 337 338 337 326 324 326 328
309 315 318 313 314 319 323 327 329 331 331 331 331 331 342 360 363 360 359 357 349 347 347 347 347 347 344 342 340 335 336 336 331 332 334 334 336 336 339 338 338 340 341 340 333 324 325 328 331
316 314 315 314 315 317 321 324 326 327 330 330 329 333 346 351 358 357 359 359 353 349 348 347 348 347 345 345 343 337 337 337 331 333 334 335 336 336 343 341 342 341 339 337 326 325 326 329 331
316 312 313 314 315 317 320 323 325 327 328 329 328 331 351 355 356 356 362 361 359 354 353 346 346 346 346 346 345 340 339 339 332 333 334 334 335 336 343 345 344 343 339 329 326 325 326 328 336
313 311 312 312 314 315 318 321 323 323 323 329 328 328 347 355 356 356 361 362 360 357 358 346 345 345 345 345 346 343 342 341 333 334 335 334 334 336 338 344 345 343 334 327 326 326 326 334 338
315 312 312 313 315 315 317 319 321 322 322 328 324 324 332 349 357 356 356 361 359 358 358 352 346 345 345 345 346 346 344 343 334 334 337 336 335 336 337 338 341 340 329 326 327 327 327 331 337
314 312 314 314 314 313 315 319 320 320 322 323 323 320 329 351 355 356 356 359 359 359 359 354 347 346 346 346 347 347 346 343 336 335 339 338 338 338 338 338 338 334 327 325 328 329 331 336 339
314 312 313 314 315 315 315 316 319 318 318 318 319 322 340 343 346 352 355 356 361 361 360 354 348 347 348 350 351 348 346 343 338 337 341 341 339 338 339 338 336 331 328 325 328 329 328 331 336
313 311 313 314 314 314 315 316 315 318 318 318 318 319 327 336 340 339 346 350 357 357 354 351 347 345 350 353 354 348 347 345 342 341 344 343 341 339 337 337 336 333 330 327 326 330 331 330 330
312 314 313 314 316 315 315 315 316 316 317 318 318 317 318 319 324 325 334 342 354 354 354 353 351 350 352 350 346 347 347 346 345 345 344 343 340 344 344 340 340 338 338 333 329 326 325 328 329
313 313 314 315 315 315 314 315 315 315 316 317 317 317 317 316 315 318 320 347 354 348 348 349 349 348 349 350 345 343 344 344 343 343 342 342 337 342 345 344 344 342 339 336 334 329 326 323 320
313 312 314 315 315 313 313 314 314 314 315 317 318 318 317 316 316 318 321 352 349 345 345 347 347 347 347 348 346 345 343 342 340 341 343 343 340 342 345 345 343 345 343 341 336 331 332 335 331
313 313 314 312 313 313 314 314 314 314 316 318 317 317 316 316 315 316 324 348 345 344 346 343 340 335 341 348 348 347 346 345 344 345 344 345 345 341 343 347 344 346 347 344 341 339 337 338 338
314 314 313 314 313 313 314 313 314 314 317 317 317 316 317 316 317 315 323 348 344 343 342 342 338 331 337 349 349 349 349 347 347 349 346 346 347 346 345 349 344 343 343 345 346 343 342 343 340
313 313 312 312 313 314 313 313 316 316 316 317 317 318 318 317 316 318 327 349 344 341 339 336 338 339 346 351 348 349 350 349 349 350 351 350 349 349 348 347 347 347 347 347 346 347 345 344 343
312 312 312 313 314 315 313 313 316 318 317 317 317 318 317 317 318 320 327 348 343 340 336 340 341 340 345 343 345 347 350 349 348 346 348 350 348 349 343 337 340 345 344 342 338 335 338 340 340
312 313 313 316 315 316 315 313 314 317 318 319 318 318 319 319 319 320 330 350 349 344 340 336 337 341 337 334 340 349 349 350 348 346 337 336 349 347 344 340 342 338 338 334 329 335 335 329 331
313 314 315 317 318 317 316 316 317 317 319 318 318 319 319 319 320 330 341 342 351 351 346 341 338 343 345 352 352 352 354 353 350 346 351 343 339 346 340 335 335 337 330 328 334 335 331 331 325
314 313 314 317 318 316 317 319 318 319 319 318 319 318 319 322 322 326 338 343 344 346 351 350 349 349 349 350 349 345 347 346 342 343 345 346 342 346 345 338 337 333 331 332 337 335 332 326 324
314 313 314 316 318 318 319 320 321 322 321 320 320 319 321 322 324 338 343 345 346 346 347 347 347 348 347 347 345 339 337 337 344 344 346 343 347 346 344 345 344 341 343 340 335 326 327 323 322
315 315 315 317 318 320 319 317 320 321 320 320 322 320 321 323 329 342 340 338 337 336 338 341 342 341 344 347 347 343 343 341 336 334 332 330 332 334 336 333 335 341 341 338 327 325 322 322 323
317 317 316 317 318 320 319 317 316 320 320 318 321 322 324 326 334 336 333 334 333 332 332 331 331 332 336 340 339 333 330 330 330 327 325 326 324 327 325 327 329 331 331 334 336 336 331 325 324
319 318 317 317 316 318 318 318 316 319 320 319 321 323 332 332 331 331 330 330 330 329 329 328 327 327 327 328 330 328 325 325 325 325 325 324 323 322 322 321 321 322 324 324 323 325 329 331 327
317 315 318 321 319 318 317 318 317 321 327 321 321 331 330 329 328 327 326 326 328 328 327 326 326 326 325 325 325 324 325 324 324 323 323 322 321 321 321 320 320 319 319 319 320 322 322 323 324
317 317 317 320 320 319 318 319 317 319 326 325 330 329 328 326 325 325 324 324 326 327 326 325 325 324 324 324 323 323 323 322 322 321 320 321 320 320 319 319 318 317 317 316 316 317 318 319 320
318 319 317 319 329 330 328 324 320 325 327 329 328 328 329 327 324 323 322 322 323 323 323 323 323 322 322 322 321 320 320 320 320 319 319 319 318 317 316 315 315 315 315 315 315 315 315 316 316
318 318 319 318 330 331 331 333 334 331 329 327 328 328 327 325 323 321 321 322 322 321 321 321 321 320 320 319 319 318 319 319 318 318 317 317 316 315 314 313 312 311 311 310 310 309 309 309 310
318 320 319 322 325 327 329 332 333 331 329 328 326 326 324 322 321 320 319 321 321 321 320 319 318 319 318 317 317 318 318 318 317 317 316 315 314 313 311 311 309 309 309 309 309 308 308 307 307
318 318 325 327 328 329 330 333 331 329 329 329 329 326 322 321 320 318 317 319 319 319 317 316 316 316 316 316 317 317 317 316 316 315 314 313 313 311 310 309 309 309 310 309 309 309 308 308 307

GFSSGP_925_thetae_114.txt.gz
Theta_e
315 312 316 317 316 317 323 325 327 328 329 329 329 349 365 363 359 358 357 355 352 345 346 347 346 345 343 338 334 332 332 330 330 331 331 335 334 331 329 335 338 340 339 335 335 330 325 326 326
312 310 318 314 315 317 320 323 326 326 327 327 329 351 365 370 362 359 357 356 345 345 346 347 346 345 343 337 334 333 333 331 331 331 331 334 334 331 331 336 339 339 337 335 330 325 325 326 326
309 314 317 317 311 316 319 323 324 326 326 327 330 336 359 369 363 358 358 355 344 346 346 346 347 345 341 336 333 334 334 331 332 331 331 335 334 331 332 336 338 337 337 337 326 324 325 327 330
315 312 311 313 313 314 318 320 322 323 323 325 329 347 350 359 359 351 355 349 346 347 347 346 347 345 340 336 334 335 336 332 332 332 331 334 334 334 336 336 336 339 340 338 325 324 326 330 332
314 308 313 312 313 313 315 317 318 320 321 323 326 340 356 356 357 355 355 346 347 349 348 347 346 345 341 339 335 335 337 333 332 333 332 334 334 337 339 338 340 340 340 336 326 326 326 330 332
310 308 310 312 313 313 312 314 316 317 319 320 327 351 354 356 358 357 357 350 347 347 348 348 347 345 345 345 340 336 339 335 332 334 334 334 336 338 343 343 343 342 338 331 329 328 327 329 334
312 308 309 310 312 312 314 314 315 316 317 319 324 336 346 354 359 359 359 354 351 349 347 348 348 347 347 346 345 339 340 338 332 334 335 334 335 338 342 345 345 343 335 328 329 329 328 333 335
311 309 312 311 312 311 313 315 313 315 321 321 321 319 350 352 359 361 360 359 356 352 349 345 345 346 347 347 346 344 342 341 333 334 336 336 336 336 339 341 341 341 333 328 329 329 328 329 332
311 309 308 311 312 313 313 313 314 315 317 318 317 339 348 355 355 357 359 359 358 356 352 346 345 346 346 345 346 346 345 343 335 336 338 338 337 336 336 337 339 339 332 328 328 329 328 331 336
310 310 311 309 311 312 313 313 313 315 317 317 317 320 340 341 347 351 360 360 359 356 354 350 349 347 344 343 345 347 346 344 338 337 339 341 339 338 337 337 338 336 333 330 329 330 329 327 328
309 312 311 312 312 312 313 313 313 314 315 316 317 317 318 327 328 328 337 360 356 354 354 352 349 347 347 348 347 348 346 345 342 340 340 342 342 339 338 338 337 335 334 331 329 326 328 331 330
311 312 311 312 312 312 313 313 314 313 314 314 314 316 316 315 317 321 345 351 351 353 352 350 349 349 353 349 345 345 345 345 344 343 343 343 342 339 339 344 341 341 339 337 335 332 329 326 324
311 312 312 311 311 312 311 312 312 312 313 313 314 316 316 315 315 326 349 345 348 351 351 349 350 345 338 348 344 344 343 344 342 342 341 339 338 337 340 343 344 343 343 343 342 340 336 330 330
312 314 314 312 309 311 312 313 310 312 313 314 315 315 315 314 315 342 345 344 347 349 349 345 344 338 342 345 348 345 347 343 342 338 337 338 341 338 342 344 346 343 343 345 344 343 341 339 338
313 313 313 311 310 309 310 311 312 312 312 313 314 314 315 314 315 323 346 343 346 347 346 347 340 342 341 339 344 346 345 344 343 343 343 342 344 345 342 346 347 345 346 346 346 345 344 343 341
312 312 314 313 311 311 310 313 312 312 311 313 314 314 315 314 314 318 344 344 343 344 345 343 343 342 342 340 345 348 347 344 345 345 345 345 345 346 345 345 347 347 347 346 344 343 342 339 338
309 312 309 311 310 311 310 313 312 312 313 313 313 314 315 314 314 320 343 343 342 344 341 341 342 341 341 342 348 349 351 349 348 347 348 348 347 347 347 346 346 345 344 344 342 339 335 333 334
314 309 311 311 313 311 312 312 311 312 313 314 314 314 315 314 314 324 344 344 342 342 339 341 339 335 335 345 348 347 350 351 349 347 345 346 346 346 344 345 338 334 341 338 335 334 333 335 335
312 311 311 312 312 314 312 312 313 314 311 313 314 315 314 314 315 324 346 342 338 336 337 337 340 338 337 346 347 344 349 350 348 347 345 344 346 343 343 343 340 341 339 336 330 332 335 336 335
312 311 311 312 313 314 315 315 314 314 314 315 316 315 315 316 318 336 346 345 339 338 340 342 342 343 342 341 338 347 347 347 348 345 347 346 345 340 344 343 340 335 334 331 331 333 337 331 327
312 311 312 311 313 314 315 314 317 317 317 318 319 316 317 316 339 343 343 346 346 344 341 342 342 340 339 343 347 348 350 348 345 344 345 343 346 343 342 342 341 339 334 333 331 335 335 327 325
313 313 313 313 313 314 315 316 315 318 318 319 319 317 331 342 342 340 338 337 338 340 344 344 345 347 348 349 349 342 341 340 333 330 329 334 336 334 336 337 339 342 342 341 339 333 327 323 321
314 314 315 314 313 314 316 315 314 315 319 318 320 322 340 340 337 335 332 331 331 333 335 335 339 343 344 344 341 339 336 331 326 325 326 326 324 326 328 329 331 332 333 333 332 329 328 331 326
316 317 316 314 312 315 315 316 315 316 317 318 321 333 339 335 333 330 329 329 328 328 328 329 330 330 332 332 331 331 327 324 325 324 322 322 322 321 321 321 321 321 321 321 321 322 325 326 327
318 317 317 316 316 316 315 316 315 315 317 320 332 336 333 331 330 329 328 327 326 326 326 326 325 325 324 323 324 324 324 323 323 322 321 321 320 320 319 319 318 317 317 317 316 316 317 318 319
319 319 315 318 319 317 315 316 315 316 324 322 331 330 330 328 328 328 326 325 325 325 325 324 324 324 323 323 322 322 322 321 320 319 319 319 318 317 316 315 315 315 315 315 315 315 315 315 315
321 321 315 318 325 322 322 326 321 324 326 329 328 328 327 325 324 323 322 323 323 323 323 322 322 322 322 321 320 319 319 319 318 318 318 317 316 315 314 313 313 312 312 311 311 310 310 310 310
321 316 317 317 327 326 327 331 330 330 329 329 328 327 325 324 322 322 321 320 320 321 321 320 320 320 319 318 318 318 318 318 317 317 316 316 314 313 312 311 310 308 308 308 308 308 308 308 307
320 320 317 317 321 323 325 325 329 329 329 327 326 326 324 323 322 321 320 319 319 319 318 318 318 317 317 317 317 318 317 317 316 316 315 314 313 312 311 309 309 308 308 309 309 308 308 308 308
325 324 319 322 327 321 323 324 329 329 329 328 326 323 321 321 321 321 319 318 316 314 314 314 314 315 315 316 317 317 316 316 315 314 313 312 312 311 310 309 309 310 309 309 309 309 308 308 308

GFSSGP_925_thetae_117.txt.gz
Theta_e
315 314 313 316 316 317 322 324 324 327 328 327 327 338 350 357 356 351 356 349 348 349 346 346 344 342 339 333 331 332 330 329 331 331 333 336 335 331 331 338 339 340 339 338 335 325 327 326 325
313 311 317 311 314 317 319 320 324 325 325 323 326 359 363 366 361 358 356 353 350 347 346 346 344 343 339 332 332 332 330 330 330 330 332 333 330 329 334 338 340 337 334 333 333 325 328 328 328
309 314 316 315 311 317 318 320 323 324 323 322 325 342 362 366 360 356 357 354 349 346 346 347 345 343 340 332 332 332 331 331 330 329 333 332 330 330 335 338 339 338 336 330 330 326 327 327 329
314 311 310 313 313 313 317 320 318 317 318 319 326 346 350 360 359 357 357 354 348 347 348 347 346 344 340 333 333 333 331 332 331 330 333 333 331 330 334 337 338 338 337 334 326 326 327 330 332
312 307 312 314 314 313 314 316 317 316 317 318 321 332 356 357 356 355 357 354 348 349 348 347 346 344 339 333 334 334 332 332 332 331 333 333 331 332 333 336 337 340 339 335 324 326 329 332 333
309 306 309 312 312 313 312 313 314 314 314 315 319 333 357 356 353 356 355 351 347 347 349 347 346 343 338 335 334 336 333 332 333 332 332 334 334 339 337 340 341 339 338 335 327 326 327 330 332
309 306 309 309 311 312 313 313 314 314 313 313 318 349 348 357 356 354 351 348 348 347 349 349 347 343 340 338 335 336 336 332 333 334 333 334 335 339 342 343 343 342 339 331 328 327 327 329 335
307 309 311 308 311 311 312 314 313 313 315 316 323 344 358 353 356 353 351 352 352 352 351 350 347 344 344 344 340 337 339 334 333 335 335 335 335 336 339 343 343 342 337 329 328 327 326 328 331
308 310 309 311 311 311 311 312 312 313 313 315 315 330 350 357 358 355 355 355 353 353 352 349 347 347 346 345 345 341 341 339 334 335 337 336 335 336 337 338 338 339 337 331 330 330 330 329 332
310 307 308 309 310 310 312 312 311 312 311 315 316 328 352 359 359 357 357 357 354 353 354 353 354 348 347 348 347 345 344 342 336 334 337 338 337 336 335 336 336 336 333 330 327 329 329 329 329
308 310 310 311 310 310 311 311 312 312 312 315 316 319 325 342 356 358 358 357 355 352 352 353 351 349 349 350 346 346 345 344 340 336 337 340 340 338 337 336 336 336 333 329 329 325 325 326 327
310 309 311 310 311 312 312 312 312 312 311 313 313 314 315 326 337 348 358 357 354 354 353 349 348 348 345 344 346 347 346 345 342 339 339 341 342 340 337 337 336 335 334 333 332 332 331 329 327
310 311 311 310 310 309 309 310 310 311 310 311 310 314 314 313 326 331 352 354 353 352 352 349 348 346 342 340 337 341 343 345 344 342 341 342 342 341 338 338 343 342 341 341 340 339 339 339 336
311 311 311 310 310 308 310 311 309 310 310 310 310 312 312 311 334 345 348 350 351 351 353 349 348 345 339 338 336 336 349 347 346 344 343 343 342 341 337 339 343 344 344 343 343 342 342 342 340
312 312 312 311 311 310 310 310 310 310 311 311 310 311 313 311 338 341 345 348 351 353 352 348 345 342 340 337 345 348 347 344 342 344 344 341 337 343 337 341 343 346 346 344 345 344 344 343 341
311 312 314 311 310 309 309 312 311 310 309 310 311 311 312 312 316 340 343 347 349 349 347 347 347 342 340 341 343 347 346 345 345 343 342 342 343 344 342 342 344 345 345 346 344 343 341 340 340
311 311 310 312 309 311 309 312 311 310 309 310 310 310 311 311 312 332 342 346 348 350 346 345 346 342 341 345 346 346 346 347 345 345 344 344 344 345 345 346 345 346 345 345 344 341 338 338 337
313 309 311 310 310 309 310 308 310 310 309 310 310 310 311 312 312 323 341 343 345 346 346 343 343 343 344 344 342 344 348 349 346 345 345 345 345 345 345 345 346 345 339 339 339 338 337 334 333
313 312 310 309 311 311 310 310 310 310 310 309 309 310 311 312 313 332 340 342 343 343 343 343 342 342 341 340 345 348 347 345 344 343 343 341 343 345 344 345 343 341 338 338 336 331 331 332 334
313 311 310 311 312 310 311 312 312 312 312 310 310 310 311 312 317 341 341 342 340 340 341 339 340 339 339 338 344 347 346 344 344 345 344 345 344 343 342 343 340 337 335 333 331 331 332 333 332
314 314 310 311 312 312 313 312 313 313 313 312 311 312 313 312 330 343 340 338 337 338 340 340 338 340 336 336 345 345 345 343 342 343 344 344 345 344 343 341 340 338 336 334 333 332 332 332 329
315 312 311 312 312 310 312 312 313 313 315 314 315 313 320 339 339 344 342 338 337 338 339 339 338 342 342 342 343 345 345 339 332 336 337 336 337 338 338 339 340 340 339 338 336 335 334 328 323
314 313 312 312 311 312 312 313 313 314 316 316 316 337 340 340 341 343 342 333 333 336 340 342 343 343 344 346 346 344 337 329 328 328 330 330 330 330 330 332 335 335 333 332 330 330 329 329 330
313 313 312 312 309 312 311 313 314 314 315 315 329 341 339 335 333 330 329 330 329 332 336 338 339 338 340 340 338 337 330 325 325 324 325 323 322 321 321 321 321 321 320 320 319 318 318 319 320
315 314 314 315 312 315 311 313 313 315 316 319 338 337 335 332 331 329 327 326 325 324 326 327 327 326 328 330 327 326 325 323 322 322 321 321 320 319 318 318 317 316 316 316 316 315 315 315 315
314 314 315 318 317 315 314 315 314 314 319 322 337 334 333 331 328 327 326 325 324 323 323 323 323 323 323 323 323 322 322 321 320 320 319 319 318 316 315 315 314 313 313 312 312 312 311 310 310
317 318 313 316 323 316 315 319 323 326 329 334 334 333 331 328 326 325 324 323 322 322 322 322 322 320 320 320 319 319 319 318 318 317 317 316 315 315 313 312 311 309 308 308 308 308 308 307 307
320 316 318 316 323 322 325 326 322 330 328 330 332 329 325 325 324 323 322 321 320 320 320 321 320 319 318 318 318 318 317 317 317 316 316 315 314 313 311 309 308 308 308 308 308 308 308 308 308
323 322 320 317 320 322 328 326 328 327 326 327 326 324 324 324 323 323 321 319 316 316 318 317 316 317 317 317 317 317 317 316 316 315 314 313 312 311 310 309 309 309 310 310 309 309 308 308 308
323 320 320 319 322 320 322 324 327 326 324 324 325 323 323 322 321 320 318 315 313 313 314 314 314 315 316 316 317 317 316 315 315 314 312 312 312 311 309 310 310 310 308 309 308 308 308 308 308

GFSSGP_925_thetae_123.txt.gz
Theta_e
315 314 311 317 320 323 331 332 328 330 330 327 325 330 342 350 358 354 356 349 353 355 355 347 344 336 333 338 338 341 344 345 346 347 347 342 337 335 329 337 342 348 344 336 331 333 332 327 326
312 312 317 317 321 327 331 328 331 332 330 326 324 329 354 353 360 359 352 352 354 356 356 354 342 334 332 333 333 334 339 344 345 346 346 341 337 331 335 340 342 342 338 331 327 330 328 325 326
311 315 319 318 317 326 330 326 327 328 324 324 323 327 331 360 361 358 352 353 355 356 356 355 340 333 331 331 330 330 334 337 341 343 341 339 335 331 338 340 341 343 342 338 338 336 328 326 326
314 316 317 318 317 317 322 327 322 321 320 320 321 323 324 355 359 358 354 354 355 356 355 347 339 332 331 331 330 329 330 332 333 336 337 335 331 336 339 339 337 335 342 340 336 332 330 329 330
311 314 316 317 317 316 316 318 319 320 318 319 319 320 327 355 359 358 356 355 354 355 355 350 340 333 332 332 331 330 329 329 331 333 333 331 332 337 339 338 338 337 333 331 331 330 330 331 336
313 313 314 313 314 315 316 317 317 318 318 318 317 318 321 354 359 358 355 355 354 354 355 354 341 333 332 332 331 331 330 329 331 332 331 330 334 337 338 338 336 337 336 328 328 330 332 333 335
311 314 312 313 313 313 314 315 316 317 317 317 318 319 330 356 358 358 356 356 354 354 354 354 351 338 333 332 332 332 332 331 332 332 331 329 331 333 334 335 337 338 336 331 327 328 332 333 333
312 314 313 312 312 313 314 315 316 316 316 316 317 321 327 357 356 357 356 355 354 354 354 354 353 348 345 336 332 332 333 332 331 331 330 329 331 332 334 337 338 338 336 331 328 329 330 332 335
310 312 312 312 312 312 313 314 315 314 316 316 317 332 337 355 356 357 356 354 353 353 354 353 353 350 347 346 340 333 333 333 332 331 331 331 343 341 338 341 339 338 334 328 327 328 328 329 333
314 314 312 313 313 313 313 314 315 315 316 316 319 356 354 354 356 356 355 354 353 353 353 353 352 349 347 346 347 345 344 342 341 341 334 343 344 345 345 342 337 336 335 329 325 326 328 329 337
314 314 312 311 313 313 313 313 313 314 314 316 316 328 356 355 356 355 354 352 352 352 353 355 352 350 348 346 347 347 346 345 344 345 344 344 343 344 343 344 343 343 339 340 336 337 338 339 338
313 312 313 312 312 314 313 313 314 314 315 315 314 314 320 359 357 355 353 352 352 352 352 353 353 351 349 350 347 347 347 346 344 345 344 344 343 344 344 342 343 343 342 341 339 338 338 337 337
313 313 312 313 312 313 313 314 314 314 315 315 316 316 316 323 358 357 354 353 353 353 352 353 352 348 350 352 350 349 348 347 345 345 345 345 344 344 344 343 342 341 343 342 342 340 340 340 340
315 314 314 313 313 312 313 313 313 313 315 315 315 316 316 316 350 357 358 356 354 353 354 352 351 351 353 352 349 350 350 349 348 346 345 345 345 345 344 343 343 341 338 342 338 343 344 344 344
314 315 314 314 314 313 312 313 314 313 314 314 315 315 316 316 322 349 358 359 357 355 354 352 353 353 352 352 350 349 350 349 349 347 347 345 343 343 343 344 340 340 343 343 343 344 343 343 344
315 316 317 317 313 312 313 316 314 314 314 314 315 315 316 316 317 329 349 359 358 357 355 351 350 352 352 350 349 350 349 350 350 349 348 345 343 342 343 343 341 340 342 343 343 343 343 343 344
315 314 316 316 316 316 313 317 316 315 313 315 316 316 316 316 317 324 334 348 355 355 354 353 354 352 351 348 349 349 349 349 350 350 349 349 349 347 344 340 338 340 342 342 343 343 343 343 342
314 315 314 315 315 316 316 316 314 314 315 316 317 317 317 317 317 317 329 337 346 351 351 353 353 352 348 348 348 346 348 348 347 346 345 345 345 344 344 343 340 335 338 341 343 342 341 341 340
315 315 315 314 315 316 317 317 315 316 315 316 316 316 317 317 318 316 321 333 342 347 348 350 351 347 349 348 347 348 349 346 345 344 342 340 335 332 336 335 335 337 334 336 341 339 338 336 334
315 315 315 315 315 315 317 318 318 316 317 317 317 318 317 318 317 318 319 330 339 344 347 348 348 345 348 347 347 348 346 346 344 340 338 336 335 332 325 324 327 332 336 336 335 334 334 333 331
318 316 315 315 313 314 314 316 316 315 316 316 317 318 319 319 320 325 329 331 335 341 346 345 345 345 345 346 346 344 345 342 341 336 329 330 328 326 324 324 323 323 334 333 332 332 333 336 333
320 317 315 314 315 316 315 316 317 317 317 317 318 318 318 319 319 322 332 335 337 339 344 344 342 342 343 343 345 345 345 344 340 335 334 332 329 328 335 336 335 332 333 334 334 333 331 329 331
319 317 316 314 315 315 314 315 317 317 317 318 318 320 320 319 318 322 332 335 339 339 339 340 342 342 342 342 343 345 343 337 336 333 334 337 337 336 335 334 335 333 331 327 323 322 322 324 325
317 316 316 316 315 316 317 316 317 316 317 318 323 328 330 329 326 333 336 335 331 330 333 336 337 337 339 341 341 338 335 333 332 330 328 326 324 323 324 322 321 319 318 317 316 315 316 317 318
318 317 318 317 317 316 316 316 317 317 317 318 325 335 338 339 335 334 334 331 328 329 329 329 328 325 328 326 328 331 329 330 328 326 324 322 321 319 317 316 315 315 313 312 312 312 313 312 312
318 317 316 317 317 316 314 317 317 317 316 325 335 335 334 335 335 334 332 329 330 333 332 330 328 326 329 329 322 322 325 324 322 321 320 319 318 316 314 312 311 310 311 311 310 311 311 311 311
319 317 315 317 316 316 315 316 317 321 330 337 336 334 334 332 332 331 328 329 331 329 327 326 326 324 322 324 328 324 320 321 319 318 316 316 314 313 310 310 310 311 311 311 311 312 312 311 311
319 317 317 319 319 317 318 317 319 328 333 336 336 335 332 329 328 327 326 329 327 326 325 325 324 323 325 324 319 319 319 317 316 315 314 314 312 311 311 311 311 312 312 311 311 311 311 311 310
322 319 316 317 321 320 324 320 329 328 333 336 335 332 330 329 326 325 326 324 323 323 323 322 320 319 318 318 318 318 317 315 315 314 313 312 311 311 311 311 312 312 311 311 310 310 310 310 311
322 320 318 322 322 321 323 328 331 330 335 335 333 330 328 326 325 325 323 321 320 319 319 318 318 317 317 316 316 316 316 316 315 313 313 312 312 311 310 311 311 310 310 310 309 310 310 311 311